[[{"header":{"parameterUnit":"m.s-1","parameterCategory":1,"la1":31.0,"la2":29.5877,"lo1":-88.7671,"lo2":-86.6584,"dy":0.0162,"dx":0.0185,"nx":115,"ny":88,"refTime":"2023-03-28T18:00:00:Z","depth":0,"parameterNumber":2,"parameterNumberName":"U-component_of_WINDS"},"data":[0.0,0.0,0.0,0.0,0.0,0.0,0.0,0.0,0.0,0.0,0.0,0.0,0.0,0.0,0.0,0.0,0.0,0.0,0.0,0.0,0.0,0.0,0.0,0.0,0.0,0.0,0.0,0.0,0.0,0.0,0.0,0.0,0.0,0.0,0.0,0.0,0.0,0.0,0.0,0.0,0.0,0.0,0.0,0.0,0.0,0.0,0.0,0.0,0.0,0.0,0.0,0.0,0.0,0.0,0.0,0.0,0.0,0.0,0.0,0.0,0.0,0.0,0.0,0.0,0.0,0.0,0.0,0.0,0.0,0.0,0.0,0.0,0.0,0.0,0.0,0.0,0.0,0.0,0.0,0.0,0.0,0.0,0.0,0.0,0.0,0.0,0.0,0.0,0.0,0.0,0.0,0.0,0.0,0.0,0.0,0.0,0.0,0.0,0.0,0.0,0.0,0.0,0.0,0.0,0.0,0.0,0.0,0.0,0.0,0.0,0.0,0.0,0.0,0.0,0.0,0.0,0.0,0.0,0.0,0.0,0.0,0.0,0.0,0.0,0.0,0.0,0.0,0.0,0.0,0.0,0.0,0.0,0.0,0.0,0.0,0.0,0.0,0.0,0.0,0.0,0.0,0.0,0.0,0.0,0.0,0.0,0.0,0.0,0.0,0.0,0.0,0.0,0.0,0.0,0.0,0.0,0.0,0.0,0.0,0.0,0.0,0.0,0.0,0.0,0.0,0.0,0.0,0.0,0.0,0.0,0.0,0.0,0.0,0.0,0.0,0.0,0.0,0.0,0.0,0.0,0.0,0.0,0.0,0.0,0.0,0.0,0.0,0.0,0.0,0.0,0.0,0.0,0.0,0.0,0.0,0.0,0.0,0.0,0.0,0.0,0.0,0.0,0.0,0.0,0.0,0.0,0.0,0.0,0.0,0.0,0.0,0.0,0.0,0.0,0.0,0.0,0.0,0.0,0.0,0.0,0.0,0.0,0.0,0.0,0.0,0.0,0.0,0.0,0.0,0.0,0.0,0.0,0.0,0.0,0.0,0.0,0.0,0.0,0.0,0.0,0.0,0.0,0.0,0.0,0.0,0.0,0.0,0.0,0.0,0.0,0.0,0.0,0.0,0.0,0.0,0.0,0.0,0.0,0.0,0.0,0.0,0.0,0.0,0.0,0.0,0.0,0.0,0.0,0.0,0.0,0.0,0.0,0.0,0.0,0.0,0.0,0.0,0.0,0.0,0.0,0.0,0.0,0.0,0.0,0.0,0.0,0.0,0.0,0.0,0.0,0.0,0.0,0.0,0.0,0.0,0.0,0.0,0.0,0.0,0.0,0.0,0.0,0.0,0.0,0.0,0.0,0.0,0.0,0.0,0.0,0.0,0.0,0.0,0.0,0.0,0.0,0.0,0.0,0.0,0.0,0.0,0.0,0.0,0.0,0.0,0.0,0.0,0.0,0.0,0.0,0.0,0.0,0.0,0.0,0.0,0.0,0.0,0.0,0.0,0.0,0.0,0.0,0.0,0.0,0.0,0.0,0.0,0.0,0.0,0.0,0.0,0.0,0.0,0.0,0.0,0.0,0.0,0.0,0.0,0.0,0.0,0.0,0.0,0.0,0.0,0.0,0.0,0.0,0.0,0.0,0.0,0.0,0.0,0.0,0.0,0.0,0.0,0.0,0.0,0.0,0.0,0.0,0.0,0.0,0.0,0.0,0.0,0.0,0.0,0.0,0.0,0.0,0.0,0.0,0.0,0.0,0.0,0.0,0.0,0.0,0.0,0.0,0.0,0.0,0.0,0.0,0.0,0.0,0.0,0.0,0.0,0.0,0.0,0.0,0.0,0.0,0.0,0.0,0.0,0.0,0.0,0.0,0.0,0.0,0.0,0.0,0.0,0.0,0.0,0.0,0.0,0.0,0.0,0.0,0.0,0.0,0.0,0.0,0.0,0.0,0.0,0.0,0.0,0.0,0.0,0.0,0.0,0.0,0.0,0.0,0.0,0.0,0.0,0.0,0.0,0.0,0.0,0.0,0.0,0.0,0.0,0.0,0.0,0.0,0.0,0.0,0.0,0.0,0.0,0.0,0.0,0.0,0.0,0.0,0.0,0.0,0.0,0.0,0.0,0.0,0.0,0.0,0.0,0.0,0.0,0.0,0.0,0.0,0.0,0.0,0.0,0.0,0.0,0.0,0.0,0.0,0.0,0.0,0.0,0.0,0.0,0.0,0.0,0.0,0.0,0.0,0.0,0.0,0.0,0.0,0.0,0.0,0.0,0.0,0.0,0.0,0.0,0.0,0.0,0.0,0.0,0.0,0.0,0.0,0.0,0.0,0.0,0.0,0.0,0.0,0.0,0.0,0.0,0.0,0.0,0.0,0.0,0.0,0.0,0.0,0.0,0.0,0.0,0.0,0.0,0.0,0.0,0.0,0.0,0.0,0.0,0.0,0.0,0.0,0.0,0.0,0.0,0.0,0.0,0.0,0.0,0.0,0.0,0.0,0.0,0.0,0.0,0.0,0.0,0.0,0.0,0.0,0.0,0.0,0.0,0.0,0.0,0.0,0.0,0.0,0.0,0.0,0.0,0.0,0.0,0.0,0.0,0.0,0.0,0.0,0.0,0.0,0.0,0.0,0.0,0.0,0.0,0.0,0.0,0.0,0.0,0.0,0.0,0.0,0.0,0.0,0.0,0.0,0.0,0.0,0.0,0.0,0.0,0.0,0.0,0.0,0.0,0.0,0.0,0.0,0.0,0.0,0.0,0.0,0.0,0.0,0.0,0.0,0.0,0.0,0.0,0.0,0.0,0.0,0.0,0.0,0.0,0.0,0.0,0.0,0.0,0.0,0.0,0.0,0.0,0.0,0.0,0.0,0.0,0.0,0.0,0.0,0.0,0.0,0.0,0.0,0.0,0.0,0.0,0.0,0.0,0.0,0.0,0.0,0.0,0.0,0.0,0.0,0.0,0.0,0.0,0.0,0.0,0.0,0.0,0.0,0.0,0.0,0.0,0.0,0.0,0.0,0.0,0.0,0.0,0.0,0.0,0.0,0.0,0.0,0.0,0.0,0.0,0.0,0.0,0.0,0.0,0.0,0.0,0.0,0.0,0.0,0.0,0.0,0.0,0.0,0.0,0.0,0.0,0.0,0.0,0.0,0.0,0.0,0.0,0.0,0.0,0.0,0.0,0.0,0.0,0.0,0.0,0.0,0.0,0.0,0.0,0.0,0.0,0.0,0.0,0.0,0.0,0.0,0.0,0.0,0.0,0.0,0.0,0.0,0.0,0.0,0.0,0.0,0.0,0.0,0.0,0.0,0.0,0.0,0.0,0.0,0.0,0.0,0.0,0.0,0.0,0.0,0.0,0.0,0.0,0.0,0.0,0.0,0.0,0.0,0.0,0.0,0.0,0.0,0.0,0.0,0.0,0.0,0.0,0.0,0.0,0.0,0.0,0.0,0.0,0.0,0.0,0.0,0.0,0.0,0.0,0.0,0.0,0.0,0.0,0.0,0.0,0.0,0.0,0.0,0.0,0.0,0.0,0.0,0.0,0.0,0.0,0.0,0.0,0.0,0.0,0.0,0.0,0.0,0.0,0.0,0.0,0.0,0.0,0.0,0.0,0.0,0.0,0.0,0.0,0.0,0.0,0.0,0.0,0.0,0.0,0.0,0.0,0.0,0.0,0.0,0.0,0.0,0.0,0.0,0.0,0.0,0.0,0.0,0.0,0.0,0.0,0.0,0.0,0.0,0.0,0.0,0.0,0.0,0.0,0.0,0.0,0.0,0.0,0.0,0.0,0.0,0.0,0.0,0.0,0.0,0.0,0.0,0.0,0.0,0.0,0.0,0.0,0.0,0.0,0.0,0.0,0.0,0.0,0.0,0.0,0.0,0.0,0.0,0.0,0.0,0.0,0.0,0.0,0.0,0.0,0.0,0.0,0.0,0.0,0.0,0.0,0.0,0.0,0.0,0.0,0.0,0.0,0.0,0.0,0.0,0.0,0.0,0.0,0.0,0.0,0.0,0.0,0.0,0.0,0.0,0.0,0.0,0.0,0.0,0.0,0.0,0.0,0.0,0.0,0.0,0.0,0.0,0.0,0.0,0.0,0.0,0.0,0.0,0.0,0.0,0.0,0.0,0.0,0.0,0.0,0.0,0.0,0.0,0.0,0.0,0.0,0.0,0.0,0.0,0.0,0.0,0.0,0.0,0.0,0.0,0.0,0.0,0.0,0.0,0.0,0.0,0.0,0.0,0.0,0.0,0.0,0.0,0.0,0.0,2.0446,0.0,0.0,0.0,0.0,0.0,0.0,0.0,0.0,0.0,0.0,0.0,0.0,0.0,0.0,0.0,0.0,0.0,0.0,0.0,0.0,0.0,0.0,0.0,0.0,0.0,0.0,0.0,0.0,0.0,0.0,0.0,0.0,0.0,0.0,0.0,0.0,0.0,0.0,0.0,0.0,0.0,0.0,0.0,0.0,0.0,0.0,0.0,0.0,0.0,0.0,0.0,0.0,0.0,0.0,0.0,0.0,0.0,0.0,0.0,0.0,0.0,0.0,0.0,0.0,0.0,0.0,0.0,0.0,0.0,0.0,0.0,0.0,0.0,0.0,0.0,0.0,0.0,0.0,0.0,0.0,0.0,0.0,0.0,0.0,0.0,0.0,0.0,0.0,0.0,0.0,0.0,0.0,0.0,0.0,0.0,0.0,0.0,0.0,0.0,0.0,0.0,0.0,0.0,0.0,0.0,0.0,0.0,0.0,0.0,0.0,2.1397,2.1397,2.1652,2.1527,2.1043,0.0,0.0,0.0,0.0,0.0,0.0,0.0,0.0,0.0,0.0,0.0,0.0,0.0,0.0,0.0,0.0,0.0,0.0,0.0,0.0,0.0,0.0,0.0,0.0,0.0,0.0,0.0,0.0,0.0,0.0,0.0,0.0,0.0,0.0,0.0,0.0,0.0,0.0,0.0,0.0,0.0,0.0,0.0,0.0,0.0,0.0,0.0,0.0,0.0,0.0,0.0,0.0,0.0,0.0,0.0,0.0,0.0,0.0,0.0,0.0,0.0,0.0,0.0,0.0,0.0,0.0,0.0,0.0,0.0,0.0,0.0,0.0,0.0,0.0,0.0,0.0,0.0,0.0,0.0,0.0,0.0,0.0,0.0,0.0,0.0,0.0,0.0,0.0,0.0,0.0,0.0,0.0,0.0,0.0,0.0,0.0,0.0,0.0,0.0,0.0,0.0,0.0,0.0,0.0,0.0,0.0,0.0,0.0,0.0,0.0,0.0,0.0,2.1397,2.1397,2.1397,0.0,0.0,0.0,0.0,0.0,0.0,0.0,0.0,0.0,0.0,0.0,0.0,0.0,0.0,0.0,0.0,0.0,0.0,0.0,0.0,0.0,0.0,0.0,0.0,0.0,0.0,0.0,0.0,0.0,0.0,0.0,0.0,0.0,0.0,0.0,0.0,0.0,0.0,0.0,0.0,0.0,0.0,0.0,0.0,0.0,0.0,0.0,0.0,0.0,0.0,0.0,0.0,0.0,0.0,0.0,0.0,0.0,0.0,0.0,0.0,0.0,0.0,0.0,0.0,0.0,0.0,0.0,0.0,0.0,0.0,0.0,0.0,0.0,0.0,0.0,0.0,0.0,0.0,0.0,0.0,0.0,0.0,0.0,0.0,0.0,0.0,0.0,0.0,0.0,0.0,0.0,0.0,0.0,0.0,0.0,0.0,0.0,0.0,0.0,0.0,0.0,0.0,0.0,0.0,0.0,0.0,0.0,0.0,0.0,0.0,2.1397,2.1397,2.1397,0.0,2.1397,0.0,0.0,0.0,0.0,0.0,0.0,0.0,0.0,0.0,0.0,0.0,0.0,0.0,0.0,0.0,0.0,0.0,0.0,0.0,0.0,0.0,0.0,0.0,0.0,0.0,0.0,0.0,0.0,0.0,0.0,0.0,0.0,0.0,0.0,0.0,0.0,0.0,0.0,0.0,0.0,0.0,0.0,0.0,0.0,0.0,0.0,0.0,0.0,0.0,0.0,0.0,0.0,0.0,0.0,0.0,0.0,0.0,0.0,0.0,0.0,0.0,0.0,0.0,0.0,0.0,0.0,0.0,0.0,0.0,0.0,0.0,0.0,0.0,0.0,0.0,0.0,0.0,0.0,0.0,0.0,0.0,0.0,0.0,0.0,0.0,0.0,0.0,0.0,0.0,0.0,0.0,0.0,0.0,0.0,0.0,0.0,0.0,0.0,0.0,0.0,0.0,0.0,0.0,0.0,0.0,0.0,0.0,0.0,0.0,0.0,2.1397,2.1397,2.1397,2.1397,0.0,0.0,0.0,0.0,0.0,0.0,0.0,0.0,0.0,0.0,0.0,0.0,0.0,0.0,0.0,0.0,0.0,0.0,0.0,0.0,0.0,0.0,0.0,0.0,0.0,0.0,0.0,0.0,0.0,0.0,0.0,0.0,0.0,0.0,0.0,0.0,0.0,0.0,0.0,0.0,0.0,0.0,0.0,0.0,0.0,0.0,0.0,0.0,0.0,0.0,0.0,0.0,0.0,0.0,0.0,0.0,0.0,0.0,0.0,0.0,0.0,0.0,0.0,0.0,0.0,0.0,0.0,0.0,0.0,0.0,0.0,0.0,0.0,0.0,0.0,0.0,0.0,0.0,0.0,0.0,0.0,0.0,0.0,0.0,0.0,0.0,0.0,0.0,0.0,0.0,0.0,0.0,0.0,0.0,0.0,0.0,0.0,0.0,0.0,0.0,0.0,0.0,0.0,0.0,0.0,0.0,0.0,0.0,0.0,0.0,2.1397,2.1397,2.1397,2.1397,2.1397,2.1397,0.0,0.0,0.0,0.0,0.0,0.0,0.0,0.0,0.0,0.0,0.0,0.0,0.0,0.0,0.0,0.0,0.0,0.0,0.0,0.0,0.0,0.0,0.0,0.0,0.0,0.0,0.0,0.0,0.0,0.0,0.0,0.0,0.0,0.0,0.0,0.0,0.0,0.0,0.0,0.0,0.0,0.0,0.0,0.0,0.0,0.0,0.0,0.0,0.0,0.0,0.0,0.0,0.0,0.0,0.0,0.0,0.0,0.0,0.0,0.0,0.0,0.0,0.0,0.0,0.0,0.0,0.0,0.0,0.0,0.0,0.0,0.0,0.0,0.0,0.0,0.0,0.0,0.0,0.0,0.0,0.0,0.0,0.0,0.0,0.0,0.0,0.0,0.0,0.0,0.0,0.0,0.0,0.0,0.0,0.0,0.0,0.0,0.0,0.0,0.0,0.0,0.0,0.0,0.0,0.0,0.0,0.0,0.0,2.1397,2.1397,2.1397,2.1397,2.1397,2.1397,0.0,0.0,0.0,0.0,0.0,0.0,0.0,0.0,0.0,0.0,0.0,0.0,0.0,0.0,0.0,0.0,0.0,0.0,0.0,0.0,0.0,0.0,0.0,0.0,0.0,0.0,0.0,0.0,0.0,0.0,0.0,0.0,0.0,0.0,0.0,0.0,0.0,0.0,0.0,0.0,0.0,0.0,0.0,0.0,0.0,0.0,0.0,0.0,0.0,0.0,0.0,0.0,0.0,0.0,0.0,0.0,0.0,0.0,0.0,0.0,0.0,0.0,0.0,0.0,0.0,0.0,0.0,0.0,0.0,0.0,0.0,0.0,0.0,0.0,0.0,0.0,0.0,0.0,0.0,0.0,0.0,0.0,0.0,0.0,0.0,0.0,0.0,0.0,0.0,0.0,0.0,0.0,0.0,0.0,0.0,0.0,0.0,0.0,0.0,0.0,0.0,0.0,0.0,0.0,0.0,0.0,0.0,0.0,0.0,2.1397,2.1397,2.1397,2.1397,2.1397,2.1397,0.0,0.0,0.0,0.0,0.0,0.0,0.0,0.0,0.0,0.0,0.0,0.0,0.0,0.0,0.0,0.0,0.0,0.0,0.0,0.0,0.0,0.0,0.0,0.0,0.0,0.0,0.0,0.0,0.0,0.0,0.0,0.0,0.0,0.0,0.0,0.0,0.0,0.0,0.0,0.0,0.0,0.0,0.0,0.0,0.0,0.0,0.0,0.0,0.0,0.0,0.0,0.0,0.0,0.0,0.0,0.0,0.0,0.0,0.0,0.0,0.0,0.0,0.0,0.0,0.0,0.0,0.0,0.0,0.0,0.0,0.0,0.0,0.0,0.0,0.0,0.0,0.0,0.0,0.0,0.0,0.0,0.0,0.0,0.0,0.0,0.0,0.0,0.0,0.0,0.0,0.0,0.0,0.0,0.0,0.0,0.0,0.0,0.0,0.0,0.0,0.0,0.0,0.0,0.0,0.0,0.0,0.0,0.0,0.0,2.1397,0.0,2.1397,2.1397,2.1397,2.1397,0.0,0.0,0.0,0.0,0.0,0.0,0.0,0.0,0.0,0.0,0.0,0.0,0.0,0.0,0.0,0.0,0.0,0.0,0.0,0.0,0.0,0.0,0.0,0.0,0.0,0.0,0.0,0.0,0.0,0.0,0.0,0.0,0.0,0.0,0.0,0.0,0.0,0.0,0.0,0.0,0.0,0.0,0.0,0.0,0.0,0.0,0.0,0.0,0.0,0.0,0.0,0.0,0.0,0.0,0.0,0.0,0.0,0.0,0.0,0.0,0.0,0.0,0.0,0.0,0.0,0.0,0.0,0.0,0.0,0.0,0.0,0.0,0.0,0.0,0.0,0.0,0.0,0.0,0.0,0.0,0.0,0.0,0.0,0.0,0.0,0.0,0.0,0.0,0.0,0.0,0.0,0.0,0.0,0.0,0.0,0.0,0.0,0.0,0.0,0.0,0.0,0.0,0.0,0.0,0.0,0.0,0.0,0.0,2.1397,2.1397,2.1397,2.1397,2.1397,2.1397,2.1397,0.0,0.0,0.0,0.0,0.0,0.0,0.0,0.0,0.0,0.0,0.0,0.0,0.0,0.0,0.0,0.0,0.0,0.0,0.0,0.0,0.0,0.0,0.0,0.0,0.0,0.0,0.0,0.0,0.0,0.0,0.0,0.0,0.0,0.0,0.0,0.0,0.0,0.0,0.0,0.0,0.0,0.0,0.0,0.0,0.0,0.0,0.0,0.0,0.0,0.0,0.0,0.0,0.0,0.0,0.0,0.0,0.0,0.0,0.0,0.0,0.0,0.0,0.0,0.0,0.0,0.0,0.0,0.0,0.0,0.0,0.0,0.0,0.0,0.0,0.0,0.0,0.0,0.0,0.0,0.0,0.0,0.0,0.0,0.0,0.0,0.0,0.0,0.0,0.0,0.0,0.0,0.0,0.0,0.0,0.0,0.0,0.0,0.0,0.0,0.0,0.0,0.0,0.0,0.0,0.0,0.0,0.0,0.0,0.0,2.1397,2.1397,2.1397,2.1397,2.1397,2.1397,0.0,0.0,0.0,0.0,0.0,0.0,0.0,0.0,0.0,0.0,0.0,0.0,0.0,0.0,0.0,0.0,0.0,0.0,0.0,0.0,0.0,0.0,0.0,0.0,0.0,0.0,0.0,0.0,0.0,0.0,0.0,0.0,0.0,0.0,0.0,0.0,0.0,0.0,0.0,0.0,0.0,0.0,0.0,0.0,0.0,0.0,0.0,0.0,0.0,0.0,0.0,0.0,0.0,0.0,0.0,0.0,0.0,0.0,0.0,0.0,0.0,0.0,0.0,0.0,0.0,0.0,0.0,0.0,0.0,0.0,0.0,0.0,0.0,0.0,0.0,0.0,0.0,0.0,0.0,0.0,0.0,0.0,0.0,0.0,0.0,0.0,0.0,0.0,0.0,0.0,0.0,0.0,0.0,0.0,0.0,0.0,0.0,0.0,0.0,0.0,0.0,0.0,0.0,0.0,0.0,0.0,0.0,0.0,0.0,2.1736,2.1736,2.1724,2.1724,2.175,2.1616,2.1425,0.0,0.0,0.0,0.0,0.0,0.0,0.0,0.0,0.0,0.0,0.0,0.0,0.0,0.0,0.0,0.0,0.0,0.0,0.0,0.0,0.0,0.0,0.0,0.0,0.0,0.0,0.0,0.0,0.0,0.0,0.0,0.0,0.0,0.0,0.0,0.0,0.0,0.0,0.0,0.0,0.0,0.0,0.0,0.0,0.0,0.0,0.0,0.0,0.0,0.0,0.0,0.0,0.0,0.0,0.0,0.0,0.0,0.0,0.0,0.0,0.0,0.0,0.0,0.0,0.0,0.0,0.0,0.0,0.0,0.0,0.0,0.0,0.0,0.0,0.0,0.0,0.0,0.0,0.0,0.0,0.0,0.0,0.0,0.0,0.0,0.0,0.0,0.0,0.0,0.0,0.0,0.0,0.0,0.0,0.0,0.0,0.0,0.0,0.0,0.0,0.0,0.0,0.0,0.0,0.0,0.0,0.0,0.0,2.2454,2.2495,2.2455,2.2347,2.2319,2.2047,0.0,0.0,0.0,0.0,0.0,0.0,0.0,0.0,0.0,0.0,0.0,0.0,0.0,0.0,0.0,0.0,0.0,0.0,0.0,0.0,0.0,0.0,0.0,0.0,0.0,0.0,0.0,0.0,0.0,0.0,0.0,0.0,0.0,0.0,0.0,0.0,0.0,0.0,0.0,0.0,0.0,0.0,0.0,0.0,0.0,0.0,0.0,0.0,0.0,0.0,0.0,0.0,0.0,0.0,0.0,0.0,0.0,0.0,0.0,0.0,0.0,0.0,0.0,0.0,0.0,0.0,0.0,0.0,0.0,0.0,0.0,0.0,0.0,0.0,0.0,0.0,0.0,0.0,0.0,0.0,0.0,0.0,0.0,0.0,0.0,0.0,0.0,0.0,0.0,0.0,0.0,0.0,0.0,0.0,0.0,0.0,0.0,0.0,0.0,0.0,0.0,0.0,0.0,0.0,0.0,0.0,0.0,0.0,0.0,2.4272,2.4734,2.4327,2.3025,2.2536,2.2237,0.0,0.0,0.0,0.0,0.0,0.0,0.0,0.0,0.0,0.0,0.0,0.0,0.0,0.0,0.0,0.0,0.0,0.0,0.0,0.0,0.0,0.0,0.0,0.0,0.0,0.0,0.0,0.0,0.0,0.0,0.0,0.0,0.0,0.0,0.0,0.0,0.0,0.0,0.0,0.0,0.0,0.0,0.0,0.0,0.0,0.0,0.0,0.0,0.0,0.0,0.0,0.0,0.0,0.0,0.0,0.0,0.0,0.0,0.0,0.0,0.0,0.0,0.0,0.0,0.0,0.0,0.0,0.0,0.0,0.0,0.0,0.0,0.0,0.0,0.0,0.0,0.0,0.0,0.0,0.0,0.0,0.0,0.0,0.0,0.0,0.0,0.0,0.0,0.0,0.0,0.0,0.0,0.0,0.0,0.0,0.0,0.0,0.0,0.0,0.0,0.0,0.0,0.0,0.0,0.0,0.0,0.0,0.0,2.4286,2.4991,2.5832,2.5777,2.4746,2.3879,2.3065,0.0,0.0,0.0,0.0,0.0,0.0,0.0,0.0,0.0,0.0,0.0,0.0,0.0,0.0,0.0,0.0,0.0,0.0,0.0,0.0,0.0,0.0,0.0,0.0,0.0,0.0,0.0,0.0,0.0,0.0,0.0,0.0,0.0,0.0,0.0,0.0,0.0,0.0,0.0,0.0,0.0,0.0,0.0,0.0,0.0,0.0,0.0,0.0,0.0,0.0,0.0,0.0,0.0,0.0,0.0,0.0,0.0,0.0,0.0,0.0,0.0,0.0,0.0,0.0,0.0,0.0,0.0,0.0,0.0,0.0,0.0,0.0,0.0,0.0,0.0,0.0,0.0,0.0,0.0,0.0,0.0,0.0,0.0,0.0,0.0,0.0,0.0,0.0,0.0,0.0,0.0,0.0,0.0,0.0,0.0,0.0,0.0,0.0,0.0,0.0,0.0,0.0,0.0,0.0,0.0,0.0,0.0,0.0,2.5181,2.5398,2.6482,2.7052,2.6957,2.5696,2.4231,0.0,0.0,0.0,0.0,0.0,0.0,0.0,0.0,0.0,0.0,0.0,0.0,0.0,0.0,0.0,0.0,0.0,0.0,0.0,0.0,0.0,0.0,0.0,0.0,0.0,0.0,0.0,0.0,0.0,0.0,0.0,0.0,0.0,0.0,0.0,0.0,0.0,0.0,0.0,0.0,0.0,0.0,0.0,0.0,0.0,0.0,0.0,0.0,0.0,0.0,0.0,0.0,0.0,0.0,0.0,0.0,0.0,0.0,0.0,0.0,0.0,0.0,0.0,0.0,0.0,0.0,0.0,0.0,0.0,0.0,0.0,0.0,0.0,0.0,0.0,0.0,0.0,0.0,0.0,0.0,0.0,0.0,0.0,0.0,0.0,0.0,0.0,0.0,0.0,0.0,0.0,0.0,0.0,0.0,0.0,0.0,0.0,0.0,0.0,0.0,0.0,0.0,0.0,0.0,0.0,0.0,0.0,0.0,2.6402,2.78,2.8549,2.8682,2.822,2.6131,2.4829,0.0,0.0,0.0,0.0,0.0,0.0,0.0,0.0,0.0,0.0,0.0,0.0,0.0,0.0,0.0,0.0,0.0,0.0,0.0,0.0,0.0,0.0,0.0,0.0,0.0,0.0,0.0,0.0,0.0,0.0,0.0,0.0,0.0,0.0,0.0,0.0,0.0,0.0,0.0,0.0,0.0,0.0,0.0,0.0,0.0,0.0,0.0,0.0,2.381,0.0,0.0,0.0,0.0,0.0,0.0,0.0,0.0,0.0,0.0,0.0,0.0,0.0,0.0,0.0,0.0,0.0,0.0,0.0,0.0,0.0,0.0,0.0,0.0,0.0,0.0,0.0,0.0,0.0,0.0,0.0,0.0,0.0,0.0,0.0,0.0,0.0,0.0,0.0,0.0,0.0,0.0,0.0,0.0,0.0,0.0,0.0,0.0,0.0,0.0,0.0,0.0,0.0,0.0,0.0,0.0,0.0,0.0,0.0,2.7368,2.856,2.9485,2.9631,2.901,2.7517,2.6158,0.0,0.0,0.0,0.0,0.0,0.0,0.0,0.0,0.0,0.0,0.0,0.0,0.0,0.0,0.0,0.0,0.0,0.0,0.0,0.0,0.0,0.0,0.0,0.0,0.0,0.0,0.0,0.0,0.0,0.0,0.0,0.0,0.0,0.0,0.0,0.0,0.0,0.0,0.0,0.0,0.0,0.0,0.0,0.0,0.0,0.0,0.0,0.0,0.0,0.0,0.0,0.0,0.0,0.0,0.0,0.0,0.0,0.0,0.0,0.0,0.0,0.0,0.0,0.0,0.0,0.0,0.0,0.0,0.0,0.0,0.0,0.0,0.0,0.0,0.0,0.0,0.0,0.0,0.0,0.0,0.0,0.0,0.0,0.0,0.0,0.0,0.0,0.0,0.0,0.0,0.0,0.0,0.0,0.0,0.0,0.0,0.0,0.0,0.0,0.0,0.0,0.0,0.0,0.0,0.0,0.0,0.0,2.723,2.8166,2.8872,2.9957,3.0256,2.9662,2.9129,2.7759,2.5385,0.0,0.0,0.0,0.0,0.0,0.0,0.0,0.0,0.0,0.0,0.0,0.0,0.0,0.0,0.0,0.0,0.0,0.0,0.0,0.0,0.0,0.0,0.0,0.0,0.0,0.0,0.0,0.0,0.0,0.0,0.0,0.0,0.0,0.0,0.0,0.0,0.0,0.0,2.3594,2.4102,0.0,0.0,0.0,0.0,0.0,0.0,0.0,0.0,2.5927,0.0,0.0,0.0,0.0,0.0,0.0,0.0,0.0,0.0,0.0,0.0,0.0,0.0,0.0,0.0,0.0,0.0,0.0,0.0,0.0,0.0,0.0,0.0,0.0,0.0,0.0,0.0,0.0,0.0,0.0,0.0,0.0,0.0,0.0,0.0,0.0,0.0,0.0,0.0,0.0,0.0,0.0,0.0,0.0,0.0,0.0,0.0,0.0,0.0,0.0,0.0,0.0,0.0,0.0,0.0,0.0,2.6659,2.7854,2.901,3.0079,3.0785,3.0866,3.0283,3.0161,2.8964,2.6632,0.0,0.0,0.0,0.0,0.0,0.0,0.0,0.0,0.0,0.0,0.0,0.0,0.0,0.0,0.0,0.0,0.0,0.0,0.0,0.0,0.0,0.0,0.0,0.0,0.0,0.0,0.0,0.0,0.0,0.0,0.0,0.0,0.0,0.0,0.0,0.0,0.0,0.0,0.0,2.5076,2.5138,0.0,0.0,0.0,0.0,0.0,0.0,0.0,0.0,2.6329,0.0,0.0,0.0,0.0,0.0,0.0,0.0,0.0,0.0,0.0,0.0,0.0,0.0,0.0,0.0,0.0,0.0,0.0,0.0,0.0,0.0,0.0,0.0,0.0,0.0,0.0,0.0,0.0,0.0,0.0,0.0,0.0,0.0,0.0,0.0,0.0,0.0,0.0,0.0,0.0,0.0,0.0,0.0,0.0,0.0,0.0,0.0,0.0,0.0,0.0,0.0,0.0,0.0,0.0,0.0,2.7269,2.8438,2.9648,3.0839,3.145,3.1327,3.0459,3.0388,2.9262,0.0,0.0,0.0,0.0,0.0,0.0,0.0,0.0,0.0,0.0,0.0,0.0,0.0,0.0,0.0,0.0,0.0,0.0,0.0,0.0,0.0,0.0,0.0,0.0,0.0,0.0,0.0,0.0,0.0,0.0,0.0,0.0,0.0,0.0,0.0,0.0,0.0,0.0,0.0,0.0,2.5296,2.5446,2.5826,0.0,0.0,0.0,0.0,0.0,0.0,2.7415,2.7442,0.0,0.0,0.0,0.0,0.0,0.0,0.0,0.0,0.0,0.0,0.0,0.0,0.0,0.0,0.0,0.0,0.0,0.0,0.0,0.0,0.0,0.0,0.0,0.0,0.0,0.0,0.0,0.0,0.0,0.0,0.0,0.0,0.0,0.0,0.0,0.0,0.0,0.0,0.0,0.0,0.0,0.0,0.0,0.0,0.0,0.0,0.0,0.0,0.0,0.0,0.0,0.0,0.0,0.0,0.0,2.7689,2.8977,3.0184,3.126,3.1866,3.1577,3.0442,3.037,2.9212,0.0,0.0,0.0,0.0,0.0,0.0,0.0,0.0,0.0,0.0,0.0,0.0,0.0,0.0,0.0,0.0,0.0,0.0,0.0,0.0,0.0,0.0,0.0,0.0,0.0,0.0,0.0,0.0,0.0,0.0,0.0,0.0,0.0,0.0,0.0,0.0,0.0,0.0,0.0,0.0,0.0,2.583,2.6672,2.6684,0.0,0.0,0.0,0.0,2.8692,2.8799,0.0,0.0,0.0,0.0,0.0,0.0,0.0,0.0,0.0,0.0,0.0,0.0,0.0,0.0,0.0,0.0,0.0,0.0,0.0,0.0,0.0,0.0,0.0,0.0,0.0,0.0,0.0,0.0,0.0,0.0,0.0,0.0,0.0,0.0,0.0,0.0,0.0,0.0,0.0,0.0,0.0,0.0,0.0,0.0,0.0,0.0,0.0,0.0,0.0,0.0,0.0,0.0,0.0,0.0,0.0,0.0,2.773,2.9251,3.0439,3.1269,3.1708,3.1465,3.0428,3.0223,2.9036,0.0,0.0,0.0,0.0,0.0,0.0,0.0,0.0,0.0,0.0,0.0,0.0,0.0,0.0,0.0,0.0,0.0,0.0,0.0,0.0,0.0,0.0,0.0,0.0,0.0,0.0,0.0,0.0,0.0,0.0,0.0,0.0,0.0,0.0,0.0,0.0,0.0,0.0,0.0,0.0,0.0,2.6734,2.7996,2.7657,2.7703,0.0,0.0,2.8707,2.9984,3.0156,0.0,0.0,0.0,0.0,0.0,0.0,0.0,0.0,0.0,0.0,0.0,0.0,0.0,0.0,0.0,0.0,0.0,0.0,0.0,0.0,0.0,0.0,0.0,0.0,0.0,0.0,0.0,0.0,0.0,0.0,0.0,0.0,0.0,0.0,0.0,0.0,0.0,0.0,0.0,0.0,0.0,0.0,0.0,0.0,0.0,0.0,0.0,0.0,0.0,0.0,0.0,0.0,0.0,0.0,0.0,2.7103,2.8045,2.9278,3.0449,3.1419,3.1628,3.1199,3.009,2.9967,2.8836,0.0,0.0,0.0,0.0,0.0,0.0,0.0,0.0,0.0,0.0,0.0,0.0,0.0,0.0,0.0,0.0,0.0,0.0,0.0,0.0,0.0,0.0,0.0,0.0,0.0,0.0,0.0,0.0,0.0,0.0,0.0,0.0,0.0,0.0,0.0,0.0,0.0,0.0,0.0,0.0,0.0,0.0,2.8845,2.903,0.0,0.0,0.0,2.9876,3.0812,0.0,0.0,0.0,0.0,0.0,0.0,0.0,0.0,0.0,0.0,0.0,0.0,0.0,0.0,0.0,0.0,0.0,0.0,0.0,0.0,0.0,0.0,0.0,0.0,0.0,0.0,0.0,0.0,0.0,0.0,0.0,0.0,0.0,0.0,0.0,0.0,0.0,0.0,0.0,0.0,0.0,0.0,0.0,0.0,0.0,0.0,0.0,0.0,0.0,0.0,0.0,0.0,0.0,0.0,0.0,0.0,0.0,2.8427,2.9305,3.0339,3.1542,3.1572,3.1048,3.006,2.9851,0.0,0.0,0.0,0.0,0.0,0.0,0.0,0.0,0.0,0.0,0.0,0.0,0.0,0.0,0.0,0.0,0.0,0.0,0.0,0.0,0.0,0.0,0.0,0.0,0.0,0.0,0.0,2.4725,0.0,0.0,0.0,0.0,0.0,0.0,0.0,0.0,0.0,0.0,0.0,0.0,0.0,0.0,2.8753,2.9753,3.0199,3.0509,0.0,0.0,3.0889,3.1549,3.123,3.0784,0.0,0.0,0.0,0.0,0.0,0.0,0.0,0.0,0.0,0.0,0.0,0.0,0.0,0.0,0.0,0.0,0.0,0.0,0.0,0.0,0.0,0.0,0.0,0.0,0.0,0.0,0.0,0.0,0.0,0.0,0.0,0.0,0.0,0.0,0.0,0.0,0.0,0.0,0.0,0.0,0.0,0.0,0.0,0.0,0.0,0.0,0.0,0.0,0.0,0.0,0.0,0.0,0.0,0.0,0.0,2.8788,2.9292,3.0209,3.1537,3.1416,3.1098,3.0637,2.9976,2.8751,0.0,0.0,0.0,0.0,0.0,0.0,0.0,0.0,0.0,0.0,0.0,0.0,0.0,0.0,0.0,0.0,0.0,0.0,0.0,0.0,0.0,0.0,0.0,0.0,0.0,0.0,0.0,0.0,0.0,0.0,0.0,0.0,0.0,0.0,0.0,0.0,0.0,0.0,0.0,0.0,0.0,2.9104,3.0995,3.0768,3.0845,0.0,0.0,3.1565,3.2242,3.2275,3.1844,3.0599,0.0,0.0,0.0,0.0,0.0,0.0,0.0,0.0,0.0,0.0,0.0,0.0,0.0,0.0,0.0,0.0,0.0,0.0,0.0,0.0,0.0,0.0,0.0,0.0,0.0,0.0,0.0,0.0,0.0,0.0,0.0,0.0,0.0,0.0,0.0,0.0,0.0,0.0,0.0,0.0,0.0,0.0,0.0,0.0,0.0,0.0,0.0,0.0,0.0,0.0,0.0,0.0,0.0,2.7339,2.8698,2.9486,3.033,3.1172,3.1155,3.0847,3.0337,2.9736,2.8742,0.0,0.0,0.0,0.0,0.0,0.0,0.0,0.0,0.0,0.0,0.0,0.0,0.0,0.0,0.0,0.0,0.0,0.0,0.0,0.0,0.0,0.0,0.0,0.0,0.0,0.0,0.0,0.0,2.738,2.7473,2.7057,0.0,0.0,0.0,0.0,0.0,0.0,0.0,0.0,0.0,0.0,3.0061,3.1241,3.1536,0.0,0.0,3.2167,3.209,3.2351,3.2057,3.1474,3.054,3.0061,0.0,0.0,0.0,0.0,0.0,0.0,0.0,0.0,0.0,0.0,0.0,0.0,0.0,0.0,0.0,0.0,0.0,0.0,0.0,0.0,0.0,0.0,0.0,0.0,0.0,0.0,0.0,0.0,0.0,0.0,0.0,0.0,0.0,0.0,0.0,0.0,0.0,0.0,0.0,0.0,0.0,0.0,0.0,0.0,0.0,0.0,0.0,0.0,0.0,0.0,0.0,0.0,2.7479,2.879,2.9833,3.0654,3.1235,3.1235,3.1033,3.0628,2.9928,2.8987,0.0,0.0,0.0,0.0,0.0,0.0,0.0,0.0,0.0,0.0,0.0,0.0,0.0,0.0,0.0,0.0,0.0,0.0,0.0,0.0,0.0,0.0,0.0,0.0,0.0,0.0,0.0,0.0,2.8119,2.8134,2.7473,0.0,0.0,0.0,0.0,0.0,0.0,0.0,0.0,0.0,0.0,3.0951,3.1626,3.2103,3.2411,3.2411,3.2228,3.2103,3.2088,3.1536,3.0859,3.0215,0.0,0.0,0.0,0.0,0.0,0.0,0.0,0.0,0.0,0.0,0.0,0.0,0.0,0.0,0.0,0.0,0.0,0.0,0.0,0.0,0.0,0.0,0.0,0.0,0.0,0.0,0.0,0.0,0.0,0.0,2.0123,0.0,0.0,0.0,0.0,0.0,0.0,0.0,0.0,0.0,0.0,0.0,0.0,0.0,0.0,0.0,0.0,0.0,0.0,0.0,0.0,0.0,0.0,2.757,2.9271,3.0391,3.1248,3.1758,3.1784,3.1784,3.1719,3.0662,2.9544,2.839,0.0,0.0,0.0,0.0,0.0,0.0,0.0,0.0,0.0,0.0,0.0,0.0,0.0,0.0,0.0,0.0,0.0,0.0,0.0,0.0,0.0,0.0,0.0,0.0,0.0,0.0,2.82,2.8381,2.8107,0.0,0.0,0.0,0.0,0.0,0.0,0.0,0.0,0.0,0.0,3.0548,3.1611,3.2273,3.2382,3.2411,3.2411,3.1873,3.1457,3.147,3.0889,3.0199,0.0,0.0,0.0,0.0,0.0,0.0,0.0,0.0,0.0,0.0,0.0,0.0,0.0,0.0,0.0,0.0,0.0,0.0,0.0,0.0,0.0,0.0,0.0,0.0,0.0,0.0,0.0,2.1529,2.1369,0.0,0.0,0.0,0.0,0.0,0.0,0.0,0.0,0.0,0.0,0.0,2.5449,2.622,0.0,0.0,0.0,0.0,0.0,0.0,0.0,0.0,0.0,0.0,0.0,0.0,2.8311,2.9318,3.0777,3.1634,3.181,3.2182,3.2208,3.181,3.1085,2.9784,2.7876,0.0,0.0,0.0,0.0,0.0,0.0,0.0,0.0,0.0,0.0,0.0,0.0,0.0,0.0,0.0,0.0,0.0,0.0,0.0,0.0,0.0,0.0,0.0,0.0,0.0,2.6965,0.0,0.0,0.0,0.0,0.0,0.0,0.0,0.0,0.0,0.0,0.0,2.9476,3.0595,3.1118,3.1642,3.2305,3.2411,3.2411,0.0,0.0,0.0,0.0,0.0,0.0,0.0,0.0,0.0,0.0,0.0,0.0,0.0,0.0,2.9928,2.9465,2.9399,2.9322,2.9092,0.0,0.0,0.0,0.0,0.0,0.0,0.0,0.0,0.0,0.0,0.0,0.0,0.0,0.0,2.2499,0.0,2.216,0.0,0.0,0.0,0.0,0.0,0.0,0.0,0.0,2.4311,2.5079,2.5856,2.6582,2.7441,0.0,2.8392,2.7962,0.0,0.0,0.0,0.0,0.0,0.0,0.0,0.0,2.8795,2.9614,3.1255,3.2104,3.213,3.2712,3.2816,3.243,3.1496,3.0176,2.8456,2.7816,2.6984,0.0,0.0,0.0,0.0,0.0,0.0,0.0,0.0,0.0,0.0,0.0,0.0,0.0,0.0,0.0,0.0,0.0,0.0,0.0,0.0,0.0,0.0,0.0,2.7186,0.0,0.0,0.0,0.0,0.0,0.0,0.0,0.0,0.0,2.8308,2.9215,3.0099,3.0963,3.1474,3.1903,3.2336,0.0,0.0,0.0,0.0,0.0,0.0,0.0,3.1411,3.1411,3.1428,3.1441,3.1453,3.1609,3.1921,3.2569,0.0,0.0,3.1223,3.0905,3.0824,3.1052,3.1092,3.1025,3.0798,3.0757,3.0689,0.0,0.0,0.0,0.0,0.0,0.0,0.0,0.0,2.4235,2.417,0.0,2.3223,0.0,0.0,0.0,0.0,0.0,2.3053,0.0,0.0,2.5457,2.6057,2.6351,2.6836,2.7627,2.8623,2.8294,2.8524,2.9169,2.7748,0.0,0.0,0.0,0.0,0.0,0.0,2.9013,3.0127,3.1804,3.2698,3.2725,3.33,3.36,3.3522,3.1914,3.0738,3.0087,2.8508,2.7555,2.7464,2.5971,0.0,0.0,0.0,0.0,0.0,0.0,0.0,0.0,0.0,0.0,0.0,0.0,0.0,0.0,0.0,0.0,0.0,0.0,0.0,0.0,2.7352,0.0,0.0,0.0,0.0,0.0,0.0,0.0,0.0,0.0,0.0,2.8345,2.9575,3.0465,3.0537,0.0,0.0,0.0,0.0,3.2442,3.2458,3.1892,3.1507,3.1549,3.1478,3.1438,3.1465,0.0,0.0,3.344,3.2877,3.2621,3.3194,3.331,3.3102,3.2643,3.2022,3.1746,3.2316,3.243,3.2243,3.1672,3.1603,3.1382,2.4683,0.0,0.0,0.0,0.0,2.4006,2.4148,2.4279,2.4421,2.441,2.4277,2.4115,0.0,0.0,0.0,0.0,0.0,0.0,2.4574,2.5491,2.5775,2.6306,2.7047,2.7779,2.8318,2.8657,2.9339,2.9648,2.9511,2.9287,2.8874,2.8311,0.0,0.0,0.0,0.0,3.0006,3.0777,3.2032,3.2894,3.3339,3.3888,3.3979,3.3587,3.2287,3.1307,3.0751,2.9857,2.8786,2.7555,2.7049,0.0,0.0,0.0,0.0,0.0,0.0,0.0,0.0,0.0,0.0,0.0,0.0,0.0,0.0,0.0,0.0,0.0,0.0,0.0,2.6623,2.7495,2.7874,0.0,0.0,0.0,0.0,0.0,0.0,0.0,0.0,0.0,2.8676,2.9215,2.9929,0.0,0.0,3.1749,3.2313,3.2812,3.3106,3.3135,3.295,0.0,0.0,3.2721,3.2226,3.2735,3.3076,3.3554,3.4468,3.4438,3.4521,3.5125,3.4836,3.4597,3.4923,3.4113,3.3459,3.3579,3.3611,3.3561,3.3383,3.3334,3.324,2.615,2.5433,2.4774,2.4705,2.5043,2.5064,2.5282,2.5611,2.5611,2.5611,2.559,2.5207,2.488,2.4543,2.4183,0.0,0.0,0.0,2.5557,2.6463,2.666,2.7053,2.76,2.8132,2.8539,2.8898,2.943,2.9776,2.9925,3.0101,3.0132,2.9954,0.0,0.0,2.9627,2.9936,3.0511,3.1307,3.2228,3.2986,3.3574,3.411,3.4149,3.3621,3.2672,3.1895,3.132,3.0537,2.9604,2.856,2.7868,2.719,0.0,0.0,0.0,0.0,0.0,0.0,0.0,0.0,0.0,0.0,0.0,2.3184,0.0,0.0,0.0,0.0,2.5317,2.6082,2.7035,2.7556,0.0,0.0,0.0,0.0,0.0,0.0,0.0,2.7237,2.7855,2.8395,2.8665,2.9054,2.9766,3.0977,3.1358,3.1691,3.2168,0.0,3.2826,3.2736,3.2919,3.3252,3.3782,3.3469,3.3386,3.4107,3.3921,3.3941,3.4747,3.4715,3.4763,3.5348,3.5231,3.5131,3.5808,3.5268,3.4773,3.4882,3.4889,3.4819,3.4522,3.4466,3.4395,2.7412,2.6885,2.5346,2.5209,2.5994,2.6016,2.6496,2.7304,2.7304,2.7315,2.725,2.6398,2.6016,2.5961,2.5109,0.0,2.6016,2.6016,2.6486,2.7359,2.7794,2.8046,2.8079,2.8079,2.8487,2.9237,2.8856,2.9214,3.025,3.0421,3.0671,3.101,3.0053,2.9797,3.0205,3.0244,3.0805,3.1928,3.2502,3.3071,3.3673,3.4136,3.417,3.3666,3.3064,3.2489,3.1863,3.0818,3.0192,3.0048,2.856,2.7686,2.7624,0.0,0.0,0.0,0.0,0.0,0.0,0.0,0.0,0.0,0.0,0.0,0.0,0.0,0.0,0.0,2.6533,0.0,2.7598,2.7693,0.0,0.0,0.0,2.7694,2.7161,2.7637,2.7989,2.7973,0.0,0.0,2.8695,2.9272,3.0055,3.1041,3.1627,3.197,3.2035,3.217,3.2115,3.2119,3.2423,3.2854,3.3348,3.3861,3.4483,3.5081,3.4854,3.4484,3.474,3.4345,3.4164,3.484,3.4876,3.5065,3.5615,3.5674,3.5774,3.5937,3.6006,3.5825,3.5199,3.5046,3.4872,2.7332,2.7185,2.6637,2.6628,2.6966,2.6955,2.7086,2.7315,2.7315,2.7315,2.7304,2.7042,2.6955,2.6944,2.6715,2.6758,2.6977,2.6977,2.7271,2.7839,2.7936,2.821,2.8605,2.8605,2.8721,2.8907,2.9048,2.927,2.9609,3.0576,3.1125,3.124,3.1681,3.1731,3.1406,3.1393,3.1967,3.3169,3.3313,3.366,3.4209,3.4332,3.4332,3.4222,3.3666,3.3091,3.2502,3.1784,3.0988,3.0153,2.9709,2.9278,2.8887,2.7742,0.0,0.0,0.0,0.0,0.0,0.0,0.0,0.0,0.0,2.4833,2.4994,0.0,2.6031,0.0,2.8059,2.873,2.8861,2.8895,0.0,0.0,2.8851,2.8902,2.876,2.9205,2.9572,2.9558,3.0074,3.0584,3.0942,3.1143,3.1562,3.2387,3.1906,3.1711,3.2347,3.3275,3.382,3.3729,3.3782,3.4189,3.4646,3.4563,3.4499,3.4702,3.4578,3.4701,3.5366,3.5329,3.5283,3.5459,3.5486,3.5554,3.5696,3.571,3.5729,3.5786,3.5796,3.577,3.5553,3.554,3.5474,2.7416,2.7429,2.7441,2.7585,2.7779,2.7663,2.7741,2.7949,2.7982,2.7982,2.7938,2.7708,2.749,2.7315,2.7315,2.7424,2.7587,2.762,2.7894,2.8353,2.8364,2.8529,2.8803,2.8803,2.8803,2.8816,2.8989,2.915,2.9357,3.0485,3.1145,3.1308,3.2235,3.2672,3.2587,3.2339,3.2653,3.3594,3.3835,3.4097,3.4384,3.4397,3.4397,3.4384,3.3875,3.3451,3.3111,3.2529,3.179,3.091,3.0641,3.0255,2.9662,2.8804,2.8055,0.0,0.0,0.0,0.0,0.0,0.0,0.0,0.0,0.0,0.0,0.0,2.7049,2.8199,2.8908,2.9292,2.9292,2.9292,2.9379,2.9627,2.9889,3.0155,3.0385,3.0915,3.1255,3.1255,3.1548,3.1862,3.2156,3.2195,3.2352,3.2804,3.256,3.2438,3.2741,3.3363,3.3742,3.3658,3.3873,3.4323,3.5071,3.4927,3.4729,3.4741,3.4674,3.4841,3.5467,3.5501,3.5501,3.5649,3.571,3.571,3.571,3.571,3.571,3.571,3.571,3.571,3.571,3.571,3.571,2.756,2.7584,2.7867,2.8079,2.8281,2.8126,2.8329,2.8803,2.8803,2.8803,2.8781,2.832,2.7871,2.7501,2.749,2.7708,2.8101,2.8112,2.8364,2.8792,2.8803,2.8803,2.8803,2.8803,2.8803,2.8803,2.8803,2.8964,2.9249,3.0186,3.0876,3.1356,3.2267,3.3055,3.3652,3.3169,3.3189,3.3692,3.4183,3.4397,3.4397,3.4397,3.4397,3.4384,3.3953,3.3686,3.3594,3.3091,3.2522,3.1928,3.147,3.0928,3.0348,2.981,2.9013,0.0,2.7768,0.0,0.0,0.0,0.0,0.0,0.0,0.0,0.0,2.7725,2.8303,2.941,2.958,2.9658,2.9724,2.9724,2.9915,3.0393,3.0889,3.1405,3.1895,3.243,3.2816,3.2823,3.2868,3.2927,3.2921,3.2927,3.2941,3.3019,3.3373,3.35,3.3278,3.3304,3.3324,3.2967,3.3392,3.4162,3.4696,3.4978,3.508,3.5079,3.493,3.4962,3.5304,3.5216,3.5195,3.5521,3.5588,3.5609,3.5629,3.5609,3.5622,3.5588,3.5602,3.5609,3.569,3.571,3.571,2.7357,2.7381,2.7584,2.7702,2.7786,2.8157,2.8495,2.8803,2.8803,2.8803,2.8792,2.8682,2.8594,2.853,2.8496,2.8562,2.8638,2.8638,2.8693,2.8803,2.8803,2.8803,2.8803,2.8803,2.8803,2.8803,2.8803,2.8818,2.8904,2.9829,3.0723,3.1571,3.2488,3.3368,3.4186,0.0,0.0,0.0,3.4345,3.4397,3.4397,3.4397,3.4397,3.4397,3.4306,0.0,3.3613,3.3483,3.3163,3.2568,3.2424,0.0,0.0,0.0,0.0,0.0,0.0,0.0,0.0,0.0,0.0,0.0,2.8704,2.8516,2.8281,2.9061,2.991,3.0626,3.1059,3.1529,3.2012,3.2064,3.2084,3.2202,3.2313,3.2431,3.2542,3.3064,3.3417,3.3451,3.3796,3.4058,3.4031,3.4071,3.4058,3.4005,3.4175,3.4222,3.4133,3.4244,3.4318,3.4159,3.4294,3.457,3.4763,3.4962,3.5072,3.5106,3.5086,3.5065,3.5134,3.5147,3.5093,3.5216,3.5195,3.5229,3.5249,3.5216,3.5256,3.5216,3.5236,3.5318,3.5629,3.571,3.571,2.7924,0.0,2.8046,2.8042,0.0,2.8383,2.8552,2.8628,2.8757,2.8803,2.8803,2.8803,2.8803,2.8803,2.8803,2.8803,2.8803,2.8803,2.8803,2.8803,2.8803,2.8803,2.8803,2.8803,2.8803,2.8803,2.8803,2.8803,2.885,2.9749,3.0441,3.0911,3.184,3.2787,3.37,3.4176,3.4397,3.4397,3.4397,3.4397,3.4397,3.4397,3.4397,3.4397,0.0,0.0,0.0,0.0,0.0,0.0,0.0,0.0,0.0,0.0,0.0,3.0563,3.0019,2.9706,2.9701,2.9985,3.0273,3.0516,3.0822,3.0626,2.975,3.0738,3.1522,3.1829,3.2084,3.2352,3.2646,3.2672,3.2816,3.3091,3.313,3.3234,3.3509,3.3817,3.3979,3.4026,3.4228,3.4397,3.4397,3.4397,3.4397,3.4397,3.4397,3.4397,3.4418,3.4501,3.4535,3.4418,3.4494,3.466,3.4777,3.488,3.5003,3.5044,3.5003,3.5003,3.5072,3.5024,3.4996,3.5086,3.5175,3.5236,3.5256,3.5331,3.5399,3.5399,3.5399,3.544,3.5649,3.5609,3.5602,2.8593,2.8593,2.8593,2.8499,2.8376,2.8634,2.8711,2.8655,0.0,0.0,0.0,2.8891,2.8935,2.8911,2.8935,2.8924,2.89,2.8836,2.8803,2.8803,2.8803,2.8803,2.8803,2.8803,2.8803,2.8803,2.8803,2.8803,2.885,2.96,3.0034,3.0283,3.1134,3.2168,3.3228,3.4029,3.4397,3.4397,3.4397,3.4397,3.4397,3.4397,3.4397,3.4397,3.4397,3.4397,3.4397,3.4397,3.4188,3.377,3.3731,3.3456,3.2894,3.2391,3.1882,3.1345,3.0856,3.0576,3.0576,3.1026,3.1483,3.1928,3.2529,3.2431,3.1384,3.215,3.2738,3.2862,3.2875,3.2894,3.2986,3.2999,3.3215,3.3712,3.3744,3.3934,3.4319,3.4397,3.4371,3.4397,3.4384,3.4397,3.4397,3.4397,3.4397,3.4397,3.4397,3.4397,3.4397,3.4397,3.4439,3.4501,3.4535,3.4577,3.4735,3.4839,3.49,3.5024,3.4942,3.49,3.4921,3.488,3.4859,3.4908,3.5113,3.5175,3.5202,3.5263,3.5487,3.5528,3.5541,3.5548,3.5609,3.5521,3.546,2.8603,2.8593,2.8593,2.8576,2.8564,2.8858,2.9197,2.9545,2.9023,2.8803,2.8825,2.9217,2.9403,2.9403,2.9403,2.9403,2.937,2.8989,2.8803,2.8803,2.8803,2.8803,2.8803,2.8803,2.8803,2.8803,2.8803,2.8803,2.8827,2.8955,2.9405,3.0215,3.1134,3.2451,3.4071,3.4356,3.4397,3.4397,3.4397,3.4397,3.4397,3.4397,3.4397,3.4397,3.4397,3.4397,3.4397,3.4397,3.4358,3.4293,3.4314,3.4031,3.3509,3.3398,3.3077,3.2535,3.2372,3.2333,3.2319,3.2411,3.2509,3.2594,3.313,3.3189,3.2542,3.2594,3.2927,3.3391,3.3456,3.3686,3.4084,3.411,3.4123,3.4254,3.4267,3.4319,3.4397,3.4397,3.4397,3.4397,3.4397,3.4397,3.4397,3.4397,3.4397,3.4397,3.4397,3.4397,3.4397,3.4397,3.4494,3.4694,3.4735,3.4756,3.4777,3.4942,3.4962,3.4872,3.4942,3.4867,3.4585,3.4694,3.4714,3.4543,3.4605,3.4626,3.4626,3.4564,3.4791,3.5011,3.5072,3.5113,3.544,3.544,3.5399,2.9363,2.9363,2.9363,2.9218,2.897,2.8992,2.92,2.9564,2.9413,2.9435,2.9576,2.9784,2.9882,2.9882,2.9882,2.9882,2.9871,2.9665,2.9567,2.9567,2.9567,2.9578,2.9543,2.9543,2.9425,2.9195,2.9174,2.9066,2.8825,2.8803,2.9024,2.9532,3.0866,3.2277,3.3581,3.4155,3.4397,3.4397,3.4397,3.4397,3.4397,3.4397,3.4397,3.4397,3.4397,3.4397,3.4397,3.4397,3.4397,3.4397,3.4397,3.428,3.4045,3.3757,3.349,3.3195,3.2868,3.2849,3.3169,3.3456,3.3613,3.3613,3.3875,3.3914,3.3652,3.3613,3.3731,3.4026,3.4031,3.4123,3.4371,3.4397,3.4397,3.4397,3.4397,3.4397,3.4397,3.4397,3.4397,3.4397,3.4397,3.4397,3.4397,3.4397,3.4397,3.4397,3.4397,3.4397,3.4397,3.4397,3.4439,3.4556,3.459,3.4577,3.4577,3.466,3.4681,3.4598,3.466,3.4626,3.4418,3.4515,3.4535,3.4439,3.4515,3.466,3.4743,3.4874,3.5031,3.5216,3.5277,3.5379,3.5521,3.548,3.544,2.9994,2.9994,2.9994,2.9787,2.9461,2.9362,2.9442,2.9646,2.9928,3.0176,3.0403,3.0368,3.0362,3.0338,3.0362,3.0362,3.0351,3.0253,3.0209,3.022,3.022,3.022,3.022,3.022,2.9989,2.9698,2.9676,2.9469,2.9141,2.9108,2.9238,2.9554,3.0891,3.2121,3.316,3.3879,3.4297,3.439,3.4397,3.4397,3.4397,3.4397,3.4397,3.4397,3.4397,3.4397,3.4397,3.4397,3.4397,3.4397,3.4397,3.4397,3.4384,3.4005,3.377,3.3751,3.3339,3.3273,3.3751,3.4149,3.4397,3.4397,3.4397,3.4397,3.4397,3.4397,3.4397,3.4397,3.4371,3.4384,3.4397,3.4397,3.4397,3.4397,3.4397,3.4397,3.4397,3.4397,3.4397,3.4397,3.4397,3.4397,3.4397,3.4397,3.4397,3.4397,3.4397,3.4397,3.4397,3.4397,3.4397,3.4397,3.4397,3.4397,3.4397,3.4397,3.4418,3.4397,3.4481,3.4481,3.4439,3.4439,3.4481,3.4535,3.4673,3.4818,3.5003,3.5113,3.5236,3.5338,3.5351,3.5453,3.548,3.5419,3.5419,2.9994,2.9994,2.9994,2.9973,2.9927,3.0135,3.0234,3.0285,3.0586,3.0854,3.1003,3.0928,3.0832,3.0832,3.0857,3.0832,3.0799,3.0406,3.0242,3.0253,3.022,3.022,3.0264,3.0242,3.0199,3.0144,3.0144,3.0089,3.0002,3.0024,3.047,3.1262,3.1535,3.2273,3.3488,3.3724,3.3997,3.439,3.4397,3.4397,3.4397,3.4397,3.4397,3.4397,3.4397,3.4397,3.4377,3.4397,3.4397,3.4397,3.4397,3.4397,3.4384,3.4345,3.4319,3.4306,3.4254,3.428,3.4319,3.4371,3.4397,3.4397,3.4397,3.4397,3.4397,3.4397,3.4397,3.4397,3.4397,3.4397,3.4397,3.4397,3.4397,3.4397,3.4397,3.4397,3.4397,3.4397,3.4397,3.4397,3.4397,3.4397,3.4397,3.4397,3.4397,3.4397,3.4397,3.4397,3.4397,3.4397,3.4397,3.4397,3.4397,3.4397,3.4397,3.4397,3.4397,3.4418,3.4598,3.4598,3.4494,3.4577,3.4756,3.4618,3.4714,3.4777,3.4818,3.4839,3.488,3.5024,3.5044,3.4996,3.5106,3.5154,3.5277,2.9994,2.9994,2.9994,2.9994,3.002,3.0115,3.0167,3.0193,3.0453,3.0635,3.0733,3.082,3.1015,3.1298,3.1298,3.1323,3.1287,3.1102,3.105,3.1014,3.1025,3.104,3.1025,3.105,3.0873,3.0635,3.0614,3.0458,3.0253,3.022,3.0674,3.1494,3.1447,3.2007,3.3194,3.359,3.3941,3.4296,3.4912,3.5241,3.5137,3.4573,3.4147,3.4021,3.4139,3.4209,3.4243,3.4335,3.4397,3.4397,3.4397,3.4397,3.4397,3.4397,3.4397,3.4397,3.4397,3.4397,3.4397,3.4397,3.4397,3.4397,3.4397,3.4397,3.4397,3.4397,3.4397,3.4397,3.4397,3.4397,3.4397,3.4397,3.4397,3.4397,3.4397,3.4397,3.4397,3.4397,3.4397,3.4397,3.4397,3.4397,3.4397,3.4397,3.4397,3.4397,3.4397,3.4397,3.4397,3.4397,3.4397,3.4397,3.4397,3.4397,3.4397,3.4397,3.4397,3.4418,3.4481,3.4481,3.446,3.446,3.4556,3.4577,3.4598,3.4673,3.4797,3.4797,3.4818,3.488,3.4962,3.5017,3.5086,3.5093,3.5216,2.9994,2.9994,2.9994,2.9994,2.9994,2.9994,2.9994,3.002,3.0219,3.0339,3.0417,3.062,3.092,3.1322,3.1384,3.145,3.1567,3.1527,3.1553,3.1567,3.1593,3.1593,3.1593,3.1593,3.1418,3.1138,3.1094,3.0869,3.0511,3.039,3.0715,3.1272,3.1176,3.1597,3.2499,3.3018,3.3528,3.4198,3.5002,3.5496,3.5614,3.499,3.452,3.4375,3.4407,3.4427,3.4414,3.4405,3.4397,3.4397,3.4397,3.4397,3.4397,3.4397,3.4397,3.4397,3.4397,3.4397,3.4397,3.4397,3.4397,3.4397,3.4397,3.4397,3.4397,3.4397,3.4397,3.4397,3.4397,3.4397,3.4397,3.4397,3.4397,3.4397,3.4397,3.4397,3.4397,3.4397,3.4397,3.4397,3.4397,3.4397,3.4397,3.4397,3.4397,3.4397,3.4397,3.4397,3.4397,3.4397,3.4397,3.4397,3.4397,3.4397,3.4397,3.4397,3.4397,3.4397,3.4418,3.4418,3.4397,3.4397,3.4473,3.4598,3.4535,3.4556,3.4735,3.4797,3.4797,3.4942,3.5003,3.5044,3.5093,3.5093,3.5188,2.9994,2.9994,2.9994,2.9994,2.9994,2.9994,2.9994,2.9994,3.002,3.0141,3.0365,3.0401,3.0557,3.0864,3.0853,3.1127,3.1501,3.1322,3.1358,3.1527,3.1578,3.1578,3.1593,3.1593,3.1556,3.1429,3.1418,3.1316,3.1075,3.0886,3.0789,3.0824,3.0822,3.1063,3.1607,3.1835,3.2518,3.4082,3.4479,3.4893,3.5699,3.5767,3.5803,3.5883,3.5478,3.5217,3.5165,3.4711,3.4437,3.4424,3.4476,3.445,3.4437,3.4437,3.4476,3.4437,3.4424,3.441,3.441,3.4397,3.4397,3.4397,3.445,3.4424,3.4489,3.4541,3.4567,3.445,3.4554,3.4528,3.4515,3.4463,3.4437,3.4476,3.4437,3.445,3.4463,3.458,3.4424,3.4476,3.4502,3.4463,3.4424,3.4397,3.4397,3.4397,3.4397,3.4397,3.4397,3.4397,3.4397,3.4397,3.4397,3.4397,3.4397,3.4397,3.4397,3.4397,3.4397,3.4397,3.4397,3.4418,3.4535,3.4652,3.4639,3.466,3.4756,3.4777,3.4756,3.4818,3.4839,3.49,3.5003,3.5072,3.5175,2.9994,2.9994,2.9994,2.9994,2.9994,2.9994,2.9994,2.9994,2.9994,3.0047,3.0115,3.0151,3.0297,3.0542,3.036,3.0568,3.1049,3.0983,3.1008,3.1075,3.1101,3.1086,3.1075,3.1112,3.1101,3.1075,3.1101,3.1049,3.0967,3.0827,3.0801,3.0801,3.0801,3.0979,3.1429,3.2528,3.3545,3.4353,3.5565,3.6435,3.6582,3.6803,3.6929,3.6933,3.6098,3.5604,3.5591,3.5513,3.5482,3.5482,3.5482,3.5482,3.5482,3.5482,3.5325,3.5025,3.4972,3.4803,3.4463,3.4397,3.4397,3.4424,3.4763,3.4972,3.5025,3.5273,3.5482,3.5469,3.5482,3.5482,3.5338,3.4855,3.4567,3.4894,3.4972,3.5116,3.5404,3.5495,3.5495,3.5443,3.5208,3.4842,3.4554,3.441,3.4397,3.4397,3.441,3.4437,3.441,3.441,3.4463,3.441,3.4397,3.4397,3.4397,3.4397,3.4397,3.4397,3.4397,3.4397,3.4397,3.4397,3.4494,3.4528,3.459,3.4755,3.4821,3.486,3.4808,3.481,3.4831,3.5111,3.488,3.5266,3.5356,2.9994,2.9994,2.9994,2.9994,2.9994,2.9994,2.9994,2.9994,2.9994,2.9994,2.9994,2.9994,3.0115,3.0219,3.0062,3.0188,3.0516,3.062,3.0724,3.0786,3.0801,3.0801,3.0801,3.0801,3.0801,3.0776,3.0698,3.0672,3.0646,3.0594,3.0542,3.0516,3.0542,3.062,3.1023,3.2106,3.3078,3.419,3.5558,3.6449,3.7085,3.74,3.7564,3.7494,3.6877,3.6371,3.6211,3.6126,3.6109,3.6109,3.6109,3.6109,3.6109,3.6109,3.5953,3.5613,3.5547,3.5391,3.5038,3.4946,3.4959,3.4972,3.5299,3.5561,3.5587,3.5887,3.607,3.6109,3.6109,3.6109,3.5966,3.5404,3.5129,3.5482,3.5547,3.5704,3.6057,3.6083,3.607,3.6005,3.5757,3.5378,3.5051,3.4986,3.4999,3.4946,3.4933,3.4946,3.4946,3.4946,3.4946,3.4959,3.5025,3.5051,3.5103,3.5168,3.4711,3.4607,3.4554,3.4515,3.4528,3.4502,3.4489,3.4476,3.4601,3.4737,3.4855,3.4907,3.4962,3.5,3.5421,3.5873,3.5717,3.567,3.5802,2.9994,2.9994,2.9994,2.9994,2.9994,2.9994,2.9994,2.9994,2.9994,2.9994,2.9994,2.9994,3.002,3.002,3.002,3.002,3.0099,3.0297,3.0505,3.0698,3.0724,3.0724,3.0734,3.0698,3.0698,3.0698,3.0505,3.0401,3.0365,3.0193,3.0073,3.0047,3.0099,3.0177,3.0047,3.0573,3.1509,3.318,3.3921,3.5078,3.7108,3.733,3.7505,3.7808,3.7727,3.744,3.7002,3.6502,3.6279,3.624,3.6227,3.6127,3.6266,3.6266,3.6175,3.6149,3.6109,3.6109,3.6031,3.5966,3.5913,3.594,3.607,3.6123,3.6136,3.6227,3.6305,3.6332,3.6292,3.6227,3.6266,3.6188,3.6109,3.6096,3.6109,3.6162,3.6227,3.6175,3.6136,3.6175,3.6136,3.6088,3.607,3.5913,3.5848,3.5861,3.5887,3.5874,3.5822,3.5822,3.6005,3.5992,3.5822,3.5678,3.5874,3.6018,3.5365,3.4842,3.4789,3.4737,3.4855,3.4881,3.4933,3.4967,3.5142,3.5325,3.5508,3.5595,3.5808,3.5942,3.635,3.6551,3.6521,3.6454,3.65,2.9994,2.9994,2.9994,2.9994,2.9994,2.9994,2.9994,3.0005,2.9994,2.9994,2.9994,2.9994,2.9994,2.9994,2.9994,2.9994,2.9994,3.0099,3.0177,3.0256,3.0266,3.0292,3.0256,3.0256,3.0256,3.0229,3.0151,3.0125,3.0115,3.0047,2.9994,3.002,3.0167,3.0271,3.0323,3.1351,3.2362,3.2792,3.3871,3.5054,3.6071,3.6296,3.6792,3.7528,3.7634,3.7612,3.7603,3.7442,3.7351,3.7312,3.7338,3.7338,3.7325,3.7338,3.7142,3.6776,3.6724,3.6515,3.6149,3.6123,3.6149,3.6201,3.6488,3.6698,3.6789,3.709,3.7273,3.7312,3.7338,3.7338,3.7338,3.7351,3.7142,3.6741,3.6724,3.6894,3.7146,3.7263,3.7142,3.6802,3.6724,3.6554,3.624,3.6149,3.6214,3.6201,3.6188,3.6175,3.6149,3.624,3.6096,3.6109,3.6109,3.6266,3.6384,3.6475,3.6136,3.5665,3.5469,3.5221,3.5273,3.5325,3.5365,3.5556,3.5752,3.5983,3.6144,3.6341,3.6577,3.6616,3.6746,3.6935,3.7144,3.7207,3.722,3.0383,3.0528,3.0512,3.0538,3.0512,3.0512,3.0512,3.0501,3.0512,3.0419,3.0284,3.0253,3.0176,3.0025,2.9994,2.9994,2.9994,2.9994,2.9994,2.9994,2.9994,2.9994,2.9994,2.9994,2.9994,2.9994,2.9994,2.9994,2.9994,2.9994,2.9994,3.0047,3.0167,3.0245,3.0313,3.13,3.1942,3.2362,3.3314,3.4288,3.4957,3.5246,3.5893,3.6875,3.7062,3.7343,3.7831,3.79,3.79,3.79,3.79,3.79,3.79,3.7861,3.773,3.7442,3.7325,3.7168,3.6815,3.6841,3.6763,3.6841,3.7129,3.7325,3.7403,3.7743,3.7887,3.79,3.7861,3.79,3.7874,3.7887,3.7717,3.7403,3.7338,3.7508,3.7835,3.79,3.7756,3.7429,3.7338,3.7142,3.6871,3.6776,3.6776,3.6763,3.6763,3.6763,3.6763,3.6815,3.675,3.675,3.6907,3.6959,3.6854,3.6854,3.6841,3.6567,3.6305,3.6005,3.5835,3.5835,3.5874,3.6267,3.6502,3.6862,3.7081,3.7258,3.7422,3.7343,3.7333,3.7752,3.8064,3.7879,3.7846,3.1004,3.1388,3.1398,3.1336,3.1336,3.1326,3.1295,3.1357,3.1346,3.1098,3.077,3.0729,3.0512,3.018,3.0222,3.0191,3.0046,3.0087,3.0056,3.0015,2.9994,2.9994,2.9994,2.9994,2.9994,2.9994,2.9994,2.9994,2.9994,2.9994,2.9994,2.9994,3.002,3.002,3.0125,3.0323,3.1002,3.1761,3.2218,3.3026,3.4214,3.4337,3.4945,3.6131,3.6225,3.6639,3.7482,3.7795,3.79,3.79,3.79,3.79,3.79,3.79,3.7874,3.7821,3.7874,3.7835,3.7848,3.7704,3.7717,3.7717,3.7743,3.79,3.7835,3.7848,3.79,3.79,3.79,3.79,3.79,3.79,3.7874,3.7887,3.7795,3.7835,3.7887,3.79,3.7848,3.7848,3.7887,3.7861,3.773,3.7743,3.7756,3.7756,3.7717,3.7652,3.7665,3.7586,3.7795,3.7743,3.7547,3.7495,3.7338,3.7338,3.7338,3.722,3.7011,3.682,3.6616,3.6625,3.6731,3.7068,3.7239,3.764,3.7889,3.7965,3.814,3.8207,3.8408,3.881,3.8804,3.8553,3.8429,3.1295,3.1408,3.1408,3.1408,3.1408,3.1408,3.1419,3.1408,3.1429,3.1377,3.1232,3.1222,3.1112,3.1036,3.1004,3.087,3.0611,3.0528,3.0294,3.0036,2.9994,2.9994,2.9994,2.9994,2.9994,2.9994,2.9994,2.9994,2.9994,2.9994,2.9994,2.9994,2.9994,2.9994,3.0047,3.0271,3.0484,3.0847,3.1322,3.2066,3.3051,3.3425,3.4067,3.5066,3.5186,3.5726,3.6698,3.7505,3.79,3.79,3.79,3.79,3.79,3.79,3.79,3.79,3.79,3.79,3.79,3.79,3.79,3.79,3.79,3.79,3.79,3.79,3.79,3.79,3.79,3.79,3.79,3.79,3.79,3.79,3.79,3.79,3.79,3.79,3.79,3.79,3.79,3.79,3.79,3.79,3.79,3.79,3.7818,3.7877,3.7877,3.7726,3.7657,3.7854,3.7795,3.7835,3.7835,3.7835,3.7821,3.7769,3.7674,3.7674,3.7642,3.7751,3.793,3.8192,3.7992,3.8209,3.832,3.8424,3.8666,3.8823,3.8877,3.8997,3.9136,3.9039,3.8985,3.1764,3.195,3.195,3.195,3.195,3.195,3.194,3.195,3.194,3.1816,3.1702,3.1661,3.1557,3.1391,3.1398,3.1263,3.1025,3.1004,3.0859,3.0673,3.0605,3.0387,3.0108,2.9994,2.9994,2.9994,2.9994,2.9994,2.9994,2.9994,2.9994,2.9994,2.9994,2.9994,3.002,3.0271,3.0479,3.0625,3.0998,3.1604,3.2258,3.2446,3.3101,3.3895,3.4153,3.4605,3.5595,3.6262,3.6922,3.7634,3.79,3.79,3.79,3.79,3.79,3.79,3.79,3.79,3.79,3.79,3.79,3.79,3.79,3.79,3.79,3.79,3.79,3.79,3.79,3.79,3.79,3.79,3.79,3.79,3.79,3.79,3.79,3.79,3.79,3.79,3.79,3.79,3.79,3.7877,3.7877,3.7795,3.7377,3.7588,3.7739,3.7541,3.7495,3.7762,3.79,3.79,3.79,3.79,3.79,3.7887,3.7956,3.8034,3.8148,3.8317,3.8336,3.8391,3.8521,3.8625,3.8679,3.8791,3.8971,3.9069,3.9078,3.91,3.9238,3.9305,3.9305,3.2315,3.2698,3.2698,3.2698,3.2657,3.2688,3.2605,3.2667,3.2615,3.2419,3.214,3.2088,3.194,3.1543,3.1692,3.1516,3.1481,3.1471,3.1408,3.1315,3.1232,3.0932,3.0346,3.0191,3.0087,3.0015,2.9994,2.9994,2.9994,2.9994,2.9994,2.9994,2.9994,2.9994,3.002,3.0245,3.0479,3.075,3.0972,3.1296,3.1669,3.1797,3.2243,3.2876,3.335,3.3747,3.4459,3.4945,3.5702,3.7459,3.7588,3.739,3.7436,3.7505,3.7598,3.7598,3.7575,3.7657,3.7877,3.79,3.79,3.79,3.79,3.79,3.79,3.79,3.7795,3.7551,3.7726,3.7505,3.7284,3.7436,3.732,3.7214,3.739,3.7518,3.7588,3.7657,3.7762,3.7844,3.7795,3.7588,3.7703,3.7634,3.7495,3.6805,3.6675,3.7015,3.7284,3.7366,3.7482,3.7844,3.79,3.79,3.79,3.79,3.79,3.79,3.7979,3.8057,3.808,3.8181,3.8226,3.834,3.8701,3.8881,3.8944,3.9056,3.9203,3.9238,3.9203,3.9238,3.9305,3.9305,3.9305,3.2615,3.2698,3.2698,3.2698,3.2698,3.2698,3.2698,3.2698,3.2698,3.2626,3.2564,3.2543,3.2471,3.2406,3.2315,3.2233,3.1902,3.185,3.1723,3.1419,3.1408,3.1336,3.1015,3.0766,3.0367,3.0149,3.0015,3.0005,3.0015,3.0025,2.9994,2.9994,2.9994,2.9994,3.002,3.0073,3.0334,3.0724,3.0853,3.1127,3.1501,3.1567,3.1721,3.2091,3.2737,3.3226,3.3648,3.4361,3.5005,3.5343,3.5463,3.5487,3.5655,3.5631,3.5965,3.6498,3.6662,3.6992,3.7657,3.7739,3.7854,3.7703,3.7621,3.79,3.7913,3.7772,3.7377,3.6909,3.6639,3.6356,3.5846,3.5535,3.5679,3.5726,3.5679,3.5631,3.5631,3.6214,3.6922,3.7261,3.651,3.5774,3.6474,3.5977,3.5798,3.5631,3.5893,3.632,3.6615,3.6862,3.7132,3.732,3.7564,3.7551,3.79,3.79,3.79,3.79,3.7979,3.8034,3.8057,3.8249,3.8349,3.8607,3.9002,3.91,3.9033,3.918,3.9283,3.9283,3.9305,3.9305,3.9305,3.9305,3.9305,3.2698,3.2698,3.2698,3.2698,3.2698,3.2698,3.2698,3.2698,3.2698,3.2698,3.2698,3.2698,3.2698,3.2698,3.2698,3.2543,3.2398,3.2336,3.2222,3.2064,3.2023,3.1899,3.1671,3.1433,3.1091,3.0677,3.0408,3.0325,3.0274,3.0118,2.9994,2.9994,2.9994,2.9994,2.9994,2.9994,3.0219,3.0557,3.075,3.1008,3.1358,3.1553,3.1593,3.1618,3.2142,3.246,3.2535,3.2937,3.3237,3.33,3.335,3.3845,3.4654,3.4775,3.509,3.5451,3.5595,3.5798,3.6309,3.6463,3.638,3.6487,3.645,3.645,3.6463,3.645,3.6238,3.5774,3.5583,3.5343,3.4872,3.4824,3.4775,3.4799,3.4775,3.4775,3.4884,3.5283,3.5774,3.6167,3.5487,3.5259,3.5162,3.4799,3.4848,3.5017,3.4398,3.4751,3.5198,3.5523,3.6083,3.6403,3.6851,3.7237,3.7726,3.79,3.79,3.79,3.7923,3.7956,3.7979,3.8249,3.8517,3.8742,3.889,3.8966,3.8966,3.9136,3.9283,3.9305,3.9305,3.9305,3.9305,3.9305,3.9305,3.2698,3.2698,3.2698,3.2698,3.2698,3.2698,3.2698,3.2698,3.2698,3.2698,3.2698,3.2698,3.2698,3.2698,3.2698,3.2698,3.2677,3.2667,3.2564,3.2553,3.2543,3.2377,3.216,3.2036,3.1891,3.1574,3.1067,3.0822,3.0704,3.0367,3.0201,3.0118,3.0015,3.0005,2.9994,3.002,3.0141,3.0417,3.0698,3.0931,3.123,3.1476,3.1567,3.1618,3.1669,3.1746,3.1772,3.1848,3.1746,3.1593,3.1593,3.2561,3.3722,3.4312,3.4483,3.4483,3.4556,3.4775,3.509,3.5042,3.4993,3.4799,3.4872,3.4872,3.4945,3.5042,3.4896,3.4581,3.4361,3.4129,3.4288,3.4006,3.4091,3.4165,3.4239,3.4324,3.4312,3.4312,3.4361,3.4884,3.4361,3.3932,3.4129,3.4055,3.4239,3.4239,3.3611,3.3314,3.3809,3.4483,3.5198,3.5666,3.6154,3.6568,3.7062,3.79,3.79,3.79,3.79,3.7946,3.7933,3.808,3.8327,3.8485,3.8598,3.8756,3.8899,3.9033,3.9158,3.9261,3.9305,3.9305,3.9305,3.9305,3.9305,3.2698,3.2698,3.2698,3.2698,3.2698,3.2698,3.2698,3.2698,3.2698,3.2698,3.2698,3.2698,3.2698,3.2698,3.2698,3.2698,3.2698,3.2698,3.2698,3.2698,3.2698,3.2595,3.2553,3.2491,3.246,3.2302,3.1743,3.1346,3.1181,3.0849,3.0584,3.0501,3.0238,3.0046,3.0056,3.002,3.0125,3.0339,3.0646,3.0931,3.1152,3.1424,3.1593,3.1593,3.1593,3.1593,3.1593,3.1593,3.1593,3.1593,3.1593,3.1823,3.2243,3.2359,3.2725,3.3275,3.3474,3.3722,3.4288,3.4629,3.4727,3.4799,3.4581,3.4629,3.4654,3.4605,3.4091,3.3474,3.2787,3.2232,3.2117,3.2434,3.2243,3.2207,3.2359,3.237,3.2333,3.2485,3.3062,3.4029,3.3287,3.2561,3.2951,3.3126,3.2976,3.3101,3.2951,3.2775,3.3101,3.3932,3.4836,3.5222,3.5499,3.5881,3.6296,3.733,3.79,3.79,3.7923,3.7979,3.7979,3.7956,3.8057,3.8294,3.8521,3.8688,3.8832,3.8966,3.91,3.9261,3.9283,3.9305,3.9305,3.9305,3.9305,3.2698,3.2698,3.2698,3.2698,3.2698,3.2698,3.2698,3.2698,3.2698,3.2698,3.2698,3.2698,3.2698,3.2698,3.2698,3.2698,3.2698,3.2698,3.2698,3.2698,3.2698,3.2698,3.2698,3.2698,3.2698,3.2584,3.225,3.1899,3.1692,3.1267,3.106,3.0963,3.0611,3.0383,3.0284,3.0118,3.0114,3.0292,3.0605,3.089,3.1023,3.1373,3.1567,3.1593,3.1593,3.1593,3.1593,3.1593,3.1593,3.1593,3.1593,3.1593,3.1593,3.1644,3.1823,3.2294,3.2409,3.2561,3.3051,3.3151,3.3087,3.3101,3.3201,3.3151,3.3151,3.3001,3.2976,3.246,3.2091,3.1593,3.1669,3.1593,3.1593,3.1593,3.1593,3.1593,3.1593,3.1593,3.2319,3.3187,3.251,3.2041,3.208,3.2055,3.1746,3.1797,3.2117,3.2308,3.2485,3.3101,3.3957,3.4544,3.4884,3.5762,3.6225,3.7108,3.7854,3.79,3.7923,3.7979,3.8034,3.7988,3.8044,3.8226,3.8417,3.8656,3.8854,3.9033,3.9158,3.9247,3.9283,3.9305,3.9305,3.9305,3.9305,3.2698,3.2698,3.2698,3.2698,3.2698,3.2698,3.2698,3.2698,3.2698,3.2698,3.2698,3.2698,3.2698,3.2698,3.2698,3.2698,3.2698,3.2698,3.2698,3.2698,3.2698,3.2698,3.2698,3.2698,3.2698,3.2688,3.2626,3.2502,3.214,3.1733,3.1547,3.1381,3.105,3.0876,3.0857,3.0713,3.039,3.0444,3.0747,3.0996,3.1071,3.1347,3.1593,3.1593,3.1593,3.1593,3.1593,3.1593,3.1593,3.1593,3.1593,3.1593,3.1593,3.1593,3.1593,3.1593,3.1593,3.1593,3.1669,3.1746,3.195,3.1964,3.1695,3.1655,3.1721,3.1939,3.1746,3.1593,3.1593,3.1593,3.1593,3.1593,3.1593,3.1593,3.1593,3.1593,3.1593,3.1593,3.1593,3.1899,3.1593,3.1644,3.1786,3.1786,3.1593,3.1593,3.1899,3.1874,3.199,3.1913,3.26,3.3512,3.4349,3.5571,3.6344,3.7085,3.768,3.79,3.79,3.7933,3.7988,3.8044,3.8135,3.8213,3.8444,3.867,3.8868,3.9056,3.9122,3.9203,3.9261,3.9305,3.9305,3.9305,3.9305,3.2698,3.2698,3.2698,3.2698,3.2698,3.2698,3.2698,3.2698,3.2698,3.2698,3.2698,3.2698,3.2698,3.2698,3.2698,3.2698,3.2698,3.2698,3.2698,3.2698,3.2698,3.2698,3.2698,3.2698,3.2698,3.2698,3.2698,3.2688,3.2481,3.2119,3.1953,3.185,3.1547,3.1397,3.1512,3.1368,3.1516,3.1392,3.1586,3.1655,3.1548,3.16,3.1567,3.1593,3.1593,3.1593,3.1593,3.1593,3.1593,3.1593,3.1593,3.1593,3.1593,3.1593,3.1593,3.1593,3.1593,3.1593,3.1593,3.1593,3.1593,3.1593,3.1593,3.1593,3.1593,3.1593,3.1593,3.1593,3.1593,3.1593,3.1593,3.1593,3.1593,3.1593,3.1593,3.1593,3.1593,3.1593,3.1593,3.1593,3.1593,3.1593,3.1644,3.1618,3.1593,3.1593,3.1593,3.1593,3.1593,3.1593,3.1593,3.2535,3.4006,3.5283,3.6131,3.6922,3.7598,3.79,3.79,3.79,3.7956,3.8057,3.8145,3.8281,3.8489,3.867,3.8854,3.8997,3.9078,3.9158,3.9225,3.9283,3.9305,3.9305,3.9305,3.2698,3.2698,3.2698,3.2698,3.2698,3.2698,3.2698,3.2698,3.2698,3.2698,3.2698,3.2698,3.2698,3.2698,3.2698,3.2698,3.2698,3.2698,3.2698,3.2698,3.2698,3.2698,3.2698,3.2698,3.2698,3.2698,3.2698,3.2698,3.2605,3.2504,3.2398,3.2315,3.1974,3.1754,3.1961,3.1841,3.1757,3.1709,3.1806,3.1954,3.1945,3.1767,3.1604,3.1593,3.1593,3.1593,3.1593,3.1593,3.1593,3.1593,3.1593,3.1593,3.1593,3.1593,3.1593,3.1593,3.1593,3.1593,3.1593,3.1593,3.1593,3.1593,3.1593,3.1593,3.1593,3.1593,3.1593,3.1593,3.1593,3.1593,3.1593,3.1593,3.1593,3.1593,3.1593,3.1593,3.1593,3.1593,3.1593,3.1593,3.1593,3.1593,3.1593,3.1593,3.1593,3.1593,3.1593,3.1593,3.1593,3.1593,3.1593,3.1721,3.34,3.5114,3.5822,3.6557,3.7528,3.79,3.79,3.7923,3.7946,3.8024,3.8145,3.8281,3.8466,3.8656,3.8841,3.8953,3.8997,3.91,3.9189,3.9247,3.9305,3.9305,3.9305,3.2698,3.2698,3.2698,3.2698,3.2698,3.2698,3.2698,3.2698,3.2698,3.2698,3.2698,3.2698,3.2698,3.2698,3.2698,3.2698,3.2698,3.2698,3.2698,3.2698,3.2698,3.2698,3.2698,3.2698,3.2698,3.2698,3.2698,3.2698,3.2698,3.2667,3.2646,3.2688,3.2328,3.2258,3.2266,3.2284,3.2258,3.2288,3.2281,3.2319,3.2291,3.2022,3.1793,3.1647,3.1593,3.1593,3.1593,3.1593,3.1593,3.1593,3.1593,3.1593,3.1593,3.1593,3.1593,3.1593,3.1593,3.1593,3.1593,3.1593,3.1593,3.1593,3.1593,3.1593,3.1593,3.1593,3.1593,3.1593,3.1593,3.1593,3.1593,3.1593,3.1593,3.1593,3.1593,3.1593,3.1593,3.1593,3.1593,3.1593,3.1593,3.1593,3.1593,3.1593,3.1593,3.1593,3.1593,3.1593,3.1593,3.1593,3.1888,3.199,3.34,3.509,3.5893,3.6581,3.7459,3.79,3.79,3.7923,3.7946,3.8034,3.819,3.8304,3.8421,3.8589,3.8756,3.8832,3.893,3.91,3.9247,3.9283,3.9305,3.9305,3.9305,3.2698,3.2698,3.2698,3.2698,3.2698,3.2698,3.2698,3.2698,3.2698,3.2698,3.2698,3.2698,3.2698,3.2698,3.2698,3.2698,3.2698,3.2698,3.2698,3.2698,3.2698,3.2698,3.2698,3.2698,3.2698,3.2698,3.2698,3.2698,3.2698,3.2698,3.2698,3.2667,3.2545,3.2797,3.2925,3.2871,3.2996,3.3031,3.3014,3.2762,3.2612,3.2376,3.2121,3.176,3.1626,3.1604,3.1604,3.1593,3.1593,3.1593,3.1593,3.1593,3.1593,3.1593,3.1593,3.1593,3.1593,3.1593,3.1593,3.1593,3.1593,3.1593,3.1593,3.1593,3.1593,3.1593,3.1593,3.1593,3.1593,3.1593,3.1593,3.1593,3.1593,3.1593,3.1593,3.1593,3.1593,3.1593,3.1593,3.1593,3.1593,3.1593,3.1593,3.1593,3.1593,3.1593,3.1593,3.1593,3.1593,3.1669,3.2269,3.2787,3.3895,3.5138,3.6154,3.6945,3.768,3.79,3.79,3.79,3.7923,3.8034,3.8122,3.8203,3.8285,3.8489,3.8611,3.8666,3.881,3.9136,3.9305,3.9305,3.9305,3.9305,3.9305,3.2698,3.2698,3.2698,3.2698,3.2698,3.2698,3.2698,3.2698,3.2698,3.2698,3.2698,3.2698,3.2698,3.2698,3.2698,3.2698,3.2698,3.2698,3.2698,3.2698,3.2698,3.2698,3.2698,3.2698,3.2698,3.2698,3.2698,3.2698,3.2698,3.2698,3.2698,3.2698,3.2698,3.2716,3.2898,3.325,3.3497,3.3669,3.36,3.3372,3.3305,3.2934,3.2595,3.2143,3.2099,3.1902,3.1669,3.1604,3.1593,3.1593,3.1593,3.1593,3.1593,3.1593,3.1593,3.1593,3.1593,3.1593,3.1593,3.1593,3.1593,3.1593,3.1593,3.1593,3.1593,3.1593,3.1593,3.1593,3.1593,3.1593,3.1593,3.1593,3.1593,3.1593,3.1593,3.1593,3.1593,3.1593,3.1593,3.1593,3.1593,3.1593,3.1593,3.1593,3.1593,3.1593,3.1593,3.1593,3.1593,3.1695,3.2258,3.2901,3.3944,3.509,3.6107,3.6992,3.7818,3.79,3.79,3.79,3.79,3.7923,3.8001,3.8057,3.8171,3.833,3.8466,3.8485,3.8688,3.9047,3.9238,3.9305,3.9305,3.9305,3.9305,3.2373,3.2669,3.2698,3.2698,3.2698,3.2698,3.2698,3.2698,3.2698,3.2698,3.2698,3.2698,3.2698,3.2698,3.2698,3.2698,3.2698,3.2698,3.2698,3.2698,3.2698,3.2698,3.2698,3.2698,3.2698,3.2698,3.2698,3.2698,3.2698,3.2698,3.2698,3.2698,3.2698,3.2698,3.2812,3.3182,3.3607,3.3737,3.3806,3.3671,3.3568,3.3318,3.3022,3.2586,3.2475,3.2219,3.1913,3.1746,3.1593,3.1593,3.1593,3.1593,3.1593,3.1593,3.1593,3.1593,3.1593,3.1593,3.1593,3.1593,3.1593,3.1593,3.1593,3.1593,3.1593,3.1593,3.1593,3.1593,3.1593,3.1593,3.1593,3.1593,3.1593,3.1593,3.1593,3.1593,3.1593,3.1593,3.1593,3.1593,3.1593,3.1593,3.1593,3.1593,3.1593,3.1593,3.1593,3.1593,3.1593,3.1772,3.2142,3.2851,3.3672,3.486,3.606,3.6698,3.733,3.79,3.79,3.79,3.79,3.79,3.7956,3.8089,3.8181,3.8239,3.8353,3.8498,3.8733,3.8989,3.9136,3.9283,3.9305,3.9305,3.9305,3.1507,3.2641,3.2573,3.2584,3.2555,3.2698,3.2698,3.2698,3.2698,3.2698,3.2698,3.2698,3.2698,3.2698,3.2698,3.2698,3.2698,3.2698,3.2698,3.2698,3.2698,3.2698,3.2698,3.2698,3.2698,3.2698,3.2698,3.2698,3.2698,3.2698,3.2698,3.2698,3.2698,3.2698,3.2727,3.304,3.3221,3.3278,3.3498,3.3512,3.3432,3.3326,3.322,3.2997,3.2734,3.25,3.2208,3.1898,3.1735,3.1615,3.1604,3.1578,3.1553,3.1578,3.1578,3.1553,3.1578,3.1593,3.1593,3.1593,3.1593,3.1593,3.1593,3.1593,3.1593,3.1593,3.1593,3.1593,3.1593,3.1593,3.1593,3.1593,3.1593,3.1593,3.1593,3.1593,3.1593,3.1593,3.1593,3.1593,3.1593,3.1593,3.1593,3.1593,3.1593,3.1593,3.1593,3.1593,3.1593,3.1772,3.2091,3.2926,3.3747,3.4836,3.5905,3.6296,3.6862,3.7505,3.79,3.79,3.79,3.79,3.7988,3.8099,3.8135,3.8161,3.8353,3.858,3.8746,3.889,3.9114,3.9238,3.9283,3.9305,3.9305,2.9786,3.0168,3.0197,3.0675,3.1517,3.2373,3.2669,3.2698,3.2698,3.2698,3.2698,3.2698,3.2698,3.2698,3.2698,3.2698,3.2698,3.2698,3.2698,3.2698,3.2698,3.2698,3.2698,3.2698,3.2698,3.2698,3.2698,3.2698,3.2698,3.2698,3.2698,3.2698,3.2698,3.2698,3.2794,3.3022,3.3193,3.3239,3.3445,3.3568,3.3475,3.345,3.3386,3.3225,3.3036,3.2781,3.2461,3.2141,3.1879,3.1614,3.156,3.1476,3.1435,3.1424,3.1501,3.145,3.145,3.1593,3.1593,3.1593,3.1593,3.1593,3.1593,3.1593,3.1593,3.1593,3.1593,3.1593,3.1593,3.1593,3.1593,3.1593,3.1593,3.1593,3.1593,3.1593,3.1593,3.1593,3.1593,3.1593,3.1593,3.1593,3.1593,3.1593,3.1593,3.1593,3.1593,3.1593,3.1593,3.1721,3.199,3.3026,3.3968,3.4969,3.5822,3.6332,3.6909,3.7657,3.79,3.79,3.79,3.79,3.7933,3.8011,3.8047,3.807,3.8239,3.8421,3.8602,3.8805,3.8948,3.9091,3.9158,3.9238,3.9305,2.8513,2.889,2.89,2.9364,3.0285,3.1507,3.2229,3.2612,3.2698,3.2698,3.2698,3.2698,3.2698,3.2698,3.2698,3.2698,3.2698,3.2698,3.2698,3.2698,3.2698,3.2698,3.2698,3.2698,3.2698,3.2698,3.2698,3.2698,3.2698,3.2698,3.2698,3.2698,3.2698,3.2698,3.2755,3.2908,3.2994,3.304,3.3143,3.3314,3.3367,3.342,3.3427,3.3345,3.3199,3.2942,3.2598,3.2278,3.1943,3.164,3.1404,3.1277,3.1189,3.1255,3.1347,3.1296,3.1424,3.1567,3.1593,3.1593,3.1593,3.1593,3.1593,3.1593,3.1593,3.1593,3.1593,3.1593,3.1593,3.1593,3.1593,3.1593,3.1593,3.1593,3.1593,3.1593,3.1593,3.1593,3.1593,3.1593,3.1593,3.1593,3.1593,3.1593,3.1593,3.1593,3.1593,3.1644,3.1772,3.199,3.2283,3.3201,3.4178,3.5126,3.5917,3.6498,3.7108,3.7795,3.79,3.79,3.79,3.79,3.79,3.79,3.7946,3.8001,3.808,3.8239,3.8389,3.8534,3.8679,3.8845,3.8989,3.9158,3.9283,2.7675,2.8712,2.8772,2.8742,2.9039,3.0197,3.1392,3.2459,3.2545,3.2545,3.2573,3.2584,3.2698,3.2698,3.2698,3.2698,3.2698,3.2698,3.2698,3.2698,3.2698,3.2698,3.2698,3.2698,3.2698,3.2698,3.2698,3.2698,3.2698,3.2698,3.2698,3.2698,3.2698,3.2698,3.2698,3.2727,3.2794,3.2812,3.2841,3.3012,3.3136,3.3172,3.3272,3.3272,3.3182,3.2993,3.2649,3.2281,3.1817,3.146,3.1141,3.0944,3.089,3.1023,3.1127,3.123,3.1424,3.145,3.1476,3.145,3.1501,3.1476,3.1527,3.1578,3.1593,3.1593,3.1593,3.1593,3.1593,3.1593,3.1593,3.1593,3.1593,3.1593,3.1593,3.1593,3.1593,3.1593,3.1593,3.1593,3.1593,3.1593,3.1593,3.1593,3.1888,3.2066,3.2193,3.2409,3.2535,3.2661,3.3001,3.3499,3.4422,3.527,3.6012,3.6722,3.7237,3.7877,3.79,3.79,3.79,3.79,3.79,3.79,3.79,3.7933,3.8001,3.807,3.8139,3.8308,3.8611,3.8778,3.8989,3.918,3.9305,2.5853,2.6181,2.6181,2.6719,2.7697,2.889,2.9698,3.008,3.0878,3.1363,3.1392,3.2315,3.2584,3.2698,3.2698,3.2698,3.2698,3.2698,3.2698,3.2698,3.2698,3.2698,3.2698,3.2698,3.2698,3.2698,3.2698,3.2698,3.2698,3.2698,3.2698,3.2698,3.2698,3.2698,3.2698,3.2698,3.2698,3.2698,3.2698,3.2755,3.2851,3.2869,3.3069,3.3127,3.3149,3.299,3.2742,3.2564,3.2118,3.1508,3.1386,3.1132,3.0542,3.0776,3.0905,3.0931,3.0998,3.1023,3.1023,3.1023,3.1112,3.1281,3.1333,3.145,3.1527,3.1567,3.1567,3.1593,3.1593,3.1593,3.1593,3.1593,3.1593,3.1593,3.1593,3.1593,3.1593,3.1593,3.1593,3.1644,3.1644,3.1863,3.1837,3.2015,3.2333,3.2586,3.2876,3.3151,3.3438,3.3636,3.3834,3.4349,3.5114,3.6083,3.6427,3.7038,3.7459,3.7854,3.7877,3.79,3.79,3.79,3.79,3.79,3.79,3.79,3.7923,3.8001,3.8125,3.8408,3.8711,3.8832,3.8989,3.918,3.9305,2.5072,2.5072,2.5072,2.5556,2.6302,2.7082,2.7405,2.7705,2.9246,3.0285,3.0888,3.1604,3.2219,3.2669,3.2698,3.2698,3.2698,3.2698,3.2698,3.2698,3.2698,3.2698,3.2698,3.2698,3.2698,3.2698,3.2698,3.2698,3.2698,3.2698,3.2698,3.2698,3.2698,3.2698,3.2698,3.2698,3.2698,3.2698,3.2698,3.2698,3.2698,3.2698,3.2851,3.2965,3.3012,3.2926,3.2808,3.272,3.2152,3.1527,3.139,3.09,3.0391,3.049,3.0724,3.0776,3.0827,3.0853,3.0853,3.0827,3.0905,3.1034,3.1152,3.1281,3.1399,3.1501,3.1553,3.1593,3.1593,3.1593,3.1593,3.1593,3.1593,3.1593,3.1593,3.1593,3.1593,3.1593,3.1618,3.1695,3.1888,3.2207,3.2409,3.2574,3.2976,3.3549,3.403,3.4374,3.469,3.4981,3.5078,3.5367,3.6154,3.7015,3.7237,3.733,3.7621,3.7877,3.7877,3.79,3.79,3.79,3.79,3.79,3.79,3.7923,3.7923,3.8103,3.8272,3.8553,3.88,3.8944,3.9078,3.9203,3.9283,2.5072,2.5072,2.5072,2.5142,2.5103,2.5257,2.5288,2.5349,2.7585,2.9335,3.0373,3.0762,3.1623,3.2516,3.2698,3.2698,3.2698,3.2698,3.2698,3.2698,3.2698,3.2698,3.2698,3.2698,3.2698,3.2698,3.2698,3.2698,3.2698,3.2698,3.2698,3.2698,3.2698,3.2698,3.2698,3.2698,3.2698,3.2698,3.2698,3.2698,3.2698,3.2698,3.2698,3.2698,3.2727,3.2685,3.262,3.2313,3.184,3.1429,3.1052,3.0617,3.0291,3.0219,3.0464,3.0568,3.0594,3.0594,3.0594,3.0594,3.0672,3.0817,3.1023,3.1152,3.1281,3.1476,3.1567,3.1593,3.1593,3.1593,3.1593,3.1593,3.1593,3.1593,3.1593,3.1593,3.1593,3.1593,3.1593,3.1797,3.2345,3.2636,3.2951,3.3176,3.4055,3.4654,3.5017,3.5403,3.5869,3.6202,3.6249,3.6344,3.6886,3.7482,3.7598,3.7703,3.7772,3.79,3.79,3.79,3.79,3.79,3.79,3.79,3.79,3.7946,3.7979,3.8194,3.8408,3.8621,3.8868,3.9047,3.918,3.9247,3.9283,2.5072,2.5072,2.5072,2.5072,2.5072,2.5072,2.5072,2.5142,2.5678,2.7345,2.9246,3.0382,3.1507,3.2555,3.2669,3.2698,3.2698,3.2698,3.2698,3.2698,3.2698,3.2698,3.2698,3.2698,3.2698,3.2698,3.2698,3.2698,3.2698,3.2698,3.2698,3.2698,3.2698,3.2698,3.2698,3.2698,3.2698,3.2698,3.2698,3.2698,3.2698,3.2698,3.2698,3.2698,3.2698,3.2698,3.2636,3.2564,3.2043,3.1533,3.1346,3.0818,3.0103,3.0083,3.0125,3.0188,3.0266,3.0256,3.0282,3.0308,3.036,3.0531,3.0739,3.0972,3.1204,3.145,3.1567,3.1567,3.1593,3.1593,3.1593,3.1593,3.1593,3.1593,3.1593,3.1593,3.1593,3.1593,3.1593,3.2066,3.2647,3.3112,3.3425,3.4165,3.5017,3.5559,3.5846,3.6249,3.6886,3.7284,3.7178,3.7261,3.74,3.7818,3.79,3.79,3.79,3.79,3.79,3.79,3.79,3.79,3.79,3.79,3.7923,3.7946,3.807,3.8353,3.8566,3.8724,3.8957,3.9158,3.9238,3.9283,3.9305,2.5072,2.5072,2.5072,2.5072,2.5072,2.5072,2.5072,2.5072,2.5111,2.6211,2.8086,2.9423,3.0946,3.244,3.2669,3.2669,3.2669,3.2698,3.2698,3.2698,3.2698,3.2698,3.2698,3.2698,3.2698,3.2698,3.2698,3.2698,3.2698,3.2698,3.2698,3.2698,3.2698,3.2698,3.2698,3.2698,3.2698,3.2698,3.2698,3.2698,3.2698,3.2698,3.2698,3.2698,3.2698,3.2698,3.2605,3.2522,3.1984,3.1371,3.0967,3.0584,3.0077,3.0031,3.002,3.002,3.002,2.9994,2.9994,3.002,3.0073,3.0271,3.0479,3.0713,3.0765,3.1013,3.1373,3.1424,3.1578,3.1593,3.1593,3.1593,3.1593,3.1593,3.1593,3.1593,3.1593,3.1593,3.1593,3.1772,3.2535,3.3474,3.4006,3.5005,3.5893,3.6758,3.6992,3.6909,3.7575,3.79,3.79,3.79,3.79,3.79,3.79,3.79,3.79,3.79,3.79,3.79,3.79,3.79,3.79,3.79,3.7923,3.7923,3.8093,3.8376,3.8557,3.8656,3.8971,3.9283,3.9305,3.9305,3.9305,2.5072,2.5072,2.5072,2.5072,2.5072,2.5072,2.5072,2.5072,2.5103,2.5823,2.7103,2.8236,3.0177,3.1749,3.2459,3.2584,3.2669,3.2669,3.2698,3.2698,3.2698,3.2698,3.2698,3.2698,3.2698,3.2698,3.2698,3.2698,3.2698,3.2698,3.2698,3.2698,3.2698,3.2698,3.2698,3.2698,3.2698,3.2698,3.2698,3.2698,3.2698,3.2698,3.2698,3.2698,3.2698,3.2698,3.2553,3.2253,3.1819,3.1247,3.0626,3.0232,3.0067,2.9994,2.9994,2.9994,2.9994,2.9994,2.9994,2.9994,3.002,3.0073,3.0271,3.0391,3.0479,3.0713,3.1075,3.1281,3.1424,3.1542,3.1542,3.1593,3.1593,3.1593,3.1593,3.1593,3.1593,3.1593,3.1593,3.1644,3.2636,3.3672,3.4593,3.5618,3.6651,3.7551,3.79,3.79,3.79,3.79,3.79,3.79,3.79,3.79,3.79,3.79,3.79,3.79,3.79,3.79,3.79,3.79,3.79,3.79,3.7923,3.7933,3.8093,3.8353,3.8498,3.8656,3.8993,3.9305,3.9305,3.9305,3.9305,2.5072,2.5072,2.5072,2.5072,2.5072,2.5072,2.5072,2.5072,2.5103,2.5823,2.6719,2.7315,2.8772,3.115,3.116,3.1546,3.2373,3.2555,3.2698,3.2698,3.2698,3.2698,3.2698,3.2698,3.2698,3.2698,3.2698,3.2698,3.2698,3.2698,3.2698,3.2698,3.2698,3.2698,3.2698,3.2698,3.2698,3.2698,3.2698,3.2698,3.2698,3.2698,3.2698,3.2698,3.2698,3.2698,3.2574,3.2243,3.1836,3.1257,3.0553,3.0129,2.9994,2.9994,2.9994,2.9994,2.9994,2.9994,2.9994,2.9994,2.9994,3.002,3.0193,3.0339,3.0427,3.0568,3.0827,3.0931,3.1101,3.1347,3.1414,3.1542,3.1593,3.1593,3.1593,3.1593,3.1593,3.1593,3.1593,3.2142,3.2987,3.387,3.4678,3.5798,3.7051,3.7726,3.79,3.79,3.79,3.79,3.79,3.79,3.79,3.79,3.79,3.79,3.79,3.79,3.79,3.79,3.79,3.79,3.79,3.79,3.7933,3.7956,3.8148,3.8362,3.8598,3.88,3.9069,3.9283,3.9305,3.9305,3.9305]},{"header":{"parameterUnit":"m.s-1","parameterCategory":1,"la1":31.0,"la2":29.5877,"lo1":-88.7671,"lo2":-86.6584,"dy":0.0162,"dx":0.0185,"nx":115,"ny":88,"refTime":"2023-03-28T18:00:00:Z","depth":0,"parameterNumber":3,"parameterNumberName":"V-component_of_WINDS"},"data":[0.0,0.0,0.0,0.0,0.0,0.0,0.0,0.0,0.0,0.0,0.0,0.0,0.0,0.0,0.0,0.0,0.0,0.0,0.0,0.0,0.0,0.0,0.0,0.0,0.0,0.0,0.0,0.0,0.0,0.0,0.0,0.0,0.0,0.0,0.0,0.0,0.0,0.0,0.0,0.0,0.0,0.0,0.0,0.0,0.0,0.0,0.0,0.0,0.0,0.0,0.0,0.0,0.0,0.0,0.0,0.0,0.0,0.0,0.0,0.0,0.0,0.0,0.0,0.0,0.0,0.0,0.0,0.0,0.0,0.0,0.0,0.0,0.0,0.0,0.0,0.0,0.0,0.0,0.0,0.0,0.0,0.0,0.0,0.0,0.0,0.0,0.0,0.0,0.0,0.0,0.0,0.0,0.0,0.0,0.0,0.0,0.0,0.0,0.0,0.0,0.0,0.0,0.0,0.0,0.0,0.0,0.0,0.0,0.0,0.0,0.0,0.0,0.0,0.0,0.0,0.0,0.0,0.0,0.0,0.0,0.0,0.0,0.0,0.0,0.0,0.0,0.0,0.0,0.0,0.0,0.0,0.0,0.0,0.0,0.0,0.0,0.0,0.0,0.0,0.0,0.0,0.0,0.0,0.0,0.0,0.0,0.0,0.0,0.0,0.0,0.0,0.0,0.0,0.0,0.0,0.0,0.0,0.0,0.0,0.0,0.0,0.0,0.0,0.0,0.0,0.0,0.0,0.0,0.0,0.0,0.0,0.0,0.0,0.0,0.0,0.0,0.0,0.0,0.0,0.0,0.0,0.0,0.0,0.0,0.0,0.0,0.0,0.0,0.0,0.0,0.0,0.0,0.0,0.0,0.0,0.0,0.0,0.0,0.0,0.0,0.0,0.0,0.0,0.0,0.0,0.0,0.0,0.0,0.0,0.0,0.0,0.0,0.0,0.0,0.0,0.0,0.0,0.0,0.0,0.0,0.0,0.0,0.0,0.0,0.0,0.0,0.0,0.0,0.0,0.0,0.0,0.0,0.0,0.0,0.0,0.0,0.0,0.0,0.0,0.0,0.0,0.0,0.0,0.0,0.0,0.0,0.0,0.0,0.0,0.0,0.0,0.0,0.0,0.0,0.0,0.0,0.0,0.0,0.0,0.0,0.0,0.0,0.0,0.0,0.0,0.0,0.0,0.0,0.0,0.0,0.0,0.0,0.0,0.0,0.0,0.0,0.0,0.0,0.0,0.0,0.0,0.0,0.0,0.0,0.0,0.0,0.0,0.0,0.0,0.0,0.0,0.0,0.0,0.0,0.0,0.0,0.0,0.0,0.0,0.0,0.0,0.0,0.0,0.0,0.0,0.0,0.0,0.0,0.0,0.0,0.0,0.0,0.0,0.0,0.0,0.0,0.0,0.0,0.0,0.0,0.0,0.0,0.0,0.0,0.0,0.0,0.0,0.0,0.0,0.0,0.0,0.0,0.0,0.0,0.0,0.0,0.0,0.0,0.0,0.0,0.0,0.0,0.0,0.0,0.0,0.0,0.0,0.0,0.0,0.0,0.0,0.0,0.0,0.0,0.0,0.0,0.0,0.0,0.0,0.0,0.0,0.0,0.0,0.0,0.0,0.0,0.0,0.0,0.0,0.0,0.0,0.0,0.0,0.0,0.0,0.0,0.0,0.0,0.0,0.0,0.0,0.0,0.0,0.0,0.0,0.0,0.0,0.0,0.0,0.0,0.0,0.0,0.0,0.0,0.0,0.0,0.0,0.0,0.0,0.0,0.0,0.0,0.0,0.0,0.0,0.0,0.0,0.0,0.0,0.0,0.0,0.0,0.0,0.0,0.0,0.0,0.0,0.0,0.0,0.0,0.0,0.0,0.0,0.0,0.0,0.0,0.0,0.0,0.0,0.0,0.0,0.0,0.0,0.0,0.0,0.0,0.0,0.0,0.0,0.0,0.0,0.0,0.0,0.0,0.0,0.0,0.0,0.0,0.0,0.0,0.0,0.0,0.0,0.0,0.0,0.0,0.0,0.0,0.0,0.0,0.0,0.0,0.0,0.0,0.0,0.0,0.0,0.0,0.0,0.0,0.0,0.0,0.0,0.0,0.0,0.0,0.0,0.0,0.0,0.0,0.0,0.0,0.0,0.0,0.0,0.0,0.0,0.0,0.0,0.0,0.0,0.0,0.0,0.0,0.0,0.0,0.0,0.0,0.0,0.0,0.0,0.0,0.0,0.0,0.0,0.0,0.0,0.0,0.0,0.0,0.0,0.0,0.0,0.0,0.0,0.0,0.0,0.0,0.0,0.0,0.0,0.0,0.0,0.0,0.0,0.0,0.0,0.0,0.0,0.0,0.0,0.0,0.0,0.0,0.0,0.0,0.0,0.0,0.0,0.0,0.0,0.0,0.0,0.0,0.0,0.0,0.0,0.0,0.0,0.0,0.0,0.0,0.0,0.0,0.0,0.0,0.0,0.0,0.0,0.0,0.0,0.0,0.0,0.0,0.0,0.0,0.0,0.0,0.0,0.0,0.0,0.0,0.0,0.0,0.0,0.0,0.0,0.0,0.0,0.0,0.0,0.0,0.0,0.0,0.0,0.0,0.0,0.0,0.0,0.0,0.0,0.0,0.0,0.0,0.0,0.0,0.0,0.0,0.0,0.0,0.0,0.0,0.0,0.0,0.0,0.0,0.0,0.0,0.0,0.0,0.0,0.0,0.0,0.0,0.0,0.0,0.0,0.0,0.0,0.0,0.0,0.0,0.0,0.0,0.0,0.0,0.0,0.0,0.0,0.0,0.0,0.0,0.0,0.0,0.0,0.0,0.0,0.0,0.0,0.0,0.0,0.0,0.0,0.0,0.0,0.0,0.0,0.0,0.0,0.0,0.0,0.0,0.0,0.0,0.0,0.0,0.0,0.0,0.0,0.0,0.0,0.0,0.0,0.0,0.0,0.0,0.0,0.0,0.0,0.0,0.0,0.0,0.0,0.0,0.0,0.0,0.0,0.0,0.0,0.0,0.0,0.0,0.0,0.0,0.0,0.0,0.0,0.0,0.0,0.0,0.0,0.0,0.0,0.0,0.0,0.0,0.0,0.0,0.0,0.0,0.0,0.0,0.0,0.0,0.0,0.0,0.0,0.0,0.0,0.0,0.0,0.0,0.0,0.0,0.0,0.0,0.0,0.0,0.0,0.0,0.0,0.0,0.0,0.0,0.0,0.0,0.0,0.0,0.0,0.0,0.0,0.0,0.0,0.0,0.0,0.0,0.0,0.0,0.0,0.0,0.0,0.0,0.0,0.0,0.0,0.0,0.0,0.0,0.0,0.0,0.0,0.0,0.0,0.0,0.0,0.0,0.0,0.0,0.0,0.0,0.0,0.0,0.0,0.0,0.0,0.0,0.0,0.0,0.0,0.0,0.0,0.0,0.0,0.0,0.0,0.0,0.0,0.0,0.0,0.0,0.0,0.0,0.0,0.0,0.0,0.0,0.0,0.0,0.0,0.0,0.0,0.0,0.0,0.0,0.0,0.0,0.0,0.0,0.0,0.0,0.0,0.0,0.0,0.0,0.0,0.0,0.0,0.0,0.0,0.0,0.0,0.0,0.0,0.0,0.0,0.0,0.0,0.0,0.0,0.0,0.0,0.0,0.0,0.0,0.0,0.0,0.0,0.0,0.0,0.0,0.0,0.0,0.0,0.0,0.0,0.0,0.0,0.0,0.0,0.0,0.0,0.0,0.0,0.0,0.0,0.0,0.0,0.0,0.0,0.0,0.0,0.0,0.0,0.0,0.0,0.0,0.0,0.0,0.0,0.0,0.0,0.0,0.0,0.0,0.0,0.0,0.0,0.0,0.0,0.0,0.0,0.0,0.0,0.0,0.0,0.0,0.0,0.0,0.0,0.0,0.0,0.0,0.0,0.0,0.0,0.0,0.0,0.0,0.0,0.0,0.0,0.0,0.0,0.0,0.0,0.0,0.0,0.0,0.0,0.0,0.0,0.0,0.0,0.0,0.0,0.0,0.0,0.0,0.0,0.0,0.0,0.0,0.0,0.0,0.0,0.0,0.0,0.0,0.0,0.0,0.0,0.0,0.0,0.0,0.0,0.0,0.0,0.0,0.0,0.0,0.0,0.0,0.0,0.0,0.0,0.0,0.0,0.0,0.0,0.0,0.0,0.0,0.0,0.0,0.0,0.0,0.0,0.0,0.0,0.0,0.0,0.0,0.0,0.0,0.0,0.0,0.0,0.0,0.0,0.0,0.0,0.0,0.0,0.0,0.0,0.0,2.1173,0.0,0.0,0.0,0.0,0.0,0.0,0.0,0.0,0.0,0.0,0.0,0.0,0.0,0.0,0.0,0.0,0.0,0.0,0.0,0.0,0.0,0.0,0.0,0.0,0.0,0.0,0.0,0.0,0.0,0.0,0.0,0.0,0.0,0.0,0.0,0.0,0.0,0.0,0.0,0.0,0.0,0.0,0.0,0.0,0.0,0.0,0.0,0.0,0.0,0.0,0.0,0.0,0.0,0.0,0.0,0.0,0.0,0.0,0.0,0.0,0.0,0.0,0.0,0.0,0.0,0.0,0.0,0.0,0.0,0.0,0.0,0.0,0.0,0.0,0.0,0.0,0.0,0.0,0.0,0.0,0.0,0.0,0.0,0.0,0.0,0.0,0.0,0.0,0.0,0.0,0.0,0.0,0.0,0.0,0.0,0.0,0.0,0.0,0.0,0.0,0.0,0.0,0.0,0.0,0.0,0.0,0.0,0.0,0.0,0.0,2.2182,2.2182,2.1961,2.181,2.1791,0.0,0.0,0.0,0.0,0.0,0.0,0.0,0.0,0.0,0.0,0.0,0.0,0.0,0.0,0.0,0.0,0.0,0.0,0.0,0.0,0.0,0.0,0.0,0.0,0.0,0.0,0.0,0.0,0.0,0.0,0.0,0.0,0.0,0.0,0.0,0.0,0.0,0.0,0.0,0.0,0.0,0.0,0.0,0.0,0.0,0.0,0.0,0.0,0.0,0.0,0.0,0.0,0.0,0.0,0.0,0.0,0.0,0.0,0.0,0.0,0.0,0.0,0.0,0.0,0.0,0.0,0.0,0.0,0.0,0.0,0.0,0.0,0.0,0.0,0.0,0.0,0.0,0.0,0.0,0.0,0.0,0.0,0.0,0.0,0.0,0.0,0.0,0.0,0.0,0.0,0.0,0.0,0.0,0.0,0.0,0.0,0.0,0.0,0.0,0.0,0.0,0.0,0.0,0.0,0.0,0.0,0.0,0.0,0.0,0.0,0.0,0.0,2.2182,2.2182,2.2182,0.0,0.0,0.0,0.0,0.0,0.0,0.0,0.0,0.0,0.0,0.0,0.0,0.0,0.0,0.0,0.0,0.0,0.0,0.0,0.0,0.0,0.0,0.0,0.0,0.0,0.0,0.0,0.0,0.0,0.0,0.0,0.0,0.0,0.0,0.0,0.0,0.0,0.0,0.0,0.0,0.0,0.0,0.0,0.0,0.0,0.0,0.0,0.0,0.0,0.0,0.0,0.0,0.0,0.0,0.0,0.0,0.0,0.0,0.0,0.0,0.0,0.0,0.0,0.0,0.0,0.0,0.0,0.0,0.0,0.0,0.0,0.0,0.0,0.0,0.0,0.0,0.0,0.0,0.0,0.0,0.0,0.0,0.0,0.0,0.0,0.0,0.0,0.0,0.0,0.0,0.0,0.0,0.0,0.0,0.0,0.0,0.0,0.0,0.0,0.0,0.0,0.0,0.0,0.0,0.0,0.0,0.0,0.0,0.0,0.0,2.2182,2.2182,2.2182,0.0,2.2182,0.0,0.0,0.0,0.0,0.0,0.0,0.0,0.0,0.0,0.0,0.0,0.0,0.0,0.0,0.0,0.0,0.0,0.0,0.0,0.0,0.0,0.0,0.0,0.0,0.0,0.0,0.0,0.0,0.0,0.0,0.0,0.0,0.0,0.0,0.0,0.0,0.0,0.0,0.0,0.0,0.0,0.0,0.0,0.0,0.0,0.0,0.0,0.0,0.0,0.0,0.0,0.0,0.0,0.0,0.0,0.0,0.0,0.0,0.0,0.0,0.0,0.0,0.0,0.0,0.0,0.0,0.0,0.0,0.0,0.0,0.0,0.0,0.0,0.0,0.0,0.0,0.0,0.0,0.0,0.0,0.0,0.0,0.0,0.0,0.0,0.0,0.0,0.0,0.0,0.0,0.0,0.0,0.0,0.0,0.0,0.0,0.0,0.0,0.0,0.0,0.0,0.0,0.0,0.0,0.0,0.0,0.0,0.0,0.0,0.0,2.2182,2.2182,2.2182,2.2182,0.0,0.0,0.0,0.0,0.0,0.0,0.0,0.0,0.0,0.0,0.0,0.0,0.0,0.0,0.0,0.0,0.0,0.0,0.0,0.0,0.0,0.0,0.0,0.0,0.0,0.0,0.0,0.0,0.0,0.0,0.0,0.0,0.0,0.0,0.0,0.0,0.0,0.0,0.0,0.0,0.0,0.0,0.0,0.0,0.0,0.0,0.0,0.0,0.0,0.0,0.0,0.0,0.0,0.0,0.0,0.0,0.0,0.0,0.0,0.0,0.0,0.0,0.0,0.0,0.0,0.0,0.0,0.0,0.0,0.0,0.0,0.0,0.0,0.0,0.0,0.0,0.0,0.0,0.0,0.0,0.0,0.0,0.0,0.0,0.0,0.0,0.0,0.0,0.0,0.0,0.0,0.0,0.0,0.0,0.0,0.0,0.0,0.0,0.0,0.0,0.0,0.0,0.0,0.0,0.0,0.0,0.0,0.0,0.0,0.0,2.2182,2.2182,2.2182,2.2182,2.2182,2.2182,0.0,0.0,0.0,0.0,0.0,0.0,0.0,0.0,0.0,0.0,0.0,0.0,0.0,0.0,0.0,0.0,0.0,0.0,0.0,0.0,0.0,0.0,0.0,0.0,0.0,0.0,0.0,0.0,0.0,0.0,0.0,0.0,0.0,0.0,0.0,0.0,0.0,0.0,0.0,0.0,0.0,0.0,0.0,0.0,0.0,0.0,0.0,0.0,0.0,0.0,0.0,0.0,0.0,0.0,0.0,0.0,0.0,0.0,0.0,0.0,0.0,0.0,0.0,0.0,0.0,0.0,0.0,0.0,0.0,0.0,0.0,0.0,0.0,0.0,0.0,0.0,0.0,0.0,0.0,0.0,0.0,0.0,0.0,0.0,0.0,0.0,0.0,0.0,0.0,0.0,0.0,0.0,0.0,0.0,0.0,0.0,0.0,0.0,0.0,0.0,0.0,0.0,0.0,0.0,0.0,0.0,0.0,0.0,2.2182,2.2182,2.2182,2.2182,2.2182,2.2182,0.0,0.0,0.0,0.0,0.0,0.0,0.0,0.0,0.0,0.0,0.0,0.0,0.0,0.0,0.0,0.0,0.0,0.0,0.0,0.0,0.0,0.0,0.0,0.0,0.0,0.0,0.0,0.0,0.0,0.0,0.0,0.0,0.0,0.0,0.0,0.0,0.0,0.0,0.0,0.0,0.0,0.0,0.0,0.0,0.0,0.0,0.0,0.0,0.0,0.0,0.0,0.0,0.0,0.0,0.0,0.0,0.0,0.0,0.0,0.0,0.0,0.0,0.0,0.0,0.0,0.0,0.0,0.0,0.0,0.0,0.0,0.0,0.0,0.0,0.0,0.0,0.0,0.0,0.0,0.0,0.0,0.0,0.0,0.0,0.0,0.0,0.0,0.0,0.0,0.0,0.0,0.0,0.0,0.0,0.0,0.0,0.0,0.0,0.0,0.0,0.0,0.0,0.0,0.0,0.0,0.0,0.0,0.0,0.0,2.2182,2.2182,2.2182,2.2182,2.2182,2.2182,0.0,0.0,0.0,0.0,0.0,0.0,0.0,0.0,0.0,0.0,0.0,0.0,0.0,0.0,0.0,0.0,0.0,0.0,0.0,0.0,0.0,0.0,0.0,0.0,0.0,0.0,0.0,0.0,0.0,0.0,0.0,0.0,0.0,0.0,0.0,0.0,0.0,0.0,0.0,0.0,0.0,0.0,0.0,0.0,0.0,0.0,0.0,0.0,0.0,0.0,0.0,0.0,0.0,0.0,0.0,0.0,0.0,0.0,0.0,0.0,0.0,0.0,0.0,0.0,0.0,0.0,0.0,0.0,0.0,0.0,0.0,0.0,0.0,0.0,0.0,0.0,0.0,0.0,0.0,0.0,0.0,0.0,0.0,0.0,0.0,0.0,0.0,0.0,0.0,0.0,0.0,0.0,0.0,0.0,0.0,0.0,0.0,0.0,0.0,0.0,0.0,0.0,0.0,0.0,0.0,0.0,0.0,0.0,0.0,2.2182,0.0,2.2182,2.2182,2.2182,2.2182,0.0,0.0,0.0,0.0,0.0,0.0,0.0,0.0,0.0,0.0,0.0,0.0,0.0,0.0,0.0,0.0,0.0,0.0,0.0,0.0,0.0,0.0,0.0,0.0,0.0,0.0,0.0,0.0,0.0,0.0,0.0,0.0,0.0,0.0,0.0,0.0,0.0,0.0,0.0,0.0,0.0,0.0,0.0,0.0,0.0,0.0,0.0,0.0,0.0,0.0,0.0,0.0,0.0,0.0,0.0,0.0,0.0,0.0,0.0,0.0,0.0,0.0,0.0,0.0,0.0,0.0,0.0,0.0,0.0,0.0,0.0,0.0,0.0,0.0,0.0,0.0,0.0,0.0,0.0,0.0,0.0,0.0,0.0,0.0,0.0,0.0,0.0,0.0,0.0,0.0,0.0,0.0,0.0,0.0,0.0,0.0,0.0,0.0,0.0,0.0,0.0,0.0,0.0,0.0,0.0,0.0,0.0,0.0,2.2182,2.2182,2.2182,2.2182,2.2182,2.2182,2.2182,0.0,0.0,0.0,0.0,0.0,0.0,0.0,0.0,0.0,0.0,0.0,0.0,0.0,0.0,0.0,0.0,0.0,0.0,0.0,0.0,0.0,0.0,0.0,0.0,0.0,0.0,0.0,0.0,0.0,0.0,0.0,0.0,0.0,0.0,0.0,0.0,0.0,0.0,0.0,0.0,0.0,0.0,0.0,0.0,0.0,0.0,0.0,0.0,0.0,0.0,0.0,0.0,0.0,0.0,0.0,0.0,0.0,0.0,0.0,0.0,0.0,0.0,0.0,0.0,0.0,0.0,0.0,0.0,0.0,0.0,0.0,0.0,0.0,0.0,0.0,0.0,0.0,0.0,0.0,0.0,0.0,0.0,0.0,0.0,0.0,0.0,0.0,0.0,0.0,0.0,0.0,0.0,0.0,0.0,0.0,0.0,0.0,0.0,0.0,0.0,0.0,0.0,0.0,0.0,0.0,0.0,0.0,0.0,0.0,2.2182,2.2182,2.2182,2.2182,2.2182,2.2182,0.0,0.0,0.0,0.0,0.0,0.0,0.0,0.0,0.0,0.0,0.0,0.0,0.0,0.0,0.0,0.0,0.0,0.0,0.0,0.0,0.0,0.0,0.0,0.0,0.0,0.0,0.0,0.0,0.0,0.0,0.0,0.0,0.0,0.0,0.0,0.0,0.0,0.0,0.0,0.0,0.0,0.0,0.0,0.0,0.0,0.0,0.0,0.0,0.0,0.0,0.0,0.0,0.0,0.0,0.0,0.0,0.0,0.0,0.0,0.0,0.0,0.0,0.0,0.0,0.0,0.0,0.0,0.0,0.0,0.0,0.0,0.0,0.0,0.0,0.0,0.0,0.0,0.0,0.0,0.0,0.0,0.0,0.0,0.0,0.0,0.0,0.0,0.0,0.0,0.0,0.0,0.0,0.0,0.0,0.0,0.0,0.0,0.0,0.0,0.0,0.0,0.0,0.0,0.0,0.0,0.0,0.0,0.0,0.0,2.2533,2.2533,2.2545,2.2545,2.2547,2.2433,2.221,0.0,0.0,0.0,0.0,0.0,0.0,0.0,0.0,0.0,0.0,0.0,0.0,0.0,0.0,0.0,0.0,0.0,0.0,0.0,0.0,0.0,0.0,0.0,0.0,0.0,0.0,0.0,0.0,0.0,0.0,0.0,0.0,0.0,0.0,0.0,0.0,0.0,0.0,0.0,0.0,0.0,0.0,0.0,0.0,0.0,0.0,0.0,0.0,0.0,0.0,0.0,0.0,0.0,0.0,0.0,0.0,0.0,0.0,0.0,0.0,0.0,0.0,0.0,0.0,0.0,0.0,0.0,0.0,0.0,0.0,0.0,0.0,0.0,0.0,0.0,0.0,0.0,0.0,0.0,0.0,0.0,0.0,0.0,0.0,0.0,0.0,0.0,0.0,0.0,0.0,0.0,0.0,0.0,0.0,0.0,0.0,0.0,0.0,0.0,0.0,0.0,0.0,0.0,0.0,0.0,0.0,0.0,0.0,2.3252,2.3294,2.3278,2.3166,2.3112,2.2831,0.0,0.0,0.0,0.0,0.0,0.0,0.0,0.0,0.0,0.0,0.0,0.0,0.0,0.0,0.0,0.0,0.0,0.0,0.0,0.0,0.0,0.0,0.0,0.0,0.0,0.0,0.0,0.0,0.0,0.0,0.0,0.0,0.0,0.0,0.0,0.0,0.0,0.0,0.0,0.0,0.0,0.0,0.0,0.0,0.0,0.0,0.0,0.0,0.0,0.0,0.0,0.0,0.0,0.0,0.0,0.0,0.0,0.0,0.0,0.0,0.0,0.0,0.0,0.0,0.0,0.0,0.0,0.0,0.0,0.0,0.0,0.0,0.0,0.0,0.0,0.0,0.0,0.0,0.0,0.0,0.0,0.0,0.0,0.0,0.0,0.0,0.0,0.0,0.0,0.0,0.0,0.0,0.0,0.0,0.0,0.0,0.0,0.0,0.0,0.0,0.0,0.0,0.0,0.0,0.0,0.0,0.0,0.0,0.0,2.5135,2.5585,2.5191,2.3895,2.3363,2.3027,0.0,0.0,0.0,0.0,0.0,0.0,0.0,0.0,0.0,0.0,0.0,0.0,0.0,0.0,0.0,0.0,0.0,0.0,0.0,0.0,0.0,0.0,0.0,0.0,0.0,0.0,0.0,0.0,0.0,0.0,0.0,0.0,0.0,0.0,0.0,0.0,0.0,0.0,0.0,0.0,0.0,0.0,0.0,0.0,0.0,0.0,0.0,0.0,0.0,0.0,0.0,0.0,0.0,0.0,0.0,0.0,0.0,0.0,0.0,0.0,0.0,0.0,0.0,0.0,0.0,0.0,0.0,0.0,0.0,0.0,0.0,0.0,0.0,0.0,0.0,0.0,0.0,0.0,0.0,0.0,0.0,0.0,0.0,0.0,0.0,0.0,0.0,0.0,0.0,0.0,0.0,0.0,0.0,0.0,0.0,0.0,0.0,0.0,0.0,0.0,0.0,0.0,0.0,0.0,0.0,0.0,0.0,0.0,2.5203,2.5907,2.6779,2.6722,2.5682,2.4754,2.3911,0.0,0.0,0.0,0.0,0.0,0.0,0.0,0.0,0.0,0.0,0.0,0.0,0.0,0.0,0.0,0.0,0.0,0.0,0.0,0.0,0.0,0.0,0.0,0.0,0.0,0.0,0.0,0.0,0.0,0.0,0.0,0.0,0.0,0.0,0.0,0.0,0.0,0.0,0.0,0.0,0.0,0.0,0.0,0.0,0.0,0.0,0.0,0.0,0.0,0.0,0.0,0.0,0.0,0.0,0.0,0.0,0.0,0.0,0.0,0.0,0.0,0.0,0.0,0.0,0.0,0.0,0.0,0.0,0.0,0.0,0.0,0.0,0.0,0.0,0.0,0.0,0.0,0.0,0.0,0.0,0.0,0.0,0.0,0.0,0.0,0.0,0.0,0.0,0.0,0.0,0.0,0.0,0.0,0.0,0.0,0.0,0.0,0.0,0.0,0.0,0.0,0.0,0.0,0.0,0.0,0.0,0.0,0.0,2.6104,2.6301,2.7453,2.8044,2.7945,2.6638,2.512,0.0,0.0,0.0,0.0,0.0,0.0,0.0,0.0,0.0,0.0,0.0,0.0,0.0,0.0,0.0,0.0,0.0,0.0,0.0,0.0,0.0,0.0,0.0,0.0,0.0,0.0,0.0,0.0,0.0,0.0,0.0,0.0,0.0,0.0,0.0,0.0,0.0,0.0,0.0,0.0,0.0,0.0,0.0,0.0,0.0,0.0,0.0,0.0,0.0,0.0,0.0,0.0,0.0,0.0,0.0,0.0,0.0,0.0,0.0,0.0,0.0,0.0,0.0,0.0,0.0,0.0,0.0,0.0,0.0,0.0,0.0,0.0,0.0,0.0,0.0,0.0,0.0,0.0,0.0,0.0,0.0,0.0,0.0,0.0,0.0,0.0,0.0,0.0,0.0,0.0,0.0,0.0,0.0,0.0,0.0,0.0,0.0,0.0,0.0,0.0,0.0,0.0,0.0,0.0,0.0,0.0,0.0,0.0,2.734,2.8788,2.9531,2.9701,2.9223,2.7059,2.5711,0.0,0.0,0.0,0.0,0.0,0.0,0.0,0.0,0.0,0.0,0.0,0.0,0.0,0.0,0.0,0.0,0.0,0.0,0.0,0.0,0.0,0.0,0.0,0.0,0.0,0.0,0.0,0.0,0.0,0.0,0.0,0.0,0.0,0.0,0.0,0.0,0.0,0.0,0.0,0.0,0.0,0.0,0.0,0.0,0.0,0.0,0.0,0.0,1.8602,0.0,0.0,0.0,0.0,0.0,0.0,0.0,0.0,0.0,0.0,0.0,0.0,0.0,0.0,0.0,0.0,0.0,0.0,0.0,0.0,0.0,0.0,0.0,0.0,0.0,0.0,0.0,0.0,0.0,0.0,0.0,0.0,0.0,0.0,0.0,0.0,0.0,0.0,0.0,0.0,0.0,0.0,0.0,0.0,0.0,0.0,0.0,0.0,0.0,0.0,0.0,0.0,0.0,0.0,0.0,0.0,0.0,0.0,0.0,2.8309,2.9574,3.05,3.0684,3.0008,2.8463,2.7088,0.0,0.0,0.0,0.0,0.0,0.0,0.0,0.0,0.0,0.0,0.0,0.0,0.0,0.0,0.0,0.0,0.0,0.0,0.0,0.0,0.0,0.0,0.0,0.0,0.0,0.0,0.0,0.0,0.0,0.0,0.0,0.0,0.0,0.0,0.0,0.0,0.0,0.0,0.0,0.0,0.0,0.0,0.0,0.0,0.0,0.0,0.0,0.0,0.0,0.0,0.0,0.0,0.0,0.0,0.0,0.0,0.0,0.0,0.0,0.0,0.0,0.0,0.0,0.0,0.0,0.0,0.0,0.0,0.0,0.0,0.0,0.0,0.0,0.0,0.0,0.0,0.0,0.0,0.0,0.0,0.0,0.0,0.0,0.0,0.0,0.0,0.0,0.0,0.0,0.0,0.0,0.0,0.0,0.0,0.0,0.0,0.0,0.0,0.0,0.0,0.0,0.0,0.0,0.0,0.0,0.0,0.0,2.8197,2.9167,2.9897,3.1021,3.1331,3.0682,3.0164,2.8745,2.6287,0.0,0.0,0.0,0.0,0.0,0.0,0.0,0.0,0.0,0.0,0.0,0.0,0.0,0.0,0.0,0.0,0.0,0.0,0.0,0.0,0.0,0.0,0.0,0.0,0.0,0.0,0.0,0.0,0.0,0.0,0.0,0.0,0.0,0.0,0.0,0.0,0.0,0.0,1.8434,1.8831,0.0,0.0,0.0,0.0,0.0,0.0,0.0,0.0,2.0302,0.0,0.0,0.0,0.0,0.0,0.0,0.0,0.0,0.0,0.0,0.0,0.0,0.0,0.0,0.0,0.0,0.0,0.0,0.0,0.0,0.0,0.0,0.0,0.0,0.0,0.0,0.0,0.0,0.0,0.0,0.0,0.0,0.0,0.0,0.0,0.0,0.0,0.0,0.0,0.0,0.0,0.0,0.0,0.0,0.0,0.0,0.0,0.0,0.0,0.0,0.0,0.0,0.0,0.0,0.0,0.0,2.7636,2.8844,3.0008,3.1148,3.1878,3.1963,3.1359,3.1232,3.0026,2.7608,0.0,0.0,0.0,0.0,0.0,0.0,0.0,0.0,0.0,0.0,0.0,0.0,0.0,0.0,0.0,0.0,0.0,0.0,0.0,0.0,0.0,0.0,0.0,0.0,0.0,0.0,0.0,0.0,0.0,0.0,0.0,0.0,0.0,0.0,0.0,0.0,0.0,0.0,0.0,1.9614,1.9662,0.0,0.0,0.0,0.0,0.0,0.0,0.0,0.0,2.0548,0.0,0.0,0.0,0.0,0.0,0.0,0.0,0.0,0.0,0.0,0.0,0.0,0.0,0.0,0.0,0.0,0.0,0.0,0.0,0.0,0.0,0.0,0.0,0.0,0.0,0.0,0.0,0.0,0.0,0.0,0.0,0.0,0.0,0.0,0.0,0.0,0.0,0.0,0.0,0.0,0.0,0.0,0.0,0.0,0.0,0.0,0.0,0.0,0.0,0.0,0.0,0.0,0.0,0.0,0.0,2.8269,2.9448,3.0668,3.1935,3.2567,3.244,3.1541,3.1502,3.0335,0.0,0.0,0.0,0.0,0.0,0.0,0.0,0.0,0.0,0.0,0.0,0.0,0.0,0.0,0.0,0.0,0.0,0.0,0.0,0.0,0.0,0.0,0.0,0.0,0.0,0.0,0.0,0.0,0.0,0.0,0.0,0.0,0.0,0.0,0.0,0.0,0.0,0.0,0.0,0.0,1.9808,1.9903,2.0177,0.0,0.0,0.0,0.0,0.0,0.0,2.1443,2.144,0.0,0.0,0.0,0.0,0.0,0.0,0.0,0.0,0.0,0.0,0.0,0.0,0.0,0.0,0.0,0.0,0.0,0.0,0.0,0.0,0.0,0.0,0.0,0.0,0.0,0.0,0.0,0.0,0.0,0.0,0.0,0.0,0.0,0.0,0.0,0.0,0.0,0.0,0.0,0.0,0.0,0.0,0.0,0.0,0.0,0.0,0.0,0.0,0.0,0.0,0.0,0.0,0.0,0.0,0.0,2.8704,3.004,3.1291,3.237,3.3034,3.277,3.1558,3.1518,3.0383,0.0,0.0,0.0,0.0,0.0,0.0,0.0,0.0,0.0,0.0,0.0,0.0,0.0,0.0,0.0,0.0,0.0,0.0,0.0,0.0,0.0,0.0,0.0,0.0,0.0,0.0,0.0,0.0,0.0,0.0,0.0,0.0,0.0,0.0,0.0,0.0,0.0,0.0,0.0,0.0,0.0,2.0203,2.0839,2.0824,0.0,0.0,0.0,0.0,2.2442,2.2526,0.0,0.0,0.0,0.0,0.0,0.0,0.0,0.0,0.0,0.0,0.0,0.0,0.0,0.0,0.0,0.0,0.0,0.0,0.0,0.0,0.0,0.0,0.0,0.0,0.0,0.0,0.0,0.0,0.0,0.0,0.0,0.0,0.0,0.0,0.0,0.0,0.0,0.0,0.0,0.0,0.0,0.0,0.0,0.0,0.0,0.0,0.0,0.0,0.0,0.0,0.0,0.0,0.0,0.0,0.0,0.0,2.8747,3.0589,3.1832,3.2415,3.3158,3.2904,3.1544,3.1606,3.0498,0.0,0.0,0.0,0.0,0.0,0.0,0.0,0.0,0.0,0.0,0.0,0.0,0.0,0.0,0.0,0.0,0.0,0.0,0.0,0.0,0.0,0.0,0.0,0.0,0.0,0.0,0.0,0.0,0.0,0.0,0.0,0.0,0.0,0.0,0.0,0.0,0.0,0.0,0.0,0.0,0.0,2.0887,2.1873,2.1608,2.1644,0.0,0.0,2.2454,2.3452,2.3613,0.0,0.0,0.0,0.0,0.0,0.0,0.0,0.0,0.0,0.0,0.0,0.0,0.0,0.0,0.0,0.0,0.0,0.0,0.0,0.0,0.0,0.0,0.0,0.0,0.0,0.0,0.0,0.0,0.0,0.0,0.0,0.0,0.0,0.0,0.0,0.0,0.0,0.0,0.0,0.0,0.0,0.0,0.0,0.0,0.0,0.0,0.0,0.0,0.0,0.0,0.0,0.0,0.0,0.0,0.0,2.8374,2.9392,3.1022,3.2333,3.3217,3.3584,3.3129,3.1813,3.1821,3.0687,0.0,0.0,0.0,0.0,0.0,0.0,0.0,0.0,0.0,0.0,0.0,0.0,0.0,0.0,0.0,0.0,0.0,0.0,0.0,0.0,0.0,0.0,0.0,0.0,0.0,0.0,0.0,0.0,0.0,0.0,0.0,0.0,0.0,0.0,0.0,0.0,0.0,0.0,0.0,0.0,0.0,0.0,2.2562,2.2706,0.0,0.0,0.0,2.3368,2.4073,0.0,0.0,0.0,0.0,0.0,0.0,0.0,0.0,0.0,0.0,0.0,0.0,0.0,0.0,0.0,0.0,0.0,0.0,0.0,0.0,0.0,0.0,0.0,0.0,0.0,0.0,0.0,0.0,0.0,0.0,0.0,0.0,0.0,0.0,0.0,0.0,0.0,0.0,0.0,0.0,0.0,0.0,0.0,0.0,0.0,0.0,0.0,0.0,0.0,0.0,0.0,0.0,0.0,0.0,0.0,0.0,0.0,3.0186,3.1425,3.2677,3.3825,3.3931,3.3404,3.227,3.2117,0.0,0.0,0.0,0.0,0.0,0.0,0.0,0.0,0.0,0.0,0.0,0.0,0.0,0.0,0.0,0.0,0.0,0.0,0.0,0.0,0.0,0.0,0.0,0.0,0.0,0.0,0.0,2.0609,0.0,0.0,0.0,0.0,0.0,0.0,0.0,0.0,0.0,0.0,0.0,0.0,0.0,0.0,2.249,2.3272,2.3621,2.389,0.0,0.0,2.4133,2.4621,2.4427,2.4078,0.0,0.0,0.0,0.0,0.0,0.0,0.0,0.0,0.0,0.0,0.0,0.0,0.0,0.0,0.0,0.0,0.0,0.0,0.0,0.0,0.0,0.0,0.0,0.0,0.0,0.0,0.0,0.0,0.0,0.0,0.0,0.0,0.0,0.0,0.0,0.0,0.0,0.0,0.0,0.0,0.0,0.0,0.0,0.0,0.0,0.0,0.0,0.0,0.0,0.0,0.0,0.0,0.0,0.0,0.0,3.0972,3.1862,3.2824,3.3857,3.4023,3.3678,3.2854,3.2428,3.1273,0.0,0.0,0.0,0.0,0.0,0.0,0.0,0.0,0.0,0.0,0.0,0.0,0.0,0.0,0.0,0.0,0.0,0.0,0.0,0.0,0.0,0.0,0.0,0.0,0.0,0.0,0.0,0.0,0.0,0.0,0.0,0.0,0.0,0.0,0.0,0.0,0.0,0.0,0.0,0.0,0.0,2.2739,2.4189,2.4066,2.4126,0.0,0.0,2.4633,2.5162,2.5216,2.4879,2.3934,0.0,0.0,0.0,0.0,0.0,0.0,0.0,0.0,0.0,0.0,0.0,0.0,0.0,0.0,0.0,0.0,0.0,0.0,0.0,0.0,0.0,0.0,0.0,0.0,0.0,0.0,0.0,0.0,0.0,0.0,0.0,0.0,0.0,0.0,0.0,0.0,0.0,0.0,0.0,0.0,0.0,0.0,0.0,0.0,0.0,0.0,0.0,0.0,0.0,0.0,0.0,0.0,0.0,2.9705,3.1215,3.2426,3.3427,3.4167,3.4261,3.396,3.3289,3.2701,3.1677,0.0,0.0,0.0,0.0,0.0,0.0,0.0,0.0,0.0,0.0,0.0,0.0,0.0,0.0,0.0,0.0,0.0,0.0,0.0,0.0,0.0,0.0,0.0,0.0,0.0,0.0,0.0,0.0,2.1392,2.1464,2.1139,0.0,0.0,0.0,0.0,0.0,0.0,0.0,0.0,0.0,0.0,2.3512,2.4381,2.4638,0.0,0.0,2.5131,2.5071,2.5276,2.5018,2.459,2.3914,2.3512,0.0,0.0,0.0,0.0,0.0,0.0,0.0,0.0,0.0,0.0,0.0,0.0,0.0,0.0,0.0,0.0,0.0,0.0,0.0,0.0,0.0,0.0,0.0,0.0,0.0,0.0,0.0,0.0,0.0,0.0,0.0,0.0,0.0,0.0,0.0,0.0,0.0,0.0,0.0,0.0,0.0,0.0,0.0,0.0,0.0,0.0,0.0,0.0,0.0,0.0,0.0,0.0,3.0186,3.166,3.3061,3.4082,3.469,3.469,3.4503,3.4053,3.3238,3.2193,0.0,0.0,0.0,0.0,0.0,0.0,0.0,0.0,0.0,0.0,0.0,0.0,0.0,0.0,0.0,0.0,0.0,0.0,0.0,0.0,0.0,0.0,0.0,0.0,0.0,0.0,0.0,0.0,2.1969,2.1981,2.1464,0.0,0.0,0.0,0.0,0.0,0.0,0.0,0.0,0.0,0.0,2.4181,2.4681,2.5054,2.5294,2.5294,2.518,2.5054,2.5042,2.4638,2.4109,2.3633,0.0,0.0,0.0,0.0,0.0,0.0,0.0,0.0,0.0,0.0,0.0,0.0,0.0,0.0,0.0,0.0,0.0,0.0,0.0,0.0,0.0,0.0,0.0,0.0,0.0,0.0,0.0,0.0,0.0,0.0,2.994,0.0,0.0,0.0,0.0,0.0,0.0,0.0,0.0,0.0,0.0,0.0,0.0,0.0,0.0,0.0,0.0,0.0,0.0,0.0,0.0,0.0,0.0,3.0552,3.2437,3.3715,3.4704,3.5348,3.5378,3.5378,3.5305,3.4128,3.2848,3.1496,0.0,0.0,0.0,0.0,0.0,0.0,0.0,0.0,0.0,0.0,0.0,0.0,0.0,0.0,0.0,0.0,0.0,0.0,0.0,0.0,0.0,0.0,0.0,0.0,0.0,0.0,2.2182,2.2173,2.1984,0.0,0.0,0.0,0.0,0.0,0.0,0.0,0.0,0.0,0.0,2.384,2.4669,2.5186,2.53,2.5294,2.5294,2.4874,2.4549,2.4532,2.4133,2.3621,0.0,0.0,0.0,0.0,0.0,0.0,0.0,0.0,0.0,0.0,0.0,0.0,0.0,0.0,0.0,0.0,0.0,0.0,0.0,0.0,0.0,0.0,0.0,0.0,0.0,0.0,0.0,3.1843,3.1644,0.0,0.0,0.0,0.0,0.0,0.0,0.0,0.0,0.0,0.0,0.0,3.3279,3.3074,0.0,0.0,0.0,0.0,0.0,0.0,0.0,0.0,0.0,0.0,0.0,0.0,3.1408,3.2526,3.4182,3.5171,3.5407,3.5781,3.581,3.5407,3.4562,3.3079,3.0959,0.0,0.0,0.0,0.0,0.0,0.0,0.0,0.0,0.0,0.0,0.0,0.0,0.0,0.0,0.0,0.0,0.0,0.0,0.0,0.0,0.0,0.0,0.0,0.0,0.0,2.3311,0.0,0.0,0.0,0.0,0.0,0.0,0.0,0.0,0.0,0.0,0.0,2.3055,2.3876,2.4285,2.4693,2.524,2.5294,2.5294,0.0,0.0,0.0,0.0,0.0,0.0,0.0,0.0,0.0,0.0,0.0,0.0,0.0,0.0,2.4398,2.3228,2.2995,2.2935,2.2754,0.0,0.0,0.0,0.0,0.0,0.0,0.0,0.0,0.0,0.0,0.0,0.0,0.0,0.0,3.3356,0.0,3.2854,0.0,0.0,0.0,0.0,0.0,0.0,0.0,0.0,3.5003,3.5322,3.5751,3.5557,3.4848,0.0,3.259,3.1329,0.0,0.0,0.0,0.0,0.0,0.0,0.0,0.0,3.1945,3.289,3.475,3.5694,3.5723,3.633,3.6446,3.6057,3.498,3.3514,3.1673,3.0961,3.0002,0.0,0.0,0.0,0.0,0.0,0.0,0.0,0.0,0.0,0.0,0.0,0.0,0.0,0.0,0.0,0.0,0.0,0.0,0.0,0.0,0.0,0.0,0.0,2.4185,0.0,0.0,0.0,0.0,0.0,0.0,0.0,0.0,0.0,2.2923,2.3448,2.4157,2.4795,2.4812,2.4898,2.5264,0.0,0.0,0.0,0.0,0.0,0.0,0.0,2.4513,2.4513,2.4554,2.4759,2.5215,2.5768,2.6343,2.6907,0.0,0.0,2.4752,2.4555,2.4656,2.437,2.4319,2.4403,2.469,2.474,2.4824,0.0,0.0,0.0,0.0,0.0,0.0,0.0,0.0,3.593,3.5833,0.0,3.4469,0.0,0.0,0.0,0.0,0.0,3.4137,0.0,0.0,3.7698,3.7737,3.6646,3.7235,3.6579,3.4799,3.3982,3.325,3.2502,3.0548,0.0,0.0,0.0,0.0,0.0,0.0,3.2222,3.3532,3.536,3.6315,3.6344,3.6983,3.7317,3.723,3.5444,3.4138,3.3489,3.1731,3.067,3.0569,2.8812,0.0,0.0,0.0,0.0,0.0,0.0,0.0,0.0,0.0,0.0,0.0,0.0,0.0,0.0,0.0,0.0,0.0,0.0,0.0,0.0,2.5339,0.0,0.0,0.0,0.0,0.0,0.0,0.0,0.0,0.0,0.0,2.4343,2.5037,2.5648,2.5624,0.0,0.0,0.0,0.0,2.5318,2.533,2.4944,2.4644,2.4621,2.4649,2.47,2.4666,0.0,0.0,2.7998,2.8864,2.9533,3.0151,3.0256,2.9318,2.6228,2.628,2.6461,2.5763,2.5681,2.5791,2.6458,2.6783,2.6951,3.6594,0.0,0.0,0.0,0.0,3.559,3.5801,3.5995,3.6206,3.6189,3.5949,3.5752,0.0,0.0,0.0,0.0,0.0,0.0,3.6432,3.7792,3.8213,3.8727,3.9308,3.9035,3.8621,3.8029,3.6433,3.5294,3.4591,3.3103,3.2032,3.1408,0.0,0.0,0.0,0.0,3.3325,3.4182,3.5575,3.6533,3.7027,3.7636,3.7738,3.7302,3.5897,3.4808,3.4153,3.3196,3.2006,3.067,3.0074,0.0,0.0,0.0,0.0,0.0,0.0,0.0,0.0,0.0,0.0,0.0,0.0,0.0,0.0,0.0,0.0,0.0,0.0,0.0,2.718,2.7167,2.6947,0.0,0.0,0.0,0.0,0.0,0.0,0.0,0.0,0.0,2.7662,2.7006,2.6479,0.0,0.0,2.5998,2.5388,2.5607,2.5865,2.5859,2.6564,0.0,0.0,2.7183,2.7737,2.7165,2.8156,2.9426,3.0663,3.1076,3.1392,3.1976,3.252,3.2404,3.1033,3.018,2.9798,2.9545,2.9509,2.9595,2.9796,2.985,2.9897,3.9091,3.7973,3.6816,3.6627,3.7128,3.7115,3.7439,3.797,3.797,3.797,3.7938,3.7371,3.6886,3.6429,3.5895,0.0,0.0,0.0,3.789,3.9233,3.9525,4.0108,4.087,4.0505,4.0196,3.9866,3.8398,3.7059,3.5902,3.5088,3.4208,3.3267,0.0,0.0,3.2904,3.3284,3.3923,3.4808,3.5793,3.6635,3.7288,3.7883,3.7926,3.7298,3.6286,3.5462,3.4823,3.3952,3.2951,3.1789,3.1019,3.0263,0.0,0.0,0.0,0.0,0.0,0.0,0.0,0.0,0.0,0.0,0.0,2.5749,0.0,0.0,0.0,0.0,2.8086,2.8526,2.8707,2.8535,0.0,0.0,0.0,0.0,0.0,0.0,0.0,2.7535,2.8625,2.9597,3.0042,2.9501,2.8839,2.8292,2.7988,2.761,2.7082,0.0,2.7514,2.7591,2.849,2.8969,2.8441,2.9611,3.0492,3.0275,3.1151,3.2103,3.2758,3.316,3.3534,3.4024,3.4509,3.475,3.4504,3.391,3.3071,3.2068,3.183,3.1906,3.2227,3.2316,3.2391,4.1465,4.0667,3.7843,3.7418,3.8537,3.857,3.9282,4.048,4.048,4.0496,4.0399,3.9136,3.857,3.8489,3.7226,0.0,3.857,3.857,3.9313,4.0609,4.1304,4.1629,4.1678,4.1678,4.1352,4.0753,3.9945,3.8636,3.69,3.6658,3.5911,3.4629,3.3414,3.3093,3.362,3.3663,3.4288,3.5537,3.6098,3.6689,3.7357,3.7912,3.7908,3.7389,3.6722,3.6083,3.5465,3.4302,3.3605,3.3445,3.1789,3.0816,3.0713,0.0,0.0,0.0,0.0,0.0,0.0,0.0,0.0,0.0,0.0,0.0,0.0,0.0,0.0,0.0,2.9435,0.0,3.0684,2.9697,0.0,0.0,0.0,2.9024,2.9577,3.0227,3.0646,3.0661,0.0,0.0,3.1799,3.2225,3.2195,3.1245,3.0342,2.978,2.971,2.9737,2.9882,3.005,3.0667,3.1007,3.0793,3.1818,3.2866,3.34,3.4251,3.4597,3.4589,3.5064,3.5728,3.5999,3.6155,3.6271,3.688,3.6741,3.6206,3.3659,3.3211,3.3407,3.4066,3.4252,3.4456,4.1938,4.1661,4.0292,3.9852,3.9978,4.0009,4.0204,4.0496,4.0496,4.0496,4.048,4.0139,4.0009,3.9993,3.9653,3.9671,3.9994,3.9994,4.0479,4.1321,4.1515,4.1872,4.2359,4.2359,4.2281,4.2059,4.0912,4.0103,3.9561,3.7969,3.7011,3.6658,3.5809,3.5241,3.4956,3.4942,3.5581,3.6838,3.6997,3.7342,3.7951,3.813,3.813,3.7966,3.7389,3.6751,3.6098,3.5378,3.4491,3.3561,3.3067,3.2588,3.2047,3.0844,0.0,0.0,0.0,0.0,0.0,0.0,0.0,0.0,0.0,2.755,2.7667,0.0,2.8942,0.0,3.1163,3.1873,3.2018,3.1776,0.0,0.0,3.1658,3.1611,3.1767,3.2365,3.2771,3.2756,3.3291,3.3856,3.4402,3.4588,3.4709,3.4693,3.2859,3.1264,3.0662,3.1302,3.1919,3.2043,3.2945,3.3451,3.295,3.3487,3.4499,3.5506,3.5845,3.6052,3.6305,3.6504,3.6657,3.6759,3.6787,3.6857,3.6964,3.6978,3.6797,3.6139,3.5992,3.6045,3.6258,3.6245,3.6336,4.2675,4.2643,4.2054,4.1726,4.1526,4.1157,4.1175,4.1436,4.1437,4.1437,4.1419,4.1127,4.0803,4.0496,4.0496,4.0658,4.0996,4.0997,4.1355,4.2035,4.2051,4.2246,4.2602,4.2602,4.2602,4.2571,4.1836,4.1199,4.0546,3.9063,3.8035,3.7394,3.6676,3.6286,3.6231,3.5956,3.6304,3.7269,3.7578,3.7868,3.8188,3.8202,3.8202,3.8188,3.7622,3.711,3.6733,3.6127,3.5346,3.4404,3.4068,3.3601,3.2979,3.199,3.1192,0.0,0.0,0.0,0.0,0.0,0.0,0.0,0.0,0.0,0.0,0.0,3.0074,3.1352,3.2106,3.2497,3.2497,3.2497,3.2629,3.2904,3.3195,3.3454,3.3746,3.4373,3.475,3.475,3.5038,3.5386,3.5752,3.5796,3.5891,3.6114,3.5146,3.4108,3.3354,3.3729,3.415,3.4288,3.5114,3.5738,3.5417,3.5697,3.616,3.677,3.7021,3.7078,3.713,3.7206,3.7206,3.7037,3.6978,3.6978,3.6978,3.6978,3.6978,3.6978,3.6978,3.6978,3.6978,3.6978,3.6978,4.3417,4.3402,4.3221,4.3083,4.2881,4.2093,4.2098,4.2602,4.2602,4.2602,4.257,4.1986,4.137,4.0772,4.0756,4.1127,4.171,4.1726,4.2051,4.2586,4.2602,4.2602,4.2602,4.2602,4.2602,4.2602,4.2602,4.1996,4.0865,4.0104,3.9079,3.7785,3.7037,3.6914,3.7375,3.6838,3.682,3.7418,3.7922,3.8202,3.8202,3.8202,3.8202,3.8188,3.7709,3.7371,3.7269,3.6751,3.6159,3.5537,3.4951,3.4387,3.3779,3.3108,3.2222,0.0,3.0873,0.0,0.0,0.0,0.0,0.0,0.0,0.0,0.0,3.0859,3.1468,3.2627,3.2816,3.2903,3.2975,3.2975,3.3224,3.3792,3.4344,3.4878,3.5462,3.6057,3.6446,3.6414,3.6504,3.653,3.6562,3.653,3.6544,3.6631,3.6943,3.6881,3.6396,3.6186,3.6248,3.6494,3.7005,3.7281,3.7534,3.7591,3.7496,3.7577,3.7663,3.7739,3.7366,3.7476,3.7495,3.7187,3.7095,3.7076,3.7056,3.7076,3.709,3.7095,3.7109,3.7076,3.6998,3.6978,3.6978,4.3568,4.3553,4.3402,4.3327,4.325,4.2845,4.2645,4.2602,4.2602,4.2602,4.2586,4.2472,4.2343,4.2198,4.2197,4.2294,4.2408,4.2408,4.2489,4.2602,4.2602,4.2602,4.2602,4.2602,4.2602,4.2602,4.2602,4.2474,4.2203,4.1483,4.0678,3.9824,3.9105,3.8512,3.8051,0.0,0.0,0.0,3.8144,3.8202,3.8202,3.8202,3.8202,3.8202,3.8101,0.0,3.7331,3.7186,3.6791,3.617,3.6011,0.0,0.0,0.0,0.0,0.0,0.0,0.0,0.0,0.0,0.0,0.0,3.1844,3.1671,3.1409,3.2311,3.3255,3.3976,3.4532,3.5055,3.5514,3.5572,3.5633,3.5764,3.5848,3.5978,3.6141,3.6722,3.7114,3.711,3.7535,3.7825,3.7796,3.7839,3.7825,3.7767,3.7955,3.7966,3.7784,3.7577,3.7616,3.7813,3.7796,3.7809,3.7896,3.7739,3.761,3.7605,3.7625,3.7644,3.7553,3.7567,3.7591,3.7476,3.7495,3.749,3.7471,3.7476,3.7438,3.7476,3.7457,3.738,3.7056,3.6978,3.6978,4.4688,0.0,4.4612,4.4337,0.0,4.3654,4.324,4.2744,4.2634,4.2602,4.2602,4.2602,4.2602,4.2602,4.2602,4.2602,4.2602,4.2602,4.2602,4.2602,4.2602,4.2602,4.2602,4.2602,4.2602,4.2602,4.2602,4.2602,4.2571,4.1852,4.1327,4.0927,4.0209,3.9466,3.8767,3.8375,3.8202,3.8202,3.8202,3.8202,3.8202,3.8202,3.8202,3.8202,0.0,0.0,0.0,0.0,0.0,0.0,0.0,0.0,0.0,0.0,0.0,3.3981,3.334,3.2991,3.3022,3.3265,3.3585,3.3891,3.4194,3.3976,3.3004,3.4138,3.5009,3.5311,3.5633,3.597,3.6257,3.6286,3.6446,3.6751,3.6794,3.691,3.7215,3.7516,3.7738,3.7748,3.8014,3.8202,3.8202,3.8202,3.8202,3.8202,3.8202,3.8202,3.8183,3.8108,3.8104,3.8183,3.8142,3.7991,3.791,3.7815,3.7701,3.7663,3.7701,3.7701,3.761,3.7682,3.7734,3.7625,3.7515,3.7457,3.7438,3.7394,3.7303,3.7303,3.7303,3.7264,3.7037,3.7076,3.7109,4.5813,4.5813,4.5813,4.5388,4.4703,4.4516,4.4,4.3242,0.0,0.0,0.0,4.2732,4.2797,4.2812,4.2797,4.278,4.2796,4.2651,4.2602,4.2602,4.2602,4.2602,4.2602,4.2602,4.2602,4.2602,4.2602,4.2602,4.2571,4.1981,4.1624,4.1443,4.0758,3.9947,3.9121,3.8505,3.8202,3.8202,3.8202,3.8202,3.8202,3.8202,3.8202,3.8202,3.8202,3.8202,3.8202,3.8202,3.797,3.7506,3.7462,3.7157,3.6533,3.6014,3.5447,3.4774,3.4269,3.3995,3.3995,3.4457,3.4965,3.5537,3.6127,3.5978,3.4818,3.5706,3.6359,3.6457,3.6472,3.6533,3.6635,3.6649,3.6849,3.74,3.7476,3.7647,3.8115,3.8202,3.8173,3.8202,3.8188,3.8202,3.8202,3.8202,3.8202,3.8202,3.8202,3.8202,3.8202,3.8202,3.8165,3.8108,3.8104,3.8066,3.7948,3.7853,3.7796,3.7682,3.7758,3.7796,3.7777,3.7815,3.7834,3.7763,3.7572,3.7515,3.7462,3.7404,3.7192,3.7153,3.7167,3.7134,3.7076,3.7187,3.7245,4.583,4.5813,4.5813,4.5732,4.5601,4.5462,4.5175,4.4691,4.3232,4.2602,4.2635,4.3266,4.3541,4.3541,4.3541,4.3541,4.3492,4.2877,4.2602,4.2602,4.2602,4.2602,4.2602,4.2602,4.2602,4.2602,4.2602,4.2602,4.2587,4.2476,4.2142,4.1492,4.0758,3.9718,3.8468,3.824,3.8202,3.8202,3.8202,3.8202,3.8202,3.8202,3.8202,3.8202,3.8202,3.8202,3.8202,3.8202,3.8159,3.8086,3.8067,3.7796,3.7215,3.7052,3.6736,3.6094,3.5952,3.5909,3.5894,3.5996,3.6065,3.6199,3.6794,3.682,3.6141,3.6199,3.653,3.7085,3.7157,3.7371,3.7854,3.7883,3.7897,3.8043,3.8057,3.8115,3.8202,3.8202,3.8202,3.8202,3.8202,3.8202,3.8202,3.8202,3.8202,3.8202,3.8202,3.8202,3.8202,3.8202,3.8142,3.7986,3.7948,3.7929,3.791,3.7758,3.7739,3.7849,3.7758,3.7801,3.8033,3.7986,3.7967,3.8071,3.8014,3.7995,3.7995,3.8052,3.7844,3.7668,3.761,3.7572,3.7264,3.7264,3.7303,4.699,4.699,4.699,4.6758,4.6361,4.5839,4.5452,4.5146,4.4333,4.3896,4.3848,4.4156,4.4302,4.4302,4.4302,4.4302,4.4285,4.3929,4.3784,4.3784,4.3784,4.38,4.38,4.38,4.3573,4.3233,4.3201,4.2991,4.2635,4.2602,4.2429,4.2029,4.0961,3.9859,3.8844,3.8393,3.8202,3.8202,3.8202,3.8202,3.8202,3.8202,3.8202,3.8202,3.8202,3.8202,3.8202,3.8202,3.8202,3.8202,3.8202,3.8072,3.781,3.7491,3.7153,3.6867,3.6504,3.6443,3.6838,3.7157,3.7331,3.7331,3.7622,3.7665,3.7375,3.7331,3.7462,3.7748,3.7796,3.7897,3.8173,3.8202,3.8202,3.8202,3.8202,3.8202,3.8202,3.8202,3.8202,3.8202,3.8202,3.8202,3.8202,3.8202,3.8202,3.8202,3.8202,3.8202,3.8202,3.8202,3.8165,3.8085,3.8081,3.8066,3.8066,3.7991,3.7972,3.8047,3.7991,3.7995,3.8183,3.8123,3.8104,3.8165,3.8123,3.7991,3.7915,3.7768,3.7649,3.7476,3.7419,3.7322,3.7187,3.7226,3.7264,4.8001,4.8001,4.8001,4.7669,4.709,4.6368,4.5993,4.5815,4.5702,4.5538,4.534,4.5128,4.5014,4.5031,4.5014,4.5014,4.4998,4.4852,4.4787,4.4804,4.4804,4.4804,4.4804,4.4804,4.4512,4.3978,4.3945,4.3638,4.3152,4.3104,4.2992,4.2751,4.1699,4.0609,3.9562,3.8974,3.8554,3.8235,3.8202,3.8202,3.8202,3.8202,3.8202,3.8202,3.8202,3.8202,3.8202,3.8202,3.8202,3.8202,3.8202,3.8202,3.8188,3.7767,3.7506,3.7444,3.7027,3.6954,3.7444,3.7926,3.8202,3.8202,3.8202,3.8202,3.8202,3.8202,3.8202,3.8202,3.8173,3.8188,3.8202,3.8202,3.8202,3.8202,3.8202,3.8202,3.8202,3.8202,3.8202,3.8202,3.8202,3.8202,3.8202,3.8202,3.8202,3.8202,3.8202,3.8202,3.8202,3.8202,3.8202,3.8202,3.8202,3.8202,3.8202,3.8202,3.8183,3.8202,3.8127,3.8127,3.8165,3.8165,3.8127,3.8104,3.8005,3.7872,3.7701,3.7572,3.7457,3.7361,3.7375,3.7278,3.7226,3.7284,3.7284,4.8001,4.8001,4.8001,4.7968,4.7835,4.7589,4.7457,4.7424,4.7324,4.7173,4.6841,4.6069,4.571,4.571,4.5693,4.571,4.5662,4.5079,4.4836,4.4852,4.4804,4.4804,4.4868,4.4836,4.4771,4.469,4.469,4.4609,4.448,4.4512,4.4231,4.3676,4.3454,4.2297,4.0534,4.0236,3.9543,3.8235,3.8202,3.8202,3.8202,3.8202,3.8202,3.8202,3.8202,3.8202,3.8221,3.8202,3.8202,3.8202,3.8202,3.8202,3.8188,3.8144,3.8115,3.8101,3.8043,3.8072,3.8115,3.8173,3.8202,3.8202,3.8202,3.8202,3.8202,3.8202,3.8202,3.8202,3.8202,3.8202,3.8202,3.8202,3.8202,3.8202,3.8202,3.8202,3.8202,3.8202,3.8202,3.8202,3.8202,3.8202,3.8202,3.8202,3.8202,3.8202,3.8202,3.8202,3.8202,3.8202,3.8202,3.8202,3.8202,3.8202,3.8202,3.8202,3.8202,3.8183,3.8047,3.8047,3.8142,3.8066,3.7929,3.8028,3.7967,3.791,3.7872,3.7853,3.7815,3.7682,3.7663,3.7734,3.7605,3.7534,3.7419,4.8001,4.8001,4.8001,4.8001,4.7984,4.7902,4.7869,4.7853,4.7688,4.7571,4.7438,4.7008,4.6692,4.6456,4.6456,4.6439,4.644,4.6164,4.6034,4.6035,4.6051,4.6018,4.6051,4.6034,4.5824,4.5419,4.5386,4.5209,4.4852,4.4804,4.4423,4.3798,4.3783,4.3108,4.1777,4.1434,4.0945,4.0289,3.9809,3.9571,3.9454,3.8779,3.8427,3.8538,3.846,3.8371,3.8366,3.8258,3.8202,3.8202,3.8202,3.8202,3.8202,3.8202,3.8202,3.8202,3.8202,3.8202,3.8202,3.8202,3.8202,3.8202,3.8202,3.8202,3.8202,3.8202,3.8202,3.8202,3.8202,3.8202,3.8202,3.8202,3.8202,3.8202,3.8202,3.8202,3.8202,3.8202,3.8202,3.8202,3.8202,3.8202,3.8202,3.8202,3.8202,3.8202,3.8202,3.8202,3.8202,3.8202,3.8202,3.8202,3.8202,3.8202,3.8202,3.8202,3.8202,3.8183,3.8127,3.8127,3.8146,3.8146,3.8085,3.8066,3.8047,3.8005,3.7891,3.7891,3.7872,3.7815,3.7739,3.7715,3.7625,3.7591,3.7476,4.8001,4.8001,4.8001,4.8001,4.8001,4.8001,4.8001,4.7984,4.7836,4.7737,4.7688,4.7604,4.7386,4.7098,4.708,4.7013,4.6911,4.6961,4.6944,4.6911,4.6893,4.6893,4.6893,4.6893,4.6634,4.6164,4.6099,4.5874,4.5502,4.5536,4.527,4.4817,4.4836,4.4348,4.3423,4.2981,4.2435,4.167,4.1073,4.0699,4.0388,3.9506,3.9061,3.9111,3.8848,3.87,3.8685,3.8379,3.8202,3.8202,3.8202,3.8202,3.8202,3.8202,3.8202,3.8202,3.8202,3.8202,3.8202,3.8202,3.8202,3.8202,3.8202,3.8202,3.8202,3.8202,3.8202,3.8202,3.8202,3.8202,3.8202,3.8202,3.8202,3.8202,3.8202,3.8202,3.8202,3.8202,3.8202,3.8202,3.8202,3.8202,3.8202,3.8202,3.8202,3.8202,3.8202,3.8202,3.8202,3.8202,3.8202,3.8202,3.8202,3.8202,3.8202,3.8202,3.8202,3.8202,3.8183,3.8183,3.8202,3.8202,3.816,3.8047,3.8104,3.8085,3.7948,3.7891,3.7891,3.7758,3.7701,3.7663,3.7591,3.7591,3.7529,4.8001,4.8001,4.8001,4.8001,4.8001,4.8001,4.8001,4.8001,4.7984,4.7886,4.7721,4.7721,4.7621,4.747,4.7453,4.7251,4.6978,4.7098,4.7098,4.6961,4.6927,4.6927,4.6893,4.6893,4.6894,4.6815,4.6799,4.6867,4.7004,4.7222,4.7355,4.7239,4.7124,4.6543,4.5297,4.4994,4.3945,4.2041,4.1641,4.1217,4.0573,4.0383,4.0247,4.0071,3.9489,3.9199,3.914,3.8551,3.8246,3.8231,3.8289,3.826,3.8246,3.8246,3.8289,3.8246,3.8231,3.8217,3.8217,3.8202,3.8202,3.8202,3.826,3.8231,3.8304,3.8362,3.8391,3.826,3.8376,3.8347,3.8333,3.8275,3.8246,3.8289,3.8246,3.826,3.8275,3.8405,3.8231,3.8289,3.8318,3.8275,3.8231,3.8202,3.8202,3.8202,3.8202,3.8202,3.8202,3.8202,3.8202,3.8202,3.8202,3.8202,3.8202,3.8202,3.8202,3.8202,3.8202,3.8202,3.8202,3.8183,3.8104,3.8024,3.801,3.7991,3.7929,3.791,3.7929,3.7872,3.7853,3.7796,3.7701,3.761,3.7515,4.8001,4.8001,4.8001,4.8001,4.8001,4.8001,4.8001,4.8001,4.8001,4.7968,4.7902,4.7902,4.7787,4.7654,4.777,4.7637,4.7302,4.7369,4.7352,4.7285,4.7268,4.7301,4.7285,4.7284,4.7268,4.7285,4.7268,4.7302,4.7402,4.747,4.7487,4.7487,4.7487,4.7138,4.6486,4.5603,4.4617,4.3675,4.2668,4.2006,4.1852,4.1735,4.165,4.1516,4.0533,3.9979,3.9964,3.9615,3.9407,3.9407,3.9407,3.9407,3.9407,3.9407,3.9233,3.8899,3.8841,3.8652,3.8275,3.8202,3.8202,3.8231,3.8609,3.8841,3.8899,3.9175,3.9407,3.9392,3.9407,3.9407,3.9247,3.871,3.8391,3.8754,3.8841,3.9,3.932,3.9421,3.9421,3.9363,3.9102,3.8696,3.8376,3.8217,3.8202,3.8202,3.8217,3.8246,3.8217,3.8217,3.8275,3.8217,3.8202,3.8202,3.8202,3.8202,3.8202,3.8202,3.8202,3.8202,3.8202,3.8202,3.8142,3.8137,3.8081,3.8221,3.8293,3.8336,3.8279,3.8197,3.8178,3.8107,3.7815,3.7777,3.7585,4.8001,4.8001,4.8001,4.8001,4.8001,4.8001,4.8001,4.8001,4.8001,4.8001,4.8001,4.8001,4.7902,4.7836,4.7935,4.7902,4.7671,4.7604,4.7537,4.752,4.7487,4.7487,4.7487,4.7487,4.7487,4.7504,4.7554,4.7571,4.7587,4.7621,4.7654,4.7671,4.7654,4.7604,4.7319,4.6496,4.5737,4.4912,4.3862,4.315,4.2708,4.2459,4.2366,4.2193,4.1408,4.084,4.0616,4.0299,4.0104,4.0104,4.0104,4.0104,4.0104,4.0104,3.9929,3.9552,3.9479,3.9305,3.8913,3.8812,3.8826,3.8841,3.9204,3.9494,3.9523,3.9857,4.006,4.0104,4.0104,4.0104,3.9944,3.932,3.9015,3.9407,3.9479,3.9654,4.0046,4.0075,4.006,3.9987,3.9712,3.9291,3.8928,3.8855,3.887,3.8812,3.8797,3.8812,3.8812,3.8812,3.8812,3.8826,3.8899,3.8928,3.8986,3.9059,3.8551,3.8434,3.8376,3.8333,3.8347,3.8318,3.8304,3.8289,3.8387,3.858,3.871,3.8768,3.8745,3.8658,3.8697,3.868,3.8344,3.796,3.7809,4.8001,4.8001,4.8001,4.8001,4.8001,4.8001,4.8001,4.8001,4.8001,4.8001,4.8001,4.8001,4.7984,4.7984,4.7984,4.7984,4.7935,4.7787,4.7654,4.7554,4.7537,4.7537,4.7554,4.7554,4.7554,4.7554,4.7654,4.7721,4.7721,4.7853,4.7952,4.7968,4.7935,4.7886,4.7968,4.7588,4.6879,4.5615,4.5066,4.4197,4.2688,4.252,4.2392,4.2175,4.2038,4.1718,4.114,4.0539,4.0292,4.0249,4.0234,4.0167,4.0278,4.0278,4.0176,4.0147,4.0104,4.0104,4.0017,3.9944,3.9886,3.9915,4.006,4.0118,4.0133,4.0234,4.0321,4.035,4.0307,4.0234,4.0278,4.0191,4.0104,4.0089,4.0104,4.0162,4.0234,4.0176,4.0133,4.0176,4.0133,4.0123,4.006,3.9886,3.9813,3.9828,3.9857,3.9842,3.9784,3.9784,3.9987,3.9973,3.9784,3.9625,3.9842,4.0002,3.9276,3.8696,3.8638,3.858,3.871,3.8739,3.8797,3.8793,3.903,3.9233,3.9436,3.9489,3.9508,3.9439,3.9409,3.9196,3.8823,3.8456,3.817,4.8001,4.8001,4.8001,4.8001,4.8001,4.8001,4.8001,4.8017,4.8001,4.8001,4.8001,4.8001,4.8001,4.8001,4.8001,4.8001,4.8001,4.7935,4.7886,4.7836,4.7853,4.7836,4.7836,4.7836,4.7836,4.7853,4.7902,4.7919,4.7902,4.7968,4.8001,4.7984,4.7869,4.7803,4.777,4.7032,4.6271,4.5919,4.5153,4.4266,4.3467,4.3304,4.2935,4.2372,4.2304,4.214,4.1808,4.1584,4.1482,4.1439,4.1468,4.1468,4.1453,4.1468,4.125,4.0844,4.0786,4.0554,4.0147,4.0118,4.0147,4.0205,4.0525,4.0757,4.0858,4.1192,4.1395,4.1439,4.1468,4.1468,4.1468,4.1482,4.125,4.0849,4.0786,4.0974,4.13,4.143,4.125,4.0873,4.0786,4.0597,4.0249,4.0147,4.022,4.0205,4.0191,4.0176,4.0147,4.0249,4.0089,4.0104,4.0104,4.0278,4.0408,4.051,4.0133,3.961,3.9392,3.9117,3.9175,3.9233,3.9276,3.9446,3.9663,3.9876,4.0098,4.0184,4.018,3.996,3.9708,3.9478,3.9228,3.8952,3.8669,4.8564,4.8796,4.8829,4.8812,4.8829,4.8829,4.8829,4.8812,4.8829,4.868,4.8465,4.8415,4.8233,4.805,4.8001,4.8001,4.8001,4.8001,4.8001,4.8001,4.8001,4.8001,4.8001,4.8001,4.8001,4.8001,4.8001,4.8001,4.8001,4.8001,4.8001,4.7968,4.7869,4.782,4.7754,4.7066,4.6585,4.6271,4.559,4.4887,4.4343,4.4113,4.3639,4.289,4.2729,4.2535,4.2154,4.2092,4.2092,4.2092,4.2092,4.2092,4.2092,4.2049,4.1903,4.1584,4.1453,4.1279,4.0887,4.0916,4.0829,4.0916,4.1236,4.1453,4.1541,4.1918,4.2078,4.2092,4.2049,4.2092,4.2063,4.2078,4.1889,4.1541,4.1468,4.1657,4.202,4.2092,4.1932,4.157,4.1468,4.125,4.0995,4.0844,4.0844,4.0829,4.0829,4.0829,4.0829,4.0887,4.0815,4.0815,4.0989,4.1047,4.0931,4.0931,4.0916,4.0612,4.0321,3.9987,3.9799,3.9799,3.9842,4.0146,4.0407,4.0582,4.0778,4.0749,4.0705,4.0353,4.0122,4.0131,4.0024,3.9526,3.9233,4.9557,5.017,5.0187,5.0087,5.0087,5.0071,5.0021,5.012,5.0104,4.9706,4.9243,4.9177,4.8829,4.8299,4.8365,4.8315,4.8084,4.815,4.81,4.8034,4.8001,4.8001,4.8001,4.8001,4.8001,4.8001,4.8001,4.8001,4.8001,4.8001,4.8001,4.8001,4.7984,4.7984,4.7919,4.777,4.7286,4.6756,4.6442,4.5823,4.4943,4.4849,4.4377,4.3442,4.3364,4.3041,4.2412,4.216,4.2092,4.2092,4.2092,4.2092,4.2092,4.2092,4.2063,4.2005,4.2063,4.202,4.2034,4.1874,4.1889,4.1889,4.1918,4.2092,4.202,4.2034,4.2092,4.2092,4.2092,4.2092,4.2092,4.2092,4.2063,4.2078,4.1976,4.202,4.2078,4.2092,4.2034,4.2034,4.2078,4.2049,4.1903,4.1918,4.1932,4.1932,4.1889,4.1816,4.1831,4.1744,4.1976,4.1918,4.17,4.1642,4.1468,4.1468,4.1468,4.1337,4.1105,4.0804,4.0488,4.0454,4.0437,4.0764,4.0952,4.1167,4.1258,4.1161,4.1079,4.0883,4.0829,4.0986,4.0668,4.0097,3.9837,5.0021,5.0203,5.0203,5.0203,5.0203,5.0203,5.022,5.0203,5.0236,5.0153,4.9922,4.9905,4.979,4.9607,4.9557,4.9342,4.8928,4.8796,4.8481,4.8067,4.8001,4.8001,4.8001,4.8001,4.8001,4.8001,4.8001,4.8001,4.8001,4.8001,4.8001,4.8001,4.8001,4.8001,4.7968,4.7803,4.7621,4.7387,4.7098,4.6547,4.5805,4.5533,4.5055,4.4282,4.4186,4.3776,4.3016,4.2392,4.2092,4.2092,4.2092,4.2092,4.2092,4.2092,4.2092,4.2092,4.2092,4.2092,4.2092,4.2092,4.2092,4.2092,4.2092,4.2092,4.2092,4.2092,4.2092,4.2092,4.2092,4.2092,4.2092,4.2092,4.2092,4.2092,4.2092,4.2092,4.2092,4.2092,4.2092,4.2092,4.2092,4.2092,4.2092,4.2092,4.2092,4.2092,4.214,4.2113,4.2113,4.2222,4.2284,4.2133,4.1976,4.202,4.202,4.202,4.2005,4.1947,4.1796,4.1612,4.135,4.1198,4.1167,4.127,4.1189,4.1334,4.1364,4.1295,4.1283,4.1135,4.1057,4.0916,4.0837,4.047,4.0414,5.0833,5.1131,5.1131,5.1131,5.1131,5.1131,5.1115,5.1131,5.1115,5.0916,5.0734,5.0667,5.0502,5.0237,5.0187,4.9971,4.959,4.9557,4.9326,4.9028,4.8978,4.863,4.8183,4.8001,4.8001,4.8001,4.8001,4.8001,4.8001,4.8001,4.8001,4.8001,4.8001,4.8001,4.7984,4.7803,4.7671,4.7554,4.7336,4.691,4.6391,4.6283,4.5769,4.5184,4.4965,4.4643,4.3858,4.3359,4.285,4.2304,4.2092,4.2092,4.2092,4.2092,4.2092,4.2092,4.2092,4.2092,4.2092,4.2092,4.2092,4.2092,4.2092,4.2092,4.2092,4.2092,4.2092,4.2092,4.2092,4.2092,4.2092,4.2092,4.2092,4.2092,4.2092,4.2092,4.2092,4.2092,4.2092,4.2092,4.2092,4.2092,4.2092,4.2113,4.2113,4.216,4.2479,4.2345,4.2236,4.2386,4.2427,4.2216,4.2092,4.2092,4.2092,4.2092,4.2092,4.2078,4.2016,4.1918,4.1814,4.1633,4.1563,4.1485,4.1444,4.1375,4.1297,4.1191,4.1022,4.0901,4.0866,4.0845,4.0766,4.0702,4.0702,5.1778,5.2391,5.2391,5.2391,5.2325,5.2375,5.2242,5.2342,5.2259,5.1944,5.1497,5.1414,5.1115,5.0418,5.0717,5.0436,5.0319,5.0302,5.0203,5.0054,4.9922,4.9441,4.8564,4.8315,4.815,4.8034,4.8001,4.8001,4.8001,4.8001,4.8001,4.8001,4.8001,4.8001,4.7984,4.782,4.7671,4.752,4.7352,4.7115,4.6842,4.6755,4.6425,4.5931,4.5588,4.5295,4.4756,4.4377,4.3795,4.2433,4.2345,4.2494,4.2453,4.2392,4.231,4.231,4.2331,4.2284,4.2113,4.2092,4.2092,4.2092,4.2092,4.2092,4.2092,4.2092,4.216,4.2351,4.2222,4.2392,4.2561,4.2453,4.2555,4.2622,4.2494,4.2407,4.2345,4.2284,4.2216,4.2169,4.216,4.2345,4.2242,4.2304,4.2427,4.295,4.3036,4.2769,4.2561,4.2514,4.2412,4.2169,4.2092,4.2092,4.2092,4.2092,4.2092,4.2092,4.1995,4.1897,4.1877,4.1758,4.1717,4.1612,4.1276,4.1107,4.0993,4.0887,4.0773,4.0766,4.0773,4.0766,4.0702,4.0702,4.0702,5.2259,5.2391,5.2391,5.2391,5.2391,5.2391,5.2391,5.2391,5.2391,5.2275,5.2176,5.2143,5.2027,5.186,5.1778,5.1646,5.1116,5.1033,5.0767,5.022,5.0203,5.0087,4.9574,4.9177,4.8597,4.8249,4.8034,4.8017,4.8034,4.805,4.8001,4.8001,4.8001,4.8001,4.7984,4.7952,4.7787,4.7537,4.7453,4.7251,4.6978,4.6911,4.6807,4.653,4.6054,4.5679,4.5369,4.4831,4.4354,4.4086,4.3989,4.397,4.3834,4.3853,4.358,4.316,4.3021,4.2789,4.2284,4.2236,4.2133,4.2242,4.229,4.2092,4.2107,4.2181,4.2479,4.2835,4.3041,4.328,4.3678,4.3931,4.3815,4.3776,4.3815,4.3853,4.3853,4.3398,4.285,4.2581,4.3175,4.3737,4.318,4.3595,4.3717,4.3853,4.3639,4.3284,4.3061,4.2875,4.2668,4.2555,4.2366,4.2351,4.2092,4.2092,4.2092,4.2092,4.1995,4.1918,4.1897,4.1696,4.1577,4.1311,4.0965,4.0845,4.0908,4.0795,4.0723,4.0723,4.0702,4.0702,4.0702,4.0702,4.0702,5.2391,5.2391,5.2391,5.2391,5.2391,5.2391,5.2391,5.2391,5.2391,5.2391,5.2391,5.2391,5.2391,5.2391,5.2391,5.2143,5.1911,5.1811,5.1629,5.1313,5.1247,5.1048,5.0684,5.0303,4.9756,4.9094,4.8663,4.8531,4.8448,4.8199,4.8001,4.8001,4.8001,4.8001,4.8001,4.8001,4.7836,4.7621,4.752,4.7352,4.7098,4.6944,4.6893,4.6876,4.6495,4.625,4.6197,4.5911,4.5694,4.5624,4.5588,4.5221,4.4605,4.451,4.4263,4.3974,4.3858,4.3717,4.3319,4.3215,4.326,4.3195,4.32,4.32,4.3215,4.32,4.3379,4.3737,4.3892,4.4086,4.4434,4.4472,4.451,4.4491,4.451,4.451,4.445,4.4109,4.3737,4.3438,4.397,4.4128,4.4205,4.4491,4.4453,4.432,4.4778,4.4479,4.4151,4.3916,4.3482,4.324,4.291,4.2602,4.2222,4.2092,4.2092,4.2092,4.2071,4.2016,4.1995,4.1696,4.1395,4.1184,4.1071,4.0972,4.0972,4.0837,4.0723,4.0702,4.0702,4.0702,4.0702,4.0702,4.0702,5.2391,5.2391,5.2391,5.2391,5.2391,5.2391,5.2391,5.2391,5.2391,5.2391,5.2391,5.2391,5.2391,5.2391,5.2391,5.2391,5.2358,5.2342,5.2176,5.2159,5.2143,5.1878,5.153,5.1331,5.1099,5.0468,4.9657,4.9326,4.9077,4.8597,4.8332,4.8199,4.8034,4.8017,4.8001,4.7984,4.7886,4.7688,4.7554,4.7403,4.7183,4.6996,4.6911,4.6876,4.6842,4.679,4.6772,4.672,4.679,4.6893,4.6893,4.6179,4.5313,4.4868,4.4737,4.4737,4.468,4.451,4.4263,4.4301,4.4339,4.4491,4.4434,4.4434,4.4377,4.4301,4.4415,4.4662,4.4831,4.4983,4.4887,4.5076,4.5036,4.498,4.4924,4.4884,4.4868,4.4868,4.4831,4.445,4.4831,4.5132,4.4983,4.5039,4.4924,4.4924,4.5371,4.559,4.5224,4.4737,4.4151,4.3799,4.3423,4.3101,4.2729,4.2092,4.2092,4.2092,4.2092,4.2051,4.2036,4.1877,4.1598,4.1451,4.1346,4.1198,4.1036,4.0908,4.0816,4.0744,4.0702,4.0702,4.0702,4.0702,4.0702,5.2391,5.2391,5.2391,5.2391,5.2391,5.2391,5.2391,5.2391,5.2391,5.2391,5.2391,5.2391,5.2391,5.2391,5.2391,5.2391,5.2391,5.2391,5.2391,5.2391,5.2391,5.2226,5.2159,5.206,5.201,5.1694,5.08,5.0104,4.9839,4.9309,4.8945,4.8812,4.8332,4.8084,4.81,4.7984,4.7919,4.7737,4.7587,4.7403,4.7234,4.703,4.6893,4.6893,4.6893,4.6893,4.6893,4.6893,4.6893,4.6893,4.6893,4.6738,4.6425,4.6321,4.6038,4.5642,4.5497,4.5313,4.4887,4.4624,4.4548,4.4491,4.4662,4.4624,4.4605,4.4643,4.5036,4.5497,4.6018,4.6409,4.6512,4.6268,4.6425,4.6426,4.6321,4.6337,4.6338,4.6232,4.5821,4.5107,4.5658,4.6179,4.5877,4.5751,4.5859,4.5769,4.5877,4.6003,4.5769,4.5132,4.4438,4.4132,4.3935,4.3624,4.3304,4.252,4.2092,4.2092,4.2071,4.1995,4.1995,4.2016,4.1897,4.1654,4.1444,4.1262,4.11,4.0972,4.0845,4.0744,4.0723,4.0702,4.0702,4.0702,4.0702,5.2391,5.2391,5.2391,5.2391,5.2391,5.2391,5.2391,5.2391,5.2391,5.2391,5.2391,5.2391,5.2391,5.2391,5.2391,5.2391,5.2391,5.2391,5.2391,5.2391,5.2391,5.2391,5.2391,5.2391,5.2391,5.2209,5.1612,5.1048,5.0717,5.0038,4.9707,4.9491,4.8928,4.8564,4.8465,4.8199,4.8018,4.7836,4.7637,4.7453,4.7319,4.7064,4.6911,4.6893,4.6893,4.6893,4.6893,4.6893,4.6893,4.6893,4.6893,4.6893,4.6893,4.6859,4.6738,4.6389,4.6285,4.6179,4.5805,4.5733,4.5803,4.5769,4.5697,4.5733,4.5733,4.5841,4.5859,4.625,4.653,4.6893,4.6842,4.6893,4.6893,4.6893,4.6893,4.6893,4.6893,4.6893,4.6372,4.5731,4.6214,4.6565,4.6514,4.6531,4.679,4.6755,4.6512,4.6356,4.6232,4.5769,4.5113,4.4665,4.44,4.3721,4.3364,4.2688,4.2133,4.2092,4.2071,4.1995,4.1918,4.196,4.1883,4.1717,4.1514,4.1318,4.1078,4.0908,4.0816,4.073,4.0723,4.0702,4.0702,4.0702,4.0702,5.2391,5.2391,5.2391,5.2391,5.2391,5.2391,5.2391,5.2391,5.2391,5.2391,5.2391,5.2391,5.2391,5.2391,5.2391,5.2391,5.2391,5.2391,5.2391,5.2391,5.2391,5.2391,5.2391,5.2391,5.2391,5.2375,5.2275,5.2077,5.1497,5.0783,5.0485,5.022,4.969,4.9292,4.9143,4.8795,4.8398,4.8018,4.7801,4.7616,4.7334,4.7081,4.6893,4.6893,4.6893,4.6893,4.6893,4.6893,4.6893,4.6893,4.6893,4.6893,4.6893,4.6893,4.6893,4.6893,4.6893,4.6893,4.6842,4.679,4.6651,4.6617,4.6824,4.6875,4.6807,4.6635,4.679,4.6893,4.6893,4.6893,4.6893,4.6893,4.6893,4.6893,4.6893,4.6893,4.6893,4.6893,4.6893,4.6686,4.6893,4.6859,4.6739,4.6739,4.6893,4.6893,4.6686,4.6703,4.66,4.6652,4.6127,4.5444,4.4815,4.3877,4.3265,4.2708,4.2263,4.2092,4.2092,4.2036,4.196,4.1883,4.18,4.1702,4.1543,4.1332,4.1093,4.0887,4.0823,4.0773,4.0744,4.0702,4.0702,4.0702,4.0702,5.2391,5.2391,5.2391,5.2391,5.2391,5.2391,5.2391,5.2391,5.2391,5.2391,5.2391,5.2391,5.2391,5.2391,5.2391,5.2391,5.2391,5.2391,5.2391,5.2391,5.2391,5.2391,5.2391,5.2391,5.2391,5.2391,5.2391,5.2375,5.2043,5.1463,5.1198,5.1033,5.0485,5.0003,4.9884,4.9536,4.9233,4.8571,4.8234,4.7768,4.7159,4.6959,4.6911,4.6893,4.6893,4.6893,4.6893,4.6893,4.6893,4.6893,4.6893,4.6893,4.6893,4.6893,4.6893,4.6893,4.6893,4.6893,4.6893,4.6893,4.6893,4.6893,4.6893,4.6893,4.6893,4.6893,4.6893,4.6893,4.6893,4.6893,4.6893,4.6893,4.6893,4.6893,4.6893,4.6893,4.6893,4.6893,4.6893,4.6893,4.6893,4.6893,4.6859,4.6876,4.6893,4.6893,4.6893,4.6893,4.6893,4.6893,4.6893,4.6197,4.5076,4.4109,4.3442,4.285,4.231,4.2092,4.2092,4.2092,4.2016,4.1897,4.1765,4.164,4.1501,4.1332,4.1078,4.0916,4.0866,4.0816,4.0752,4.0723,4.0702,4.0702,4.0702,5.2391,5.2391,5.2391,5.2391,5.2391,5.2391,5.2391,5.2391,5.2391,5.2391,5.2391,5.2391,5.2391,5.2391,5.2391,5.2391,5.2391,5.2391,5.2391,5.2391,5.2391,5.2391,5.2391,5.2391,5.2391,5.2391,5.2391,5.2391,5.2242,5.2144,5.1911,5.1778,5.1231,5.0817,5.0594,5.0161,4.9729,4.9179,4.8627,4.7992,4.7528,4.7153,4.691,4.6893,4.6893,4.6893,4.6893,4.6893,4.6893,4.6893,4.6893,4.6893,4.6893,4.6893,4.6893,4.6893,4.6893,4.6893,4.6893,4.6893,4.6893,4.6893,4.6893,4.6893,4.6893,4.6893,4.6893,4.6893,4.6893,4.6893,4.6893,4.6893,4.6893,4.6893,4.6893,4.6893,4.6893,4.6893,4.6893,4.6893,4.6893,4.6893,4.6893,4.6893,4.6893,4.6893,4.6893,4.6893,4.6893,4.6893,4.6893,4.6807,4.5551,4.4243,4.3698,4.3135,4.2372,4.2092,4.2092,4.2071,4.2051,4.1953,4.1765,4.164,4.1522,4.1318,4.1064,4.0958,4.0916,4.0845,4.0759,4.073,4.0702,4.0702,4.0702,5.2391,5.2391,5.2391,5.2391,5.2391,5.2391,5.2391,5.2391,5.2391,5.2391,5.2391,5.2391,5.2391,5.2391,5.2391,5.2391,5.2391,5.2391,5.2391,5.2391,5.2391,5.2391,5.2391,5.2391,5.2391,5.2391,5.2391,5.2391,5.2391,5.2342,5.2308,5.2375,5.1862,5.1561,5.1325,5.0921,5.0452,4.9898,4.8946,4.8311,4.793,4.7475,4.7135,4.6974,4.6893,4.6893,4.6893,4.6893,4.6893,4.6893,4.6893,4.6893,4.6893,4.6893,4.6893,4.6893,4.6893,4.6893,4.6893,4.6893,4.6893,4.6893,4.6893,4.6893,4.6893,4.6893,4.6893,4.6893,4.6893,4.6893,4.6893,4.6893,4.6893,4.6893,4.6893,4.6893,4.6893,4.6893,4.6893,4.6893,4.6893,4.6893,4.6893,4.6893,4.6893,4.6893,4.6893,4.6893,4.6893,4.6893,4.6669,4.66,4.5551,4.4263,4.3639,4.3115,4.2433,4.2092,4.2092,4.2071,4.2051,4.1918,4.1723,4.1619,4.1564,4.1381,4.1198,4.11,4.0979,4.0845,4.073,4.0723,4.0702,4.0702,4.0702,5.2391,5.2391,5.2391,5.2391,5.2391,5.2391,5.2391,5.2391,5.2391,5.2391,5.2391,5.2391,5.2391,5.2391,5.2391,5.2391,5.2391,5.2391,5.2391,5.2391,5.2391,5.2391,5.2391,5.2391,5.2391,5.2391,5.2391,5.2391,5.2391,5.2391,5.2391,5.2342,5.221,5.2168,5.1995,5.1659,5.1115,5.044,4.9468,4.8743,4.835,4.7943,4.7621,4.7087,4.6942,4.691,4.691,4.6893,4.6893,4.6893,4.6893,4.6893,4.6893,4.6893,4.6893,4.6893,4.6893,4.6893,4.6893,4.6893,4.6893,4.6893,4.6893,4.6893,4.6893,4.6893,4.6893,4.6893,4.6893,4.6893,4.6893,4.6893,4.6893,4.6893,4.6893,4.6893,4.6893,4.6893,4.6893,4.6893,4.6893,4.6893,4.6893,4.6893,4.6893,4.6893,4.6893,4.6893,4.6893,4.6842,4.6407,4.6018,4.5184,4.4224,4.3423,4.283,4.2263,4.2092,4.2092,4.2092,4.2071,4.1918,4.1785,4.1737,4.1689,4.1501,4.136,4.1283,4.1121,4.0837,4.0702,4.0702,4.0702,4.0702,4.0702,5.2391,5.2391,5.2391,5.2391,5.2391,5.2391,5.2391,5.2391,5.2391,5.2391,5.2391,5.2391,5.2391,5.2391,5.2391,5.2391,5.2391,5.2391,5.2391,5.2391,5.2391,5.2391,5.2391,5.2391,5.2391,5.2391,5.2391,5.2391,5.2391,5.2391,5.2391,5.2391,5.2391,5.2357,5.2266,5.2066,5.1581,5.1049,5.0227,4.9534,4.9319,4.8769,4.8267,4.7653,4.7589,4.7297,4.7007,4.691,4.6893,4.6893,4.6893,4.6893,4.6893,4.6893,4.6893,4.6893,4.6893,4.6893,4.6893,4.6893,4.6893,4.6893,4.6893,4.6893,4.6893,4.6893,4.6893,4.6893,4.6893,4.6893,4.6893,4.6893,4.6893,4.6893,4.6893,4.6893,4.6893,4.6893,4.6893,4.6893,4.6893,4.6893,4.6893,4.6893,4.6893,4.6893,4.6893,4.6893,4.6893,4.6824,4.6391,4.5913,4.5147,4.4263,4.3462,4.2789,4.214,4.2092,4.2092,4.2092,4.2092,4.2071,4.1974,4.1897,4.1793,4.1647,4.1522,4.1451,4.1262,4.0923,4.0766,4.0702,4.0702,4.0702,4.0702,5.257,5.2409,5.2391,5.2391,5.2391,5.2391,5.2391,5.2391,5.2391,5.2391,5.2391,5.2391,5.2391,5.2391,5.2391,5.2391,5.2391,5.2391,5.2391,5.2391,5.2391,5.2391,5.2391,5.2391,5.2391,5.2391,5.2391,5.2391,5.2391,5.2391,5.2391,5.2391,5.2391,5.2391,5.232,5.2086,5.1813,5.1518,5.1075,5.0391,5.0178,4.9687,4.9015,4.8367,4.8089,4.7767,4.7313,4.712,4.6893,4.6893,4.6893,4.6893,4.6893,4.6893,4.6893,4.6893,4.6893,4.6893,4.6893,4.6893,4.6893,4.6893,4.6893,4.6893,4.6893,4.6893,4.6893,4.6893,4.6893,4.6893,4.6893,4.6893,4.6893,4.6893,4.6893,4.6893,4.6893,4.6893,4.6893,4.6893,4.6893,4.6893,4.6893,4.6893,4.6893,4.6893,4.6893,4.6893,4.6893,4.6772,4.6495,4.5949,4.535,4.4419,4.3502,4.3016,4.252,4.2092,4.2092,4.2092,4.2092,4.2092,4.2016,4.1841,4.1758,4.1731,4.1627,4.1465,4.122,4.0951,4.0837,4.0723,4.0702,4.0702,4.0702,5.3025,5.2427,5.2446,5.2463,5.248,5.2391,5.2391,5.2391,5.2391,5.2391,5.2391,5.2391,5.2391,5.2391,5.2391,5.2391,5.2391,5.2391,5.2391,5.2391,5.2391,5.2391,5.2391,5.2391,5.2391,5.2391,5.2391,5.2391,5.2391,5.2391,5.2391,5.2391,5.2391,5.2391,5.2373,5.2176,5.2084,5.2048,5.1767,5.1175,5.069,5.041,4.9894,4.915,4.8644,4.8354,4.7751,4.7347,4.7104,4.6926,4.691,4.6927,4.6944,4.6927,4.6927,4.6944,4.6927,4.6893,4.6893,4.6893,4.6893,4.6893,4.6893,4.6893,4.6893,4.6893,4.6893,4.6893,4.6893,4.6893,4.6893,4.6893,4.6893,4.6893,4.6893,4.6893,4.6893,4.6893,4.6893,4.6893,4.6893,4.6893,4.6893,4.6893,4.6893,4.6893,4.6893,4.6893,4.6893,4.6772,4.653,4.5895,4.5295,4.4438,4.3604,4.3304,4.2875,4.2392,4.2092,4.2092,4.2092,4.2092,4.196,4.1806,4.18,4.1829,4.1627,4.1417,4.1234,4.1071,4.0859,4.0766,4.0723,4.0702,4.0702,5.3944,5.3731,5.3715,5.3466,5.3042,5.257,5.2409,5.2391,5.2391,5.2391,5.2391,5.2391,5.2391,5.2391,5.2391,5.2391,5.2391,5.2391,5.2391,5.2391,5.2391,5.2391,5.2391,5.2391,5.2391,5.2391,5.2391,5.2391,5.2391,5.2391,5.2391,5.2391,5.2391,5.2391,5.2354,5.2211,5.2102,5.205,5.1871,5.1629,5.1363,5.1263,5.0861,4.9961,4.9617,4.906,4.8239,4.7819,4.743,4.7091,4.701,4.6996,4.7046,4.703,4.6978,4.7013,4.7013,4.6893,4.6893,4.6893,4.6893,4.6893,4.6893,4.6893,4.6893,4.6893,4.6893,4.6893,4.6893,4.6893,4.6893,4.6893,4.6893,4.6893,4.6893,4.6893,4.6893,4.6893,4.6893,4.6893,4.6893,4.6893,4.6893,4.6893,4.6893,4.6893,4.6893,4.6893,4.6893,4.6807,4.66,4.5823,4.5129,4.4358,4.3698,4.3299,4.2835,4.2284,4.2092,4.2092,4.2092,4.2092,4.2036,4.1939,4.1933,4.1912,4.1731,4.1564,4.1396,4.1206,4.1043,4.088,4.0816,4.0766,4.0702,5.4627,5.4407,5.4424,5.4152,5.3665,5.3025,5.2658,5.2445,5.2391,5.2391,5.2391,5.2391,5.2391,5.2391,5.2391,5.2391,5.2391,5.2391,5.2391,5.2391,5.2391,5.2391,5.2391,5.2391,5.2391,5.2391,5.2391,5.2391,5.2391,5.2391,5.2391,5.2391,5.2391,5.2391,5.2356,5.2283,5.2229,5.2176,5.2087,5.1979,5.1875,5.1771,5.1534,5.0981,5.0517,5.0007,4.9134,4.8479,4.7975,4.752,4.7278,4.7198,4.7233,4.7166,4.7081,4.7115,4.703,4.6911,4.6893,4.6893,4.6893,4.6893,4.6893,4.6893,4.6893,4.6893,4.6893,4.6893,4.6893,4.6893,4.6893,4.6893,4.6893,4.6893,4.6893,4.6893,4.6893,4.6893,4.6893,4.6893,4.6893,4.6893,4.6893,4.6893,4.6893,4.6893,4.6893,4.6859,4.6772,4.66,4.6373,4.5697,4.4946,4.4209,4.3619,4.316,4.2688,4.216,4.2092,4.2092,4.2092,4.2092,4.2092,4.2092,4.2051,4.1974,4.1877,4.1731,4.162,4.1459,4.1297,4.1114,4.0951,4.0816,4.0723,5.5056,5.4501,5.4469,5.4485,5.4328,5.3715,5.3094,5.2517,5.2464,5.2464,5.2446,5.2463,5.2391,5.2391,5.2391,5.2391,5.2391,5.2391,5.2391,5.2391,5.2391,5.2391,5.2391,5.2391,5.2391,5.2391,5.2391,5.2391,5.2391,5.2391,5.2391,5.2391,5.2391,5.2391,5.2391,5.2373,5.2354,5.232,5.2302,5.2194,5.2139,5.2069,5.1913,5.1541,5.1157,5.0744,5.0036,4.9413,4.876,4.827,4.7895,4.765,4.7453,4.7319,4.7251,4.7183,4.703,4.7013,4.6996,4.7013,4.6978,4.6996,4.6961,4.6927,4.6893,4.6893,4.6893,4.6893,4.6893,4.6893,4.6893,4.6893,4.6893,4.6893,4.6893,4.6893,4.6893,4.6893,4.6893,4.6893,4.6893,4.6893,4.6893,4.6893,4.6669,4.6547,4.646,4.6285,4.6197,4.6108,4.5841,4.5478,4.4759,4.4094,4.3541,4.2996,4.2602,4.2113,4.2092,4.2092,4.2092,4.2092,4.2092,4.2092,4.2092,4.2036,4.1974,4.1912,4.185,4.1668,4.136,4.1177,4.0951,4.0795,4.0702,5.6,5.5826,5.5826,5.5549,5.5024,5.4407,5.3992,5.378,5.3349,5.3111,5.3094,5.2605,5.2463,5.2391,5.2391,5.2391,5.2391,5.2391,5.2391,5.2391,5.2391,5.2391,5.2391,5.2391,5.2391,5.2391,5.2391,5.2391,5.2391,5.2391,5.2391,5.2391,5.2391,5.2391,5.2391,5.2391,5.2391,5.2391,5.2391,5.2356,5.2318,5.2284,5.2158,5.1936,5.1783,5.1351,5.0721,5.0324,4.9636,4.8635,4.8388,4.8111,4.7654,4.7504,4.7419,4.7403,4.7336,4.7319,4.7319,4.7319,4.7284,4.7149,4.7115,4.7013,4.6961,4.6911,4.6911,4.6893,4.6893,4.6893,4.6893,4.6893,4.6893,4.6893,4.6893,4.6893,4.6893,4.6893,4.6893,4.6859,4.6859,4.6687,4.6704,4.6582,4.6338,4.6161,4.5931,4.5733,4.5499,4.5353,4.5206,4.4815,4.4243,4.3482,4.322,4.2749,4.2433,4.2133,4.2113,4.2092,4.2092,4.2092,4.2092,4.2092,4.2092,4.2092,4.2071,4.1974,4.1835,4.1549,4.1241,4.11,4.0951,4.0795,4.0702,5.6396,5.6396,5.6396,5.6158,5.5769,5.5373,5.5192,5.5041,5.4216,5.3665,5.3365,5.299,5.2641,5.2409,5.2391,5.2391,5.2391,5.2391,5.2391,5.2391,5.2391,5.2391,5.2391,5.2391,5.2391,5.2391,5.2391,5.2391,5.2391,5.2391,5.2391,5.2391,5.2391,5.2391,5.2391,5.2391,5.2391,5.2391,5.2391,5.2391,5.2391,5.2391,5.2318,5.2247,5.2194,5.1809,5.1375,5.1176,5.0287,4.925,4.9036,4.8445,4.7935,4.7687,4.7537,4.7504,4.747,4.7453,4.7453,4.747,4.7419,4.7335,4.7234,4.7149,4.7047,4.6978,4.6944,4.6893,4.6893,4.6893,4.6893,4.6893,4.6893,4.6893,4.6893,4.6893,4.6893,4.6893,4.6876,4.6824,4.6669,4.6426,4.6285,4.6145,4.5859,4.5442,4.5058,4.4796,4.4552,4.4324,4.4247,4.4017,4.3423,4.2769,4.2602,4.252,4.229,4.2113,4.2113,4.2092,4.2092,4.2092,4.2092,4.2092,4.2092,4.2071,4.2071,4.1856,4.1675,4.1388,4.1156,4.0993,4.0866,4.0773,4.0723,5.6396,5.6396,5.6396,5.6387,5.6383,5.6314,5.63,5.6273,5.5102,5.4168,5.3616,5.3416,5.2956,5.2481,5.2391,5.2391,5.2391,5.2391,5.2391,5.2391,5.2391,5.2391,5.2391,5.2391,5.2391,5.2391,5.2391,5.2391,5.2391,5.2391,5.2391,5.2391,5.2391,5.2391,5.2391,5.2391,5.2391,5.2391,5.2391,5.2391,5.2391,5.2391,5.2391,5.2391,5.2373,5.2307,5.214,5.1711,5.1016,5.0236,4.9574,4.8878,4.8183,4.7836,4.7704,4.7637,4.7621,4.7621,4.7621,4.7621,4.7571,4.7454,4.7319,4.7234,4.7149,4.6996,4.6911,4.6893,4.6893,4.6893,4.6893,4.6893,4.6893,4.6893,4.6893,4.6893,4.6893,4.6893,4.6893,4.6755,4.6354,4.6126,4.5877,4.5715,4.5039,4.4605,4.432,4.4013,4.3658,4.3383,4.3344,4.3265,4.2855,4.2412,4.231,4.2242,4.2181,4.2092,4.2092,4.2092,4.2092,4.2092,4.2092,4.2092,4.2092,4.2051,4.1995,4.1773,4.1549,4.1325,4.1093,4.0923,4.0795,4.073,4.0723,5.6396,5.6396,5.6396,5.6396,5.6396,5.6396,5.6396,5.6387,5.6102,5.5221,5.4216,5.3633,5.3025,5.248,5.2409,5.2391,5.2391,5.2391,5.2391,5.2391,5.2391,5.2391,5.2391,5.2391,5.2391,5.2391,5.2391,5.2391,5.2391,5.2391,5.2391,5.2391,5.2391,5.2391,5.2391,5.2391,5.2391,5.2391,5.2391,5.2391,5.2391,5.2391,5.2391,5.2391,5.2391,5.2391,5.2292,5.2176,5.128,5.0402,5.0104,4.9259,4.8117,4.7968,4.7919,4.7902,4.7853,4.7836,4.782,4.7803,4.777,4.7638,4.7504,4.7352,4.72,4.7013,4.6911,4.6911,4.6893,4.6893,4.6893,4.6893,4.6893,4.6893,4.6893,4.6893,4.6893,4.6893,4.6893,4.6547,4.6141,4.5785,4.5533,4.498,4.432,4.3912,4.3678,4.3344,4.2855,4.2561,4.2627,4.2581,4.2459,4.214,4.2092,4.2092,4.2092,4.2092,4.2092,4.2092,4.2092,4.2092,4.2092,4.2092,4.2071,4.2051,4.1912,4.1627,4.1402,4.1255,4.1008,4.0816,4.0766,4.0723,4.0702,5.6396,5.6396,5.6396,5.6396,5.6396,5.6396,5.6396,5.6396,5.6401,5.5812,5.4826,5.412,5.3332,5.2551,5.2409,5.2409,5.2409,5.2391,5.2391,5.2391,5.2391,5.2391,5.2391,5.2391,5.2391,5.2391,5.2391,5.2391,5.2391,5.2391,5.2391,5.2391,5.2391,5.2391,5.2391,5.2391,5.2391,5.2391,5.2391,5.2391,5.2391,5.2391,5.2391,5.2391,5.2391,5.2391,5.2242,5.211,5.1248,5.0204,4.9558,4.8945,4.8133,4.8001,4.7984,4.7984,4.7984,4.8001,4.8001,4.7984,4.7952,4.7803,4.7671,4.7521,4.7487,4.7302,4.7064,4.703,4.6927,4.6893,4.6893,4.6893,4.6893,4.6893,4.6893,4.6893,4.6893,4.6893,4.6893,4.6772,4.6197,4.5497,4.5076,4.4305,4.3639,4.299,4.2789,4.2835,4.2331,4.2092,4.2092,4.2092,4.2092,4.2092,4.2092,4.2092,4.2092,4.2092,4.2092,4.2092,4.2092,4.2092,4.2092,4.2092,4.2071,4.2071,4.1891,4.1606,4.1438,4.1318,4.1022,4.0723,4.0702,4.0702,4.0702,5.6396,5.6396,5.6396,5.6396,5.6396,5.6396,5.6396,5.6396,5.6383,5.6014,5.534,5.4749,5.3748,5.2904,5.2517,5.2463,5.2409,5.2409,5.2391,5.2391,5.2391,5.2391,5.2391,5.2391,5.2391,5.2391,5.2391,5.2391,5.2391,5.2391,5.2391,5.2391,5.2391,5.2391,5.2391,5.2391,5.2391,5.2391,5.2391,5.2391,5.2391,5.2391,5.2391,5.2391,5.2391,5.2391,5.2159,5.1679,5.0983,5.0005,4.9011,4.8382,4.8117,4.8001,4.8001,4.8001,4.8001,4.8001,4.8001,4.8001,4.7984,4.7952,4.7803,4.7704,4.7671,4.7521,4.7285,4.7149,4.703,4.6928,4.6928,4.6893,4.6893,4.6893,4.6893,4.6893,4.6893,4.6893,4.6893,4.6859,4.6126,4.535,4.4627,4.3838,4.3056,4.2351,4.2092,4.2092,4.2092,4.2092,4.2092,4.2092,4.2092,4.2092,4.2092,4.2092,4.2092,4.2092,4.2092,4.2092,4.2092,4.2092,4.2092,4.2092,4.2071,4.2036,4.1891,4.1627,4.1465,4.1318,4.1001,4.0702,4.0702,4.0702,4.0702,5.6396,5.6396,5.6396,5.6396,5.6396,5.6396,5.6396,5.6396,5.6383,5.6014,5.5549,5.5236,5.4469,5.3213,5.323,5.3025,5.257,5.248,5.2391,5.2391,5.2391,5.2391,5.2391,5.2391,5.2391,5.2391,5.2391,5.2391,5.2391,5.2391,5.2391,5.2391,5.2391,5.2391,5.2391,5.2391,5.2391,5.2391,5.2391,5.2391,5.2391,5.2391,5.2391,5.2391,5.2391,5.2391,5.2192,5.1662,5.0949,5.0021,4.8895,4.8216,4.8001,4.8001,4.8001,4.8001,4.8001,4.8001,4.8001,4.8001,4.8001,4.7984,4.7853,4.7737,4.7704,4.7637,4.747,4.7403,4.7268,4.7081,4.7014,4.6928,4.6893,4.6893,4.6893,4.6893,4.6893,4.6893,4.6893,4.6495,4.5875,4.5203,4.4586,4.3717,4.2764,4.2222,4.2092,4.2092,4.2092,4.2092,4.2092,4.2092,4.2092,4.2092,4.2092,4.2092,4.2092,4.2092,4.2092,4.2092,4.2092,4.2092,4.2092,4.2092,4.2036,4.2016,4.1814,4.1591,4.1346,4.1156,4.0901,4.0723,4.0702,4.0702,4.0702]}]]